<?xml version="1.0" encoding="UTF-8" standalone="no" ?>
<gpx xmlns="http://www.topografix.com/GPX/1/1" xmlns:xsi="http://www.w3.org/2001/XMLSchema-instance" xsi:schemaLocation="http://www.topografix.com/GPX/1/1 http://www.topografix.com/GPX/1/1/gpx.xsd" version="1.1" creator="VisuGPX - https://www.visugpx.com">
  <metadata>
    <name>pas de l'Allier par le pas de Voutes</name>
    <desc><![CDATA[belle rando avec la neige à partir de 900m.ce 28 novembre 2018.]]></desc>
  </metadata>
  <trk>
    <name><![CDATA[2018-11-28 15:44:47]]></name>
    <trkseg>
      <trkpt lat="45.06105" lon="5.3441">
        <ele>213.99</ele>
        <time>2018-11-28T07:49:41Z</time>
      </trkpt>
      <trkpt lat="45.06107" lon="5.34413">
        <ele>214</ele>
        <time>2018-11-28T07:49:49Z</time>
      </trkpt>
      <trkpt lat="45.06111" lon="5.34421">
        <ele>215.81</ele>
        <time>2018-11-28T07:49:55Z</time>
      </trkpt>
      <trkpt lat="45.06114" lon="5.3443">
        <ele>217.25</ele>
        <time>2018-11-28T07:50:07Z</time>
      </trkpt>
      <trkpt lat="45.06113" lon="5.34432">
        <ele>217.1</ele>
        <time>2018-11-28T07:50:08Z</time>
      </trkpt>
      <trkpt lat="45.06114" lon="5.34436">
        <ele>217.03</ele>
        <time>2018-11-28T07:50:12Z</time>
      </trkpt>
      <trkpt lat="45.06109" lon="5.34452">
        <ele>217.74</ele>
        <time>2018-11-28T07:50:24Z</time>
      </trkpt>
      <trkpt lat="45.06106" lon="5.34459">
        <ele>217.97</ele>
        <time>2018-11-28T07:50:31Z</time>
      </trkpt>
      <trkpt lat="45.061" lon="5.34475">
        <ele>218.02</ele>
        <time>2018-11-28T07:50:46Z</time>
      </trkpt>
      <trkpt lat="45.06102" lon="5.34494">
        <ele>219.06</ele>
        <time>2018-11-28T07:51:02Z</time>
      </trkpt>
      <trkpt lat="45.06102" lon="5.34496">
        <ele>219.14</ele>
        <time>2018-11-28T07:51:03Z</time>
      </trkpt>
      <trkpt lat="45.061" lon="5.34502">
        <ele>219.63</ele>
        <time>2018-11-28T07:51:07Z</time>
      </trkpt>
      <trkpt lat="45.06102" lon="5.34528">
        <ele>220.62</ele>
        <time>2018-11-28T07:51:23Z</time>
      </trkpt>
      <trkpt lat="45.06102" lon="5.34529">
        <ele>220.71</ele>
        <time>2018-11-28T07:51:24Z</time>
      </trkpt>
      <trkpt lat="45.06101" lon="5.34532">
        <ele>220.89</ele>
        <time>2018-11-28T07:51:26Z</time>
      </trkpt>
      <trkpt lat="45.06101" lon="5.34537">
        <ele>221.02</ele>
        <time>2018-11-28T07:51:29Z</time>
      </trkpt>
      <trkpt lat="45.06099" lon="5.34546">
        <ele>221.28</ele>
        <time>2018-11-28T07:51:35Z</time>
      </trkpt>
      <trkpt lat="45.06099" lon="5.34561">
        <ele>221.59</ele>
        <time>2018-11-28T07:51:47Z</time>
      </trkpt>
      <trkpt lat="45.06098" lon="5.34562">
        <ele>221.72</ele>
        <time>2018-11-28T07:51:48Z</time>
      </trkpt>
      <trkpt lat="45.061" lon="5.34575">
        <ele>221.42</ele>
        <time>2018-11-28T07:52:04Z</time>
      </trkpt>
      <trkpt lat="45.06091" lon="5.346">
        <ele>221.69</ele>
        <time>2018-11-28T07:52:21Z</time>
      </trkpt>
      <trkpt lat="45.06081" lon="5.34615">
        <ele>222.27</ele>
        <time>2018-11-28T07:52:34Z</time>
      </trkpt>
      <trkpt lat="45.06079" lon="5.3462">
        <ele>222.79</ele>
        <time>2018-11-28T07:52:39Z</time>
      </trkpt>
      <trkpt lat="45.06068" lon="5.34633">
        <ele>223.44</ele>
        <time>2018-11-28T07:52:48Z</time>
      </trkpt>
      <trkpt lat="45.06065" lon="5.34638">
        <ele>223.47</ele>
        <time>2018-11-28T07:52:51Z</time>
      </trkpt>
      <trkpt lat="45.06061" lon="5.34645">
        <ele>223.97</ele>
        <time>2018-11-28T07:52:55Z</time>
      </trkpt>
      <trkpt lat="45.06054" lon="5.3465">
        <ele>224.45</ele>
        <time>2018-11-28T07:53:01Z</time>
      </trkpt>
      <trkpt lat="45.06053" lon="5.34661">
        <ele>224.91</ele>
        <time>2018-11-28T07:53:13Z</time>
      </trkpt>
      <trkpt lat="45.06055" lon="5.34675">
        <ele>225.39</ele>
        <time>2018-11-28T07:53:27Z</time>
      </trkpt>
      <trkpt lat="45.0605" lon="5.34679">
        <ele>225.36</ele>
        <time>2018-11-28T07:53:39Z</time>
      </trkpt>
      <trkpt lat="45.06047" lon="5.3468">
        <ele>225.56</ele>
        <time>2018-11-28T07:53:42Z</time>
      </trkpt>
      <trkpt lat="45.06036" lon="5.34687">
        <ele>225.76</ele>
        <time>2018-11-28T07:54:00Z</time>
      </trkpt>
      <trkpt lat="45.06033" lon="5.34691">
        <ele>225.85</ele>
        <time>2018-11-28T07:54:06Z</time>
      </trkpt>
      <trkpt lat="45.06032" lon="5.34697">
        <ele>225.8</ele>
        <time>2018-11-28T07:54:10Z</time>
      </trkpt>
      <trkpt lat="45.06036" lon="5.34709">
        <ele>225.86</ele>
        <time>2018-11-28T07:54:22Z</time>
      </trkpt>
      <trkpt lat="45.06057" lon="5.34708">
        <ele>225.43</ele>
        <time>2018-11-28T07:54:37Z</time>
      </trkpt>
      <trkpt lat="45.06057" lon="5.34711">
        <ele>225.24</ele>
        <time>2018-11-28T07:54:49Z</time>
      </trkpt>
      <trkpt lat="45.06063" lon="5.34712">
        <ele>225.11</ele>
        <time>2018-11-28T07:55:06Z</time>
      </trkpt>
      <trkpt lat="45.0606" lon="5.34711">
        <ele>225.06</ele>
        <time>2018-11-28T07:55:21Z</time>
      </trkpt>
      <trkpt lat="45.0605" lon="5.34716">
        <ele>224.99</ele>
        <time>2018-11-28T07:55:38Z</time>
      </trkpt>
      <trkpt lat="45.06046" lon="5.34716">
        <ele>224.38</ele>
        <time>2018-11-28T07:55:55Z</time>
      </trkpt>
      <trkpt lat="45.06049" lon="5.34714">
        <ele>224.24</ele>
        <time>2018-11-28T07:56:15Z</time>
      </trkpt>
      <trkpt lat="45.06048" lon="5.34718">
        <ele>224.06</ele>
        <time>2018-11-28T07:56:30Z</time>
      </trkpt>
      <trkpt lat="45.06042" lon="5.34725">
        <ele>224.05</ele>
        <time>2018-11-28T07:56:42Z</time>
      </trkpt>
      <trkpt lat="45.06043" lon="5.34732">
        <ele>225.75</ele>
        <time>2018-11-28T07:56:54Z</time>
      </trkpt>
      <trkpt lat="45.06045" lon="5.34743">
        <ele>228.12</ele>
        <time>2018-11-28T07:57:10Z</time>
      </trkpt>
      <trkpt lat="45.06046" lon="5.34748">
        <ele>228.68</ele>
        <time>2018-11-28T07:57:24Z</time>
      </trkpt>
      <trkpt lat="45.06052" lon="5.34763">
        <ele>230.98</ele>
        <time>2018-11-28T07:57:40Z</time>
      </trkpt>
      <trkpt lat="45.06059" lon="5.34784">
        <ele>233.76</ele>
        <time>2018-11-28T07:57:59Z</time>
      </trkpt>
      <trkpt lat="45.06062" lon="5.34795">
        <ele>236.23</ele>
        <time>2018-11-28T07:58:12Z</time>
      </trkpt>
      <trkpt lat="45.06071" lon="5.34811">
        <ele>239.13</ele>
        <time>2018-11-28T07:58:29Z</time>
      </trkpt>
      <trkpt lat="45.0608" lon="5.34823">
        <ele>241.18</ele>
        <time>2018-11-28T07:58:44Z</time>
      </trkpt>
      <trkpt lat="45.06085" lon="5.34828">
        <ele>241.64</ele>
        <time>2018-11-28T07:58:50Z</time>
      </trkpt>
      <trkpt lat="45.06095" lon="5.34845">
        <ele>242.11</ele>
        <time>2018-11-28T07:59:03Z</time>
      </trkpt>
      <trkpt lat="45.06103" lon="5.34856">
        <ele>242.21</ele>
        <time>2018-11-28T07:59:12Z</time>
      </trkpt>
      <trkpt lat="45.06108" lon="5.3486">
        <ele>242.19</ele>
        <time>2018-11-28T07:59:18Z</time>
      </trkpt>
      <trkpt lat="45.06117" lon="5.34868">
        <ele>242.51</ele>
        <time>2018-11-28T07:59:27Z</time>
      </trkpt>
      <trkpt lat="45.06126" lon="5.3488">
        <ele>243.83</ele>
        <time>2018-11-28T07:59:37Z</time>
      </trkpt>
      <trkpt lat="45.06134" lon="5.34888">
        <ele>245.37</ele>
        <time>2018-11-28T07:59:47Z</time>
      </trkpt>
      <trkpt lat="45.06145" lon="5.34902">
        <ele>245.71</ele>
        <time>2018-11-28T08:00:00Z</time>
      </trkpt>
      <trkpt lat="45.06147" lon="5.34902">
        <ele>245.84</ele>
        <time>2018-11-28T08:00:01Z</time>
      </trkpt>
      <trkpt lat="45.06147" lon="5.34906">
        <ele>246.15</ele>
        <time>2018-11-28T08:00:03Z</time>
      </trkpt>
      <trkpt lat="45.06155" lon="5.34916">
        <ele>246.62</ele>
        <time>2018-11-28T08:00:13Z</time>
      </trkpt>
      <trkpt lat="45.06159" lon="5.34923">
        <ele>247.47</ele>
        <time>2018-11-28T08:00:20Z</time>
      </trkpt>
      <trkpt lat="45.06167" lon="5.34932">
        <ele>248.33</ele>
        <time>2018-11-28T08:00:29Z</time>
      </trkpt>
      <trkpt lat="45.06179" lon="5.34942">
        <ele>249.78</ele>
        <time>2018-11-28T08:00:42Z</time>
      </trkpt>
      <trkpt lat="45.06187" lon="5.34951">
        <ele>251.78</ele>
        <time>2018-11-28T08:00:57Z</time>
      </trkpt>
      <trkpt lat="45.06199" lon="5.34961">
        <ele>253.91</ele>
        <time>2018-11-28T08:01:14Z</time>
      </trkpt>
      <trkpt lat="45.06211" lon="5.34967">
        <ele>256.53</ele>
        <time>2018-11-28T08:01:30Z</time>
      </trkpt>
      <trkpt lat="45.06226" lon="5.34968">
        <ele>258.76</ele>
        <time>2018-11-28T08:01:45Z</time>
      </trkpt>
      <trkpt lat="45.06233" lon="5.34972">
        <ele>260.44</ele>
        <time>2018-11-28T08:01:59Z</time>
      </trkpt>
      <trkpt lat="45.06243" lon="5.34978">
        <ele>262.33</ele>
        <time>2018-11-28T08:02:13Z</time>
      </trkpt>
      <trkpt lat="45.06251" lon="5.3498">
        <ele>264.53</ele>
        <time>2018-11-28T08:02:29Z</time>
      </trkpt>
      <trkpt lat="45.06257" lon="5.34988">
        <ele>266.4</ele>
        <time>2018-11-28T08:02:42Z</time>
      </trkpt>
      <trkpt lat="45.06265" lon="5.35">
        <ele>268.77</ele>
        <time>2018-11-28T08:02:58Z</time>
      </trkpt>
      <trkpt lat="45.06271" lon="5.35008">
        <ele>270.87</ele>
        <time>2018-11-28T08:03:13Z</time>
      </trkpt>
      <trkpt lat="45.0628" lon="5.35015">
        <ele>272.86</ele>
        <time>2018-11-28T08:03:27Z</time>
      </trkpt>
      <trkpt lat="45.06287" lon="5.35031">
        <ele>275.04</ele>
        <time>2018-11-28T08:03:42Z</time>
      </trkpt>
      <trkpt lat="45.06296" lon="5.35043">
        <ele>277.12</ele>
        <time>2018-11-28T08:03:58Z</time>
      </trkpt>
      <trkpt lat="45.06302" lon="5.35058">
        <ele>279.95</ele>
        <time>2018-11-28T08:04:16Z</time>
      </trkpt>
      <trkpt lat="45.06305" lon="5.35072">
        <ele>282.33</ele>
        <time>2018-11-28T08:04:33Z</time>
      </trkpt>
      <trkpt lat="45.06311" lon="5.3509">
        <ele>285.15</ele>
        <time>2018-11-28T08:04:52Z</time>
      </trkpt>
      <trkpt lat="45.06317" lon="5.35103">
        <ele>287.78</ele>
        <time>2018-11-28T08:05:09Z</time>
      </trkpt>
      <trkpt lat="45.06321" lon="5.35118">
        <ele>290.44</ele>
        <time>2018-11-28T08:05:25Z</time>
      </trkpt>
      <trkpt lat="45.06327" lon="5.35136">
        <ele>293.27</ele>
        <time>2018-11-28T08:05:44Z</time>
      </trkpt>
      <trkpt lat="45.06329" lon="5.3515">
        <ele>294.63</ele>
        <time>2018-11-28T08:05:57Z</time>
      </trkpt>
      <trkpt lat="45.06334" lon="5.35163">
        <ele>296.91</ele>
        <time>2018-11-28T08:06:13Z</time>
      </trkpt>
      <trkpt lat="45.06337" lon="5.35175">
        <ele>299.08</ele>
        <time>2018-11-28T08:06:28Z</time>
      </trkpt>
      <trkpt lat="45.06338" lon="5.35195">
        <ele>301.34</ele>
        <time>2018-11-28T08:06:47Z</time>
      </trkpt>
      <trkpt lat="45.06336" lon="5.35217">
        <ele>303.49</ele>
        <time>2018-11-28T08:07:05Z</time>
      </trkpt>
      <trkpt lat="45.06338" lon="5.35233">
        <ele>305.42</ele>
        <time>2018-11-28T08:07:21Z</time>
      </trkpt>
      <trkpt lat="45.06345" lon="5.35249">
        <ele>307.57</ele>
        <time>2018-11-28T08:07:38Z</time>
      </trkpt>
      <trkpt lat="45.06344" lon="5.35273">
        <ele>310.07</ele>
        <time>2018-11-28T08:07:56Z</time>
      </trkpt>
      <trkpt lat="45.06348" lon="5.35293">
        <ele>311.29</ele>
        <time>2018-11-28T08:08:11Z</time>
      </trkpt>
      <trkpt lat="45.06351" lon="5.3531">
        <ele>312.76</ele>
        <time>2018-11-28T08:08:25Z</time>
      </trkpt>
      <trkpt lat="45.06354" lon="5.35328">
        <ele>314.32</ele>
        <time>2018-11-28T08:08:40Z</time>
      </trkpt>
      <trkpt lat="45.06353" lon="5.35338">
        <ele>315.06</ele>
        <time>2018-11-28T08:08:47Z</time>
      </trkpt>
      <trkpt lat="45.06353" lon="5.35341">
        <ele>315.6</ele>
        <time>2018-11-28T08:08:49Z</time>
      </trkpt>
      <trkpt lat="45.06349" lon="5.35365">
        <ele>317.38</ele>
        <time>2018-11-28T08:09:09Z</time>
      </trkpt>
      <trkpt lat="45.06351" lon="5.35385">
        <ele>319.18</ele>
        <time>2018-11-28T08:09:27Z</time>
      </trkpt>
      <trkpt lat="45.06351" lon="5.354">
        <ele>321.69</ele>
        <time>2018-11-28T08:09:44Z</time>
      </trkpt>
      <trkpt lat="45.06346" lon="5.35413">
        <ele>323.45</ele>
        <time>2018-11-28T08:09:59Z</time>
      </trkpt>
      <trkpt lat="45.06342" lon="5.35432">
        <ele>325.92</ele>
        <time>2018-11-28T08:10:17Z</time>
      </trkpt>
      <trkpt lat="45.0634" lon="5.35446">
        <ele>327.59</ele>
        <time>2018-11-28T08:10:31Z</time>
      </trkpt>
      <trkpt lat="45.06337" lon="5.35462">
        <ele>329.64</ele>
        <time>2018-11-28T08:10:50Z</time>
      </trkpt>
      <trkpt lat="45.06333" lon="5.35477">
        <ele>331.88</ele>
        <time>2018-11-28T08:11:07Z</time>
      </trkpt>
      <trkpt lat="45.06328" lon="5.35495">
        <ele>334.51</ele>
        <time>2018-11-28T08:11:27Z</time>
      </trkpt>
      <trkpt lat="45.06323" lon="5.35514">
        <ele>336.9</ele>
        <time>2018-11-28T08:11:45Z</time>
      </trkpt>
      <trkpt lat="45.06312" lon="5.3553">
        <ele>339.17</ele>
        <time>2018-11-28T08:12:03Z</time>
      </trkpt>
      <trkpt lat="45.06306" lon="5.35546">
        <ele>342.24</ele>
        <time>2018-11-28T08:12:23Z</time>
      </trkpt>
      <trkpt lat="45.063" lon="5.35561">
        <ele>343.95</ele>
        <time>2018-11-28T08:12:38Z</time>
      </trkpt>
      <trkpt lat="45.06293" lon="5.35575">
        <ele>345.53</ele>
        <time>2018-11-28T08:12:54Z</time>
      </trkpt>
      <trkpt lat="45.06288" lon="5.35588">
        <ele>347.68</ele>
        <time>2018-11-28T08:13:12Z</time>
      </trkpt>
      <trkpt lat="45.06281" lon="5.35602">
        <ele>349.62</ele>
        <time>2018-11-28T08:13:30Z</time>
      </trkpt>
      <trkpt lat="45.06278" lon="5.35622">
        <ele>351.39</ele>
        <time>2018-11-28T08:13:48Z</time>
      </trkpt>
      <trkpt lat="45.06273" lon="5.35641">
        <ele>353.07</ele>
        <time>2018-11-28T08:14:04Z</time>
      </trkpt>
      <trkpt lat="45.06273" lon="5.35643">
        <ele>353.29</ele>
        <time>2018-11-28T08:14:06Z</time>
      </trkpt>
      <trkpt lat="45.06269" lon="5.35651">
        <ele>354</ele>
        <time>2018-11-28T08:14:11Z</time>
      </trkpt>
      <trkpt lat="45.06267" lon="5.35655">
        <ele>354.31</ele>
        <time>2018-11-28T08:14:14Z</time>
      </trkpt>
      <trkpt lat="45.06261" lon="5.35674">
        <ele>355.99</ele>
        <time>2018-11-28T08:14:29Z</time>
      </trkpt>
      <trkpt lat="45.06257" lon="5.35693">
        <ele>357.94</ele>
        <time>2018-11-28T08:14:44Z</time>
      </trkpt>
      <trkpt lat="45.06255" lon="5.35696">
        <ele>358.3</ele>
        <time>2018-11-28T08:14:47Z</time>
      </trkpt>
      <trkpt lat="45.06251" lon="5.35705">
        <ele>359.61</ele>
        <time>2018-11-28T08:14:55Z</time>
      </trkpt>
      <trkpt lat="45.06252" lon="5.35711">
        <ele>359.39</ele>
        <time>2018-11-28T08:15:05Z</time>
      </trkpt>
      <trkpt lat="45.06255" lon="5.35709">
        <ele>358.86</ele>
        <time>2018-11-28T08:15:39Z</time>
      </trkpt>
      <trkpt lat="45.06252" lon="5.35712">
        <ele>360.04</ele>
        <time>2018-11-28T08:15:57Z</time>
      </trkpt>
      <trkpt lat="45.06247" lon="5.35723">
        <ele>362.24</ele>
        <time>2018-11-28T08:16:08Z</time>
      </trkpt>
      <trkpt lat="45.06246" lon="5.35724">
        <ele>362.63</ele>
        <time>2018-11-28T08:16:09Z</time>
      </trkpt>
      <trkpt lat="45.06235" lon="5.35747">
        <ele>365.79</ele>
        <time>2018-11-28T08:16:27Z</time>
      </trkpt>
      <trkpt lat="45.06229" lon="5.35761">
        <ele>367.61</ele>
        <time>2018-11-28T08:16:40Z</time>
      </trkpt>
      <trkpt lat="45.06223" lon="5.3578">
        <ele>369.42</ele>
        <time>2018-11-28T08:16:55Z</time>
      </trkpt>
      <trkpt lat="45.0622" lon="5.35785">
        <ele>369.71</ele>
        <time>2018-11-28T08:16:58Z</time>
      </trkpt>
      <trkpt lat="45.06212" lon="5.35812">
        <ele>371.85</ele>
        <time>2018-11-28T08:17:17Z</time>
      </trkpt>
      <trkpt lat="45.06212" lon="5.3583">
        <ele>373.38</ele>
        <time>2018-11-28T08:17:32Z</time>
      </trkpt>
      <trkpt lat="45.06205" lon="5.35851">
        <ele>375.03</ele>
        <time>2018-11-28T08:17:46Z</time>
      </trkpt>
      <trkpt lat="45.06197" lon="5.35873">
        <ele>376.93</ele>
        <time>2018-11-28T08:18:02Z</time>
      </trkpt>
      <trkpt lat="45.06187" lon="5.35892">
        <ele>378.73</ele>
        <time>2018-11-28T08:18:18Z</time>
      </trkpt>
      <trkpt lat="45.06173" lon="5.35911">
        <ele>380.73</ele>
        <time>2018-11-28T08:18:35Z</time>
      </trkpt>
      <trkpt lat="45.06174" lon="5.35921">
        <ele>381.77</ele>
        <time>2018-11-28T08:18:49Z</time>
      </trkpt>
      <trkpt lat="45.06171" lon="5.35936">
        <ele>383.35</ele>
        <time>2018-11-28T08:19:04Z</time>
      </trkpt>
      <trkpt lat="45.06163" lon="5.3595">
        <ele>385.45</ele>
        <time>2018-11-28T08:19:21Z</time>
      </trkpt>
      <trkpt lat="45.06151" lon="5.35969">
        <ele>387.75</ele>
        <time>2018-11-28T08:19:39Z</time>
      </trkpt>
      <trkpt lat="45.06145" lon="5.35984">
        <ele>390.34</ele>
        <time>2018-11-28T08:19:56Z</time>
      </trkpt>
      <trkpt lat="45.06142" lon="5.35993">
        <ele>391.78</ele>
        <time>2018-11-28T08:20:06Z</time>
      </trkpt>
      <trkpt lat="45.06136" lon="5.36011">
        <ele>393.88</ele>
        <time>2018-11-28T08:20:21Z</time>
      </trkpt>
      <trkpt lat="45.0613" lon="5.36022">
        <ele>395.36</ele>
        <time>2018-11-28T08:20:32Z</time>
      </trkpt>
      <trkpt lat="45.06121" lon="5.36029">
        <ele>397.23</ele>
        <time>2018-11-28T08:20:48Z</time>
      </trkpt>
      <trkpt lat="45.06111" lon="5.36032">
        <ele>399.62</ele>
        <time>2018-11-28T08:21:06Z</time>
      </trkpt>
      <trkpt lat="45.06102" lon="5.36036">
        <ele>402.19</ele>
        <time>2018-11-28T08:21:23Z</time>
      </trkpt>
      <trkpt lat="45.06094" lon="5.36044">
        <ele>403.89</ele>
        <time>2018-11-28T08:21:37Z</time>
      </trkpt>
      <trkpt lat="45.06082" lon="5.36049">
        <ele>406.53</ele>
        <time>2018-11-28T08:21:54Z</time>
      </trkpt>
      <trkpt lat="45.06071" lon="5.36052">
        <ele>408.88</ele>
        <time>2018-11-28T08:22:12Z</time>
      </trkpt>
      <trkpt lat="45.06059" lon="5.36062">
        <ele>410.75</ele>
        <time>2018-11-28T08:22:27Z</time>
      </trkpt>
      <trkpt lat="45.06048" lon="5.36075">
        <ele>412.91</ele>
        <time>2018-11-28T08:22:43Z</time>
      </trkpt>
      <trkpt lat="45.06037" lon="5.36091">
        <ele>415</ele>
        <time>2018-11-28T08:22:58Z</time>
      </trkpt>
      <trkpt lat="45.06026" lon="5.36102">
        <ele>417.65</ele>
        <time>2018-11-28T08:23:15Z</time>
      </trkpt>
      <trkpt lat="45.0602" lon="5.36111">
        <ele>418.17</ele>
        <time>2018-11-28T08:23:26Z</time>
      </trkpt>
      <trkpt lat="45.06019" lon="5.36114">
        <ele>417.3</ele>
        <time>2018-11-28T08:23:41Z</time>
      </trkpt>
      <trkpt lat="45.06021" lon="5.36114">
        <ele>417.19</ele>
        <time>2018-11-28T08:24:12Z</time>
      </trkpt>
      <trkpt lat="45.0602" lon="5.36115">
        <ele>416.91</ele>
        <time>2018-11-28T08:24:33Z</time>
      </trkpt>
      <trkpt lat="45.06023" lon="5.36114">
        <ele>416.67</ele>
        <time>2018-11-28T08:25:14Z</time>
      </trkpt>
      <trkpt lat="45.06024" lon="5.36112">
        <ele>416.25</ele>
        <time>2018-11-28T08:25:54Z</time>
      </trkpt>
      <trkpt lat="45.06023" lon="5.36112">
        <ele>416.9</ele>
        <time>2018-11-28T08:26:22Z</time>
      </trkpt>
      <trkpt lat="45.06024" lon="5.36109">
        <ele>416.91</ele>
        <time>2018-11-28T08:26:38Z</time>
      </trkpt>
      <trkpt lat="45.06024" lon="5.36107">
        <ele>416.66</ele>
        <time>2018-11-28T08:27:00Z</time>
      </trkpt>
      <trkpt lat="45.06024" lon="5.36108">
        <ele>416.77</ele>
        <time>2018-11-28T08:27:24Z</time>
      </trkpt>
      <trkpt lat="45.06021" lon="5.36113">
        <ele>416.57</ele>
        <time>2018-11-28T08:27:46Z</time>
      </trkpt>
      <trkpt lat="45.06021" lon="5.36113">
        <ele>416.5</ele>
        <time>2018-11-28T08:28:10Z</time>
      </trkpt>
      <trkpt lat="45.06023" lon="5.36111">
        <ele>416.63</ele>
        <time>2018-11-28T08:28:29Z</time>
      </trkpt>
      <trkpt lat="45.06025" lon="5.36111">
        <ele>416.26</ele>
        <time>2018-11-28T08:28:55Z</time>
      </trkpt>
      <trkpt lat="45.06012" lon="5.36112">
        <ele>416.72</ele>
        <time>2018-11-28T08:29:09Z</time>
      </trkpt>
      <trkpt lat="45.06011" lon="5.36114">
        <ele>417.11</ele>
        <time>2018-11-28T08:29:11Z</time>
      </trkpt>
      <trkpt lat="45.06" lon="5.36127">
        <ele>418.44</ele>
        <time>2018-11-28T08:29:25Z</time>
      </trkpt>
      <trkpt lat="45.05991" lon="5.36137">
        <ele>421.55</ele>
        <time>2018-11-28T08:29:40Z</time>
      </trkpt>
      <trkpt lat="45.0598" lon="5.36154">
        <ele>423.93</ele>
        <time>2018-11-28T08:29:59Z</time>
      </trkpt>
      <trkpt lat="45.05969" lon="5.36171">
        <ele>425.75</ele>
        <time>2018-11-28T08:30:16Z</time>
      </trkpt>
      <trkpt lat="45.05956" lon="5.36192">
        <ele>426.83</ele>
        <time>2018-11-28T08:30:34Z</time>
      </trkpt>
      <trkpt lat="45.05942" lon="5.36205">
        <ele>428.75</ele>
        <time>2018-11-28T08:30:51Z</time>
      </trkpt>
      <trkpt lat="45.05929" lon="5.36216">
        <ele>430.29</ele>
        <time>2018-11-28T08:31:08Z</time>
      </trkpt>
      <trkpt lat="45.0592" lon="5.36225">
        <ele>432.44</ele>
        <time>2018-11-28T08:31:26Z</time>
      </trkpt>
      <trkpt lat="45.05908" lon="5.36237">
        <ele>434.53</ele>
        <time>2018-11-28T08:31:42Z</time>
      </trkpt>
      <trkpt lat="45.05901" lon="5.36244">
        <ele>436.03</ele>
        <time>2018-11-28T08:31:51Z</time>
      </trkpt>
      <trkpt lat="45.05892" lon="5.36252">
        <ele>437.39</ele>
        <time>2018-11-28T08:32:06Z</time>
      </trkpt>
      <trkpt lat="45.0588" lon="5.36269">
        <ele>439.63</ele>
        <time>2018-11-28T08:32:25Z</time>
      </trkpt>
      <trkpt lat="45.05867" lon="5.36284">
        <ele>441.38</ele>
        <time>2018-11-28T08:32:43Z</time>
      </trkpt>
      <trkpt lat="45.05857" lon="5.36287">
        <ele>443.17</ele>
        <time>2018-11-28T08:32:58Z</time>
      </trkpt>
      <trkpt lat="45.05847" lon="5.36293">
        <ele>445.28</ele>
        <time>2018-11-28T08:33:11Z</time>
      </trkpt>
      <trkpt lat="45.05834" lon="5.363">
        <ele>447.32</ele>
        <time>2018-11-28T08:33:27Z</time>
      </trkpt>
      <trkpt lat="45.05825" lon="5.36315">
        <ele>448.78</ele>
        <time>2018-11-28T08:33:43Z</time>
      </trkpt>
      <trkpt lat="45.05815" lon="5.36332">
        <ele>449.99</ele>
        <time>2018-11-28T08:33:59Z</time>
      </trkpt>
      <trkpt lat="45.05809" lon="5.36346">
        <ele>450.9</ele>
        <time>2018-11-28T08:34:14Z</time>
      </trkpt>
      <trkpt lat="45.05801" lon="5.36365">
        <ele>453.31</ele>
        <time>2018-11-28T08:34:32Z</time>
      </trkpt>
      <trkpt lat="45.05797" lon="5.36379">
        <ele>454.87</ele>
        <time>2018-11-28T08:34:43Z</time>
      </trkpt>
      <trkpt lat="45.05789" lon="5.36396">
        <ele>457.41</ele>
        <time>2018-11-28T08:34:59Z</time>
      </trkpt>
      <trkpt lat="45.05778" lon="5.364">
        <ele>460.25</ele>
        <time>2018-11-28T08:35:15Z</time>
      </trkpt>
      <trkpt lat="45.05768" lon="5.36398">
        <ele>462.52</ele>
        <time>2018-11-28T08:35:31Z</time>
      </trkpt>
      <trkpt lat="45.05761" lon="5.36394">
        <ele>464.79</ele>
        <time>2018-11-28T08:35:48Z</time>
      </trkpt>
      <trkpt lat="45.05748" lon="5.36398">
        <ele>467.63</ele>
        <time>2018-11-28T08:36:05Z</time>
      </trkpt>
      <trkpt lat="45.05734" lon="5.36401">
        <ele>469.64</ele>
        <time>2018-11-28T08:36:20Z</time>
      </trkpt>
      <trkpt lat="45.05719" lon="5.36399">
        <ele>472.31</ele>
        <time>2018-11-28T08:36:38Z</time>
      </trkpt>
      <trkpt lat="45.05704" lon="5.36398">
        <ele>474.41</ele>
        <time>2018-11-28T08:36:54Z</time>
      </trkpt>
      <trkpt lat="45.0569" lon="5.36389">
        <ele>477.52</ele>
        <time>2018-11-28T08:37:11Z</time>
      </trkpt>
      <trkpt lat="45.05672" lon="5.36387">
        <ele>480.31</ele>
        <time>2018-11-28T08:37:29Z</time>
      </trkpt>
      <trkpt lat="45.05663" lon="5.36382">
        <ele>482.99</ele>
        <time>2018-11-28T08:37:44Z</time>
      </trkpt>
      <trkpt lat="45.0565" lon="5.36381">
        <ele>485.18</ele>
        <time>2018-11-28T08:37:58Z</time>
      </trkpt>
      <trkpt lat="45.05637" lon="5.36382">
        <ele>486.83</ele>
        <time>2018-11-28T08:38:13Z</time>
      </trkpt>
      <trkpt lat="45.05625" lon="5.36381">
        <ele>490.3</ele>
        <time>2018-11-28T08:38:30Z</time>
      </trkpt>
      <trkpt lat="45.0561" lon="5.36383">
        <ele>492.78</ele>
        <time>2018-11-28T08:38:48Z</time>
      </trkpt>
      <trkpt lat="45.05596" lon="5.36391">
        <ele>495.73</ele>
        <time>2018-11-28T08:39:06Z</time>
      </trkpt>
      <trkpt lat="45.05586" lon="5.36396">
        <ele>498.66</ele>
        <time>2018-11-28T08:39:21Z</time>
      </trkpt>
      <trkpt lat="45.05577" lon="5.36399">
        <ele>500.7</ele>
        <time>2018-11-28T08:39:35Z</time>
      </trkpt>
      <trkpt lat="45.05564" lon="5.36402">
        <ele>503.62</ele>
        <time>2018-11-28T08:39:50Z</time>
      </trkpt>
      <trkpt lat="45.05552" lon="5.364">
        <ele>505.82</ele>
        <time>2018-11-28T08:40:04Z</time>
      </trkpt>
      <trkpt lat="45.0554" lon="5.36397">
        <ele>509.03</ele>
        <time>2018-11-28T08:40:21Z</time>
      </trkpt>
      <trkpt lat="45.05525" lon="5.364">
        <ele>512.37</ele>
        <time>2018-11-28T08:40:41Z</time>
      </trkpt>
      <trkpt lat="45.05511" lon="5.36405">
        <ele>514.97</ele>
        <time>2018-11-28T08:40:58Z</time>
      </trkpt>
      <trkpt lat="45.05498" lon="5.3641">
        <ele>517.51</ele>
        <time>2018-11-28T08:41:14Z</time>
      </trkpt>
      <trkpt lat="45.05492" lon="5.3641">
        <ele>518.07</ele>
        <time>2018-11-28T08:41:26Z</time>
      </trkpt>
      <trkpt lat="45.05481" lon="5.36414">
        <ele>520.82</ele>
        <time>2018-11-28T08:41:42Z</time>
      </trkpt>
      <trkpt lat="45.05468" lon="5.36419">
        <ele>522.92</ele>
        <time>2018-11-28T08:41:59Z</time>
      </trkpt>
      <trkpt lat="45.05458" lon="5.36421">
        <ele>524.92</ele>
        <time>2018-11-28T08:42:18Z</time>
      </trkpt>
      <trkpt lat="45.05454" lon="5.36421">
        <ele>525.41</ele>
        <time>2018-11-28T08:42:34Z</time>
      </trkpt>
      <trkpt lat="45.05452" lon="5.36421">
        <ele>525.37</ele>
        <time>2018-11-28T08:42:36Z</time>
      </trkpt>
      <trkpt lat="45.05447" lon="5.36419">
        <ele>526.17</ele>
        <time>2018-11-28T08:42:47Z</time>
      </trkpt>
      <trkpt lat="45.05449" lon="5.3642">
        <ele>526.46</ele>
        <time>2018-11-28T08:43:02Z</time>
      </trkpt>
      <trkpt lat="45.05447" lon="5.3642">
        <ele>526.29</ele>
        <time>2018-11-28T08:43:18Z</time>
      </trkpt>
      <trkpt lat="45.05443" lon="5.36418">
        <ele>525.84</ele>
        <time>2018-11-28T08:43:38Z</time>
      </trkpt>
      <trkpt lat="45.05444" lon="5.36419">
        <ele>526.02</ele>
        <time>2018-11-28T08:43:55Z</time>
      </trkpt>
      <trkpt lat="45.05446" lon="5.36422">
        <ele>526.06</ele>
        <time>2018-11-28T08:44:12Z</time>
      </trkpt>
      <trkpt lat="45.05447" lon="5.36424">
        <ele>525.84</ele>
        <time>2018-11-28T08:44:30Z</time>
      </trkpt>
      <trkpt lat="45.05449" lon="5.36425">
        <ele>525.96</ele>
        <time>2018-11-28T08:44:50Z</time>
      </trkpt>
      <trkpt lat="45.05447" lon="5.36422">
        <ele>525.84</ele>
        <time>2018-11-28T08:45:11Z</time>
      </trkpt>
      <trkpt lat="45.05445" lon="5.36421">
        <ele>525.85</ele>
        <time>2018-11-28T08:45:30Z</time>
      </trkpt>
      <trkpt lat="45.05445" lon="5.36423">
        <ele>526.34</ele>
        <time>2018-11-28T08:45:47Z</time>
      </trkpt>
      <trkpt lat="45.05444" lon="5.36423">
        <ele>526.15</ele>
        <time>2018-11-28T08:46:08Z</time>
      </trkpt>
      <trkpt lat="45.05437" lon="5.36424">
        <ele>526.34</ele>
        <time>2018-11-28T08:46:21Z</time>
      </trkpt>
      <trkpt lat="45.05425" lon="5.36435">
        <ele>528.03</ele>
        <time>2018-11-28T08:46:37Z</time>
      </trkpt>
      <trkpt lat="45.05419" lon="5.36445">
        <ele>528.58</ele>
        <time>2018-11-28T08:46:45Z</time>
      </trkpt>
      <trkpt lat="45.0541" lon="5.36458">
        <ele>529.78</ele>
        <time>2018-11-28T08:46:57Z</time>
      </trkpt>
      <trkpt lat="45.05397" lon="5.36472">
        <ele>530.81</ele>
        <time>2018-11-28T08:47:12Z</time>
      </trkpt>
      <trkpt lat="45.0539" lon="5.36474">
        <ele>531.5</ele>
        <time>2018-11-28T08:47:17Z</time>
      </trkpt>
      <trkpt lat="45.0538" lon="5.36479">
        <ele>531.38</ele>
        <time>2018-11-28T08:47:27Z</time>
      </trkpt>
      <trkpt lat="45.05374" lon="5.36485">
        <ele>531.86</ele>
        <time>2018-11-28T08:47:33Z</time>
      </trkpt>
      <trkpt lat="45.05363" lon="5.36495">
        <ele>532.04</ele>
        <time>2018-11-28T08:47:44Z</time>
      </trkpt>
      <trkpt lat="45.05359" lon="5.36499">
        <ele>531.9</ele>
        <time>2018-11-28T08:47:49Z</time>
      </trkpt>
      <trkpt lat="45.05357" lon="5.36501">
        <ele>532.1</ele>
        <time>2018-11-28T08:47:51Z</time>
      </trkpt>
      <trkpt lat="45.05354" lon="5.36505">
        <ele>532.18</ele>
        <time>2018-11-28T08:47:54Z</time>
      </trkpt>
      <trkpt lat="45.05349" lon="5.36513">
        <ele>532.17</ele>
        <time>2018-11-28T08:48:02Z</time>
      </trkpt>
      <trkpt lat="45.05338" lon="5.36527">
        <ele>532.61</ele>
        <time>2018-11-28T08:48:15Z</time>
      </trkpt>
      <trkpt lat="45.05336" lon="5.3653">
        <ele>532.55</ele>
        <time>2018-11-28T08:48:17Z</time>
      </trkpt>
      <trkpt lat="45.05333" lon="5.36537">
        <ele>532.79</ele>
        <time>2018-11-28T08:48:21Z</time>
      </trkpt>
      <trkpt lat="45.0533" lon="5.36544">
        <ele>532.89</ele>
        <time>2018-11-28T08:48:25Z</time>
      </trkpt>
      <trkpt lat="45.05325" lon="5.36564">
        <ele>533.64</ele>
        <time>2018-11-28T08:48:36Z</time>
      </trkpt>
      <trkpt lat="45.05319" lon="5.36579">
        <ele>533.92</ele>
        <time>2018-11-28T08:48:46Z</time>
      </trkpt>
      <trkpt lat="45.05315" lon="5.36592">
        <ele>534.36</ele>
        <time>2018-11-28T08:48:54Z</time>
      </trkpt>
      <trkpt lat="45.05309" lon="5.36602">
        <ele>534.6</ele>
        <time>2018-11-28T08:49:02Z</time>
      </trkpt>
      <trkpt lat="45.0531" lon="5.3662">
        <ele>534.38</ele>
        <time>2018-11-28T08:49:12Z</time>
      </trkpt>
      <trkpt lat="45.05311" lon="5.36626">
        <ele>534.1</ele>
        <time>2018-11-28T08:49:16Z</time>
      </trkpt>
      <trkpt lat="45.05321" lon="5.36643">
        <ele>533.2</ele>
        <time>2018-11-28T08:49:30Z</time>
      </trkpt>
      <trkpt lat="45.05325" lon="5.36654">
        <ele>532.77</ele>
        <time>2018-11-28T08:49:38Z</time>
      </trkpt>
      <trkpt lat="45.05328" lon="5.36664">
        <ele>532.39</ele>
        <time>2018-11-28T08:49:44Z</time>
      </trkpt>
      <trkpt lat="45.05335" lon="5.36685">
        <ele>531.76</ele>
        <time>2018-11-28T08:49:58Z</time>
      </trkpt>
      <trkpt lat="45.05336" lon="5.3671">
        <ele>531.2</ele>
        <time>2018-11-28T08:50:10Z</time>
      </trkpt>
      <trkpt lat="45.05333" lon="5.36736">
        <ele>530.23</ele>
        <time>2018-11-28T08:50:23Z</time>
      </trkpt>
      <trkpt lat="45.05331" lon="5.36747">
        <ele>530.58</ele>
        <time>2018-11-28T08:50:33Z</time>
      </trkpt>
      <trkpt lat="45.05328" lon="5.36766">
        <ele>531.74</ele>
        <time>2018-11-28T08:50:45Z</time>
      </trkpt>
      <trkpt lat="45.05328" lon="5.36769">
        <ele>531.77</ele>
        <time>2018-11-28T08:50:47Z</time>
      </trkpt>
      <trkpt lat="45.05326" lon="5.36787">
        <ele>532.63</ele>
        <time>2018-11-28T08:50:59Z</time>
      </trkpt>
      <trkpt lat="45.05326" lon="5.36804">
        <ele>534.02</ele>
        <time>2018-11-28T08:51:11Z</time>
      </trkpt>
      <trkpt lat="45.05326" lon="5.36809">
        <ele>533.93</ele>
        <time>2018-11-28T08:51:16Z</time>
      </trkpt>
      <trkpt lat="45.05325" lon="5.36815">
        <ele>534.42</ele>
        <time>2018-11-28T08:51:29Z</time>
      </trkpt>
      <trkpt lat="45.05324" lon="5.36818">
        <ele>534.57</ele>
        <time>2018-11-28T08:51:45Z</time>
      </trkpt>
      <trkpt lat="45.05325" lon="5.36818">
        <ele>534.6</ele>
        <time>2018-11-28T08:52:03Z</time>
      </trkpt>
      <trkpt lat="45.05324" lon="5.36817">
        <ele>534.33</ele>
        <time>2018-11-28T08:52:28Z</time>
      </trkpt>
      <trkpt lat="45.05323" lon="5.36816">
        <ele>534.51</ele>
        <time>2018-11-28T08:52:48Z</time>
      </trkpt>
      <trkpt lat="45.05321" lon="5.3682">
        <ele>533.94</ele>
        <time>2018-11-28T08:53:03Z</time>
      </trkpt>
      <trkpt lat="45.05321" lon="5.36823">
        <ele>534.72</ele>
        <time>2018-11-28T08:53:33Z</time>
      </trkpt>
      <trkpt lat="45.0532" lon="5.36824">
        <ele>534.85</ele>
        <time>2018-11-28T08:53:50Z</time>
      </trkpt>
      <trkpt lat="45.0532" lon="5.36826">
        <ele>535.55</ele>
        <time>2018-11-28T08:54:05Z</time>
      </trkpt>
      <trkpt lat="45.05321" lon="5.36827">
        <ele>535.27</ele>
        <time>2018-11-28T08:54:25Z</time>
      </trkpt>
      <trkpt lat="45.05321" lon="5.36826">
        <ele>535.42</ele>
        <time>2018-11-28T08:54:41Z</time>
      </trkpt>
      <trkpt lat="45.05321" lon="5.36827">
        <ele>535.52</ele>
        <time>2018-11-28T08:54:52Z</time>
      </trkpt>
      <trkpt lat="45.05321" lon="5.36829">
        <ele>535.81</ele>
        <time>2018-11-28T08:55:20Z</time>
      </trkpt>
      <trkpt lat="45.05319" lon="5.36829">
        <ele>535.85</ele>
        <time>2018-11-28T08:55:37Z</time>
      </trkpt>
      <trkpt lat="45.05314" lon="5.36834">
        <ele>536.24</ele>
        <time>2018-11-28T08:55:47Z</time>
      </trkpt>
      <trkpt lat="45.05309" lon="5.36839">
        <ele>536.64</ele>
        <time>2018-11-28T08:56:00Z</time>
      </trkpt>
      <trkpt lat="45.05308" lon="5.36841">
        <ele>537.18</ele>
        <time>2018-11-28T08:56:04Z</time>
      </trkpt>
      <trkpt lat="45.05306" lon="5.36845">
        <ele>537.23</ele>
        <time>2018-11-28T08:56:07Z</time>
      </trkpt>
      <trkpt lat="45.05305" lon="5.36848">
        <ele>537.97</ele>
        <time>2018-11-28T08:56:10Z</time>
      </trkpt>
      <trkpt lat="45.05296" lon="5.36859">
        <ele>539.53</ele>
        <time>2018-11-28T08:56:23Z</time>
      </trkpt>
      <trkpt lat="45.05286" lon="5.36875">
        <ele>542.38</ele>
        <time>2018-11-28T08:56:39Z</time>
      </trkpt>
      <trkpt lat="45.05279" lon="5.36889">
        <ele>543.78</ele>
        <time>2018-11-28T08:56:52Z</time>
      </trkpt>
      <trkpt lat="45.05272" lon="5.36903">
        <ele>545.8</ele>
        <time>2018-11-28T08:57:05Z</time>
      </trkpt>
      <trkpt lat="45.05271" lon="5.36905">
        <ele>546.37</ele>
        <time>2018-11-28T08:57:07Z</time>
      </trkpt>
      <trkpt lat="45.05269" lon="5.36914">
        <ele>547.22</ele>
        <time>2018-11-28T08:57:14Z</time>
      </trkpt>
      <trkpt lat="45.05265" lon="5.36928">
        <ele>548.82</ele>
        <time>2018-11-28T08:57:27Z</time>
      </trkpt>
      <trkpt lat="45.05265" lon="5.36935">
        <ele>549.79</ele>
        <time>2018-11-28T08:57:40Z</time>
      </trkpt>
      <trkpt lat="45.05269" lon="5.3694">
        <ele>550.01</ele>
        <time>2018-11-28T08:57:45Z</time>
      </trkpt>
      <trkpt lat="45.05269" lon="5.36956">
        <ele>551.53</ele>
        <time>2018-11-28T08:57:57Z</time>
      </trkpt>
      <trkpt lat="45.05269" lon="5.36965">
        <ele>552.76</ele>
        <time>2018-11-28T08:58:04Z</time>
      </trkpt>
      <trkpt lat="45.05273" lon="5.36983">
        <ele>553.45</ele>
        <time>2018-11-28T08:58:17Z</time>
      </trkpt>
      <trkpt lat="45.05274" lon="5.36984">
        <ele>553.44</ele>
        <time>2018-11-28T08:58:18Z</time>
      </trkpt>
      <trkpt lat="45.05273" lon="5.36988">
        <ele>553.81</ele>
        <time>2018-11-28T08:58:21Z</time>
      </trkpt>
      <trkpt lat="45.05276" lon="5.37005">
        <ele>555.04</ele>
        <time>2018-11-28T08:58:34Z</time>
      </trkpt>
      <trkpt lat="45.05281" lon="5.3702">
        <ele>556.96</ele>
        <time>2018-11-28T08:58:47Z</time>
      </trkpt>
      <trkpt lat="45.05283" lon="5.37031">
        <ele>558.28</ele>
        <time>2018-11-28T08:58:56Z</time>
      </trkpt>
      <trkpt lat="45.05285" lon="5.37045">
        <ele>559.28</ele>
        <time>2018-11-28T08:59:06Z</time>
      </trkpt>
      <trkpt lat="45.05286" lon="5.37055">
        <ele>560.03</ele>
        <time>2018-11-28T08:59:13Z</time>
      </trkpt>
      <trkpt lat="45.05287" lon="5.37071">
        <ele>561.08</ele>
        <time>2018-11-28T08:59:24Z</time>
      </trkpt>
      <trkpt lat="45.05287" lon="5.37073">
        <ele>560.91</ele>
        <time>2018-11-28T08:59:25Z</time>
      </trkpt>
      <trkpt lat="45.0529" lon="5.37091">
        <ele>562.12</ele>
        <time>2018-11-28T08:59:37Z</time>
      </trkpt>
      <trkpt lat="45.0529" lon="5.37102">
        <ele>562.81</ele>
        <time>2018-11-28T08:59:44Z</time>
      </trkpt>
      <trkpt lat="45.05289" lon="5.37115">
        <ele>563.8</ele>
        <time>2018-11-28T08:59:57Z</time>
      </trkpt>
      <trkpt lat="45.05289" lon="5.37129">
        <ele>564.61</ele>
        <time>2018-11-28T09:00:11Z</time>
      </trkpt>
      <trkpt lat="45.05286" lon="5.37141">
        <ele>565.86</ele>
        <time>2018-11-28T09:00:22Z</time>
      </trkpt>
      <trkpt lat="45.05284" lon="5.37144">
        <ele>566.05</ele>
        <time>2018-11-28T09:00:24Z</time>
      </trkpt>
      <trkpt lat="45.05277" lon="5.3716">
        <ele>567.36</ele>
        <time>2018-11-28T09:00:37Z</time>
      </trkpt>
      <trkpt lat="45.05275" lon="5.37165">
        <ele>567.43</ele>
        <time>2018-11-28T09:00:41Z</time>
      </trkpt>
      <trkpt lat="45.05269" lon="5.37181">
        <ele>568.99</ele>
        <time>2018-11-28T09:00:52Z</time>
      </trkpt>
      <trkpt lat="45.05261" lon="5.37199">
        <ele>570.45</ele>
        <time>2018-11-28T09:01:06Z</time>
      </trkpt>
      <trkpt lat="45.05259" lon="5.37201">
        <ele>570.88</ele>
        <time>2018-11-28T09:01:08Z</time>
      </trkpt>
      <trkpt lat="45.05253" lon="5.37218">
        <ele>571.6</ele>
        <time>2018-11-28T09:01:21Z</time>
      </trkpt>
      <trkpt lat="45.05244" lon="5.37231">
        <ele>573.24</ele>
        <time>2018-11-28T09:01:34Z</time>
      </trkpt>
      <trkpt lat="45.05237" lon="5.37245">
        <ele>575.01</ele>
        <time>2018-11-28T09:01:47Z</time>
      </trkpt>
      <trkpt lat="45.05229" lon="5.37262">
        <ele>576.81</ele>
        <time>2018-11-28T09:02:02Z</time>
      </trkpt>
      <trkpt lat="45.05225" lon="5.37278">
        <ele>578.19</ele>
        <time>2018-11-28T09:02:15Z</time>
      </trkpt>
      <trkpt lat="45.05223" lon="5.37295">
        <ele>578.09</ele>
        <time>2018-11-28T09:02:26Z</time>
      </trkpt>
      <trkpt lat="45.05222" lon="5.37301">
        <ele>578.26</ele>
        <time>2018-11-28T09:02:30Z</time>
      </trkpt>
      <trkpt lat="45.05216" lon="5.37323">
        <ele>578.74</ele>
        <time>2018-11-28T09:02:44Z</time>
      </trkpt>
      <trkpt lat="45.05211" lon="5.37341">
        <ele>579.87</ele>
        <time>2018-11-28T09:02:57Z</time>
      </trkpt>
      <trkpt lat="45.05209" lon="5.37356">
        <ele>580.21</ele>
        <time>2018-11-28T09:03:06Z</time>
      </trkpt>
      <trkpt lat="45.05206" lon="5.37378">
        <ele>581.92</ele>
        <time>2018-11-28T09:03:22Z</time>
      </trkpt>
      <trkpt lat="45.052" lon="5.374">
        <ele>583.2</ele>
        <time>2018-11-28T09:03:37Z</time>
      </trkpt>
      <trkpt lat="45.0519" lon="5.37422">
        <ele>584.13</ele>
        <time>2018-11-28T09:03:53Z</time>
      </trkpt>
      <trkpt lat="45.05179" lon="5.37436">
        <ele>585.08</ele>
        <time>2018-11-28T09:04:06Z</time>
      </trkpt>
      <trkpt lat="45.05168" lon="5.37447">
        <ele>586.02</ele>
        <time>2018-11-28T09:04:20Z</time>
      </trkpt>
      <trkpt lat="45.05157" lon="5.37461">
        <ele>587.82</ele>
        <time>2018-11-28T09:04:34Z</time>
      </trkpt>
      <trkpt lat="45.05152" lon="5.37465">
        <ele>587.87</ele>
        <time>2018-11-28T09:04:39Z</time>
      </trkpt>
      <trkpt lat="45.05149" lon="5.37467">
        <ele>588.4</ele>
        <time>2018-11-28T09:04:42Z</time>
      </trkpt>
      <trkpt lat="45.05138" lon="5.37473">
        <ele>589.56</ele>
        <time>2018-11-28T09:04:53Z</time>
      </trkpt>
      <trkpt lat="45.05124" lon="5.37478">
        <ele>591.73</ele>
        <time>2018-11-28T09:05:09Z</time>
      </trkpt>
      <trkpt lat="45.0511" lon="5.37486">
        <ele>592.93</ele>
        <time>2018-11-28T09:05:24Z</time>
      </trkpt>
      <trkpt lat="45.05095" lon="5.37482">
        <ele>592.46</ele>
        <time>2018-11-28T09:05:38Z</time>
      </trkpt>
      <trkpt lat="45.05077" lon="5.3748">
        <ele>593.05</ele>
        <time>2018-11-28T09:05:51Z</time>
      </trkpt>
      <trkpt lat="45.05066" lon="5.37473">
        <ele>594.64</ele>
        <time>2018-11-28T09:06:07Z</time>
      </trkpt>
      <trkpt lat="45.0506" lon="5.37468">
        <ele>595.12</ele>
        <time>2018-11-28T09:06:13Z</time>
      </trkpt>
      <trkpt lat="45.05048" lon="5.37455">
        <ele>596.33</ele>
        <time>2018-11-28T09:06:24Z</time>
      </trkpt>
      <trkpt lat="45.05039" lon="5.3745">
        <ele>596.84</ele>
        <time>2018-11-28T09:06:31Z</time>
      </trkpt>
      <trkpt lat="45.05027" lon="5.37447">
        <ele>597.68</ele>
        <time>2018-11-28T09:06:42Z</time>
      </trkpt>
      <trkpt lat="45.05023" lon="5.37447">
        <ele>598.17</ele>
        <time>2018-11-28T09:06:45Z</time>
      </trkpt>
      <trkpt lat="45.05011" lon="5.37454">
        <ele>599.72</ele>
        <time>2018-11-28T09:06:58Z</time>
      </trkpt>
      <trkpt lat="45.05002" lon="5.37461">
        <ele>601.31</ele>
        <time>2018-11-28T09:07:09Z</time>
      </trkpt>
      <trkpt lat="45.04994" lon="5.37469">
        <ele>602.52</ele>
        <time>2018-11-28T09:07:19Z</time>
      </trkpt>
      <trkpt lat="45.04983" lon="5.37482">
        <ele>604.15</ele>
        <time>2018-11-28T09:07:35Z</time>
      </trkpt>
      <trkpt lat="45.04971" lon="5.37498">
        <ele>605.86</ele>
        <time>2018-11-28T09:07:52Z</time>
      </trkpt>
      <trkpt lat="45.0496" lon="5.37511">
        <ele>607.97</ele>
        <time>2018-11-28T09:08:07Z</time>
      </trkpt>
      <trkpt lat="45.04945" lon="5.37523">
        <ele>609.72</ele>
        <time>2018-11-28T09:08:24Z</time>
      </trkpt>
      <trkpt lat="45.04932" lon="5.37528">
        <ele>611.68</ele>
        <time>2018-11-28T09:08:39Z</time>
      </trkpt>
      <trkpt lat="45.04916" lon="5.3754">
        <ele>614.53</ele>
        <time>2018-11-28T09:08:56Z</time>
      </trkpt>
      <trkpt lat="45.04911" lon="5.37549">
        <ele>615.34</ele>
        <time>2018-11-28T09:09:03Z</time>
      </trkpt>
      <trkpt lat="45.04905" lon="5.37559">
        <ele>616.56</ele>
        <time>2018-11-28T09:09:13Z</time>
      </trkpt>
      <trkpt lat="45.04896" lon="5.37579">
        <ele>618.94</ele>
        <time>2018-11-28T09:09:30Z</time>
      </trkpt>
      <trkpt lat="45.04886" lon="5.376">
        <ele>621.93</ele>
        <time>2018-11-28T09:09:50Z</time>
      </trkpt>
      <trkpt lat="45.04882" lon="5.37616">
        <ele>623.97</ele>
        <time>2018-11-28T09:10:06Z</time>
      </trkpt>
      <trkpt lat="45.04879" lon="5.37635">
        <ele>626.33</ele>
        <time>2018-11-28T09:10:22Z</time>
      </trkpt>
      <trkpt lat="45.04878" lon="5.37656">
        <ele>628.41</ele>
        <time>2018-11-28T09:10:37Z</time>
      </trkpt>
      <trkpt lat="45.04873" lon="5.37677">
        <ele>631.05</ele>
        <time>2018-11-28T09:10:53Z</time>
      </trkpt>
      <trkpt lat="45.04871" lon="5.37696">
        <ele>633.42</ele>
        <time>2018-11-28T09:11:09Z</time>
      </trkpt>
      <trkpt lat="45.04872" lon="5.37713">
        <ele>634.55</ele>
        <time>2018-11-28T09:11:21Z</time>
      </trkpt>
      <trkpt lat="45.04874" lon="5.37733">
        <ele>636.57</ele>
        <time>2018-11-28T09:11:35Z</time>
      </trkpt>
      <trkpt lat="45.04872" lon="5.37755">
        <ele>639</ele>
        <time>2018-11-28T09:11:49Z</time>
      </trkpt>
      <trkpt lat="45.04868" lon="5.37777">
        <ele>640.34</ele>
        <time>2018-11-28T09:12:03Z</time>
      </trkpt>
      <trkpt lat="45.04862" lon="5.37796">
        <ele>642.69</ele>
        <time>2018-11-28T09:12:20Z</time>
      </trkpt>
      <trkpt lat="45.04856" lon="5.37813">
        <ele>645.57</ele>
        <time>2018-11-28T09:12:37Z</time>
      </trkpt>
      <trkpt lat="45.04849" lon="5.37832">
        <ele>647.93</ele>
        <time>2018-11-28T09:12:55Z</time>
      </trkpt>
      <trkpt lat="45.0484" lon="5.37847">
        <ele>650.66</ele>
        <time>2018-11-28T09:13:13Z</time>
      </trkpt>
      <trkpt lat="45.0483" lon="5.37862">
        <ele>653.36</ele>
        <time>2018-11-28T09:13:32Z</time>
      </trkpt>
      <trkpt lat="45.04823" lon="5.3788">
        <ele>656.36</ele>
        <time>2018-11-28T09:13:49Z</time>
      </trkpt>
      <trkpt lat="45.04815" lon="5.37898">
        <ele>659.55</ele>
        <time>2018-11-28T09:14:07Z</time>
      </trkpt>
      <trkpt lat="45.04809" lon="5.37913">
        <ele>662.62</ele>
        <time>2018-11-28T09:14:24Z</time>
      </trkpt>
      <trkpt lat="45.04804" lon="5.37924">
        <ele>664.87</ele>
        <time>2018-11-28T09:14:39Z</time>
      </trkpt>
      <trkpt lat="45.04797" lon="5.37938">
        <ele>667.06</ele>
        <time>2018-11-28T09:14:54Z</time>
      </trkpt>
      <trkpt lat="45.0479" lon="5.37951">
        <ele>669.13</ele>
        <time>2018-11-28T09:15:12Z</time>
      </trkpt>
      <trkpt lat="45.0479" lon="5.37953">
        <ele>670.46</ele>
        <time>2018-11-28T09:15:14Z</time>
      </trkpt>
      <trkpt lat="45.04783" lon="5.37971">
        <ele>672.63</ele>
        <time>2018-11-28T09:15:34Z</time>
      </trkpt>
      <trkpt lat="45.04777" lon="5.37987">
        <ele>675.02</ele>
        <time>2018-11-28T09:15:53Z</time>
      </trkpt>
      <trkpt lat="45.04771" lon="5.38002">
        <ele>677.38</ele>
        <time>2018-11-28T09:16:07Z</time>
      </trkpt>
      <trkpt lat="45.04764" lon="5.38016">
        <ele>680.67</ele>
        <time>2018-11-28T09:16:25Z</time>
      </trkpt>
      <trkpt lat="45.0476" lon="5.38029">
        <ele>683.6</ele>
        <time>2018-11-28T09:16:43Z</time>
      </trkpt>
      <trkpt lat="45.04756" lon="5.3804">
        <ele>685.96</ele>
        <time>2018-11-28T09:17:00Z</time>
      </trkpt>
      <trkpt lat="45.04748" lon="5.38056">
        <ele>688.35</ele>
        <time>2018-11-28T09:17:17Z</time>
      </trkpt>
      <trkpt lat="45.04743" lon="5.3807">
        <ele>690.94</ele>
        <time>2018-11-28T09:17:32Z</time>
      </trkpt>
      <trkpt lat="45.04737" lon="5.38082">
        <ele>693.21</ele>
        <time>2018-11-28T09:17:48Z</time>
      </trkpt>
      <trkpt lat="45.04732" lon="5.38096">
        <ele>696.29</ele>
        <time>2018-11-28T09:18:05Z</time>
      </trkpt>
      <trkpt lat="45.04726" lon="5.38112">
        <ele>698.92</ele>
        <time>2018-11-28T09:18:22Z</time>
      </trkpt>
      <trkpt lat="45.04725" lon="5.38123">
        <ele>701.53</ele>
        <time>2018-11-28T09:18:39Z</time>
      </trkpt>
      <trkpt lat="45.04721" lon="5.38136">
        <ele>704.29</ele>
        <time>2018-11-28T09:18:56Z</time>
      </trkpt>
      <trkpt lat="45.0472" lon="5.38144">
        <ele>706.95</ele>
        <time>2018-11-28T09:19:12Z</time>
      </trkpt>
      <trkpt lat="45.04715" lon="5.38159">
        <ele>709.53</ele>
        <time>2018-11-28T09:19:28Z</time>
      </trkpt>
      <trkpt lat="45.04711" lon="5.38171">
        <ele>711.81</ele>
        <time>2018-11-28T09:19:41Z</time>
      </trkpt>
      <trkpt lat="45.04705" lon="5.38186">
        <ele>714.57</ele>
        <time>2018-11-28T09:20:00Z</time>
      </trkpt>
      <trkpt lat="45.04702" lon="5.38201">
        <ele>717.69</ele>
        <time>2018-11-28T09:20:16Z</time>
      </trkpt>
      <trkpt lat="45.04696" lon="5.38216">
        <ele>720.01</ele>
        <time>2018-11-28T09:20:33Z</time>
      </trkpt>
      <trkpt lat="45.04688" lon="5.3823">
        <ele>722.38</ele>
        <time>2018-11-28T09:20:49Z</time>
      </trkpt>
      <trkpt lat="45.04678" lon="5.38242">
        <ele>724.36</ele>
        <time>2018-11-28T09:21:06Z</time>
      </trkpt>
      <trkpt lat="45.04664" lon="5.38256">
        <ele>726.04</ele>
        <time>2018-11-28T09:21:23Z</time>
      </trkpt>
      <trkpt lat="45.04658" lon="5.38263">
        <ele>726.51</ele>
        <time>2018-11-28T09:21:30Z</time>
      </trkpt>
      <trkpt lat="45.04643" lon="5.38269">
        <ele>729.43</ele>
        <time>2018-11-28T09:21:49Z</time>
      </trkpt>
      <trkpt lat="45.04631" lon="5.38272">
        <ele>732.5</ele>
        <time>2018-11-28T09:22:06Z</time>
      </trkpt>
      <trkpt lat="45.04618" lon="5.38284">
        <ele>735.85</ele>
        <time>2018-11-28T09:22:25Z</time>
      </trkpt>
      <trkpt lat="45.04618" lon="5.38284">
        <ele>734.33</ele>
        <time>2018-11-28T09:22:38Z</time>
      </trkpt>
      <trkpt lat="45.04616" lon="5.38283">
        <ele>734.47</ele>
        <time>2018-11-28T09:23:13Z</time>
      </trkpt>
      <trkpt lat="45.04614" lon="5.3828">
        <ele>734.68</ele>
        <time>2018-11-28T09:24:02Z</time>
      </trkpt>
      <trkpt lat="45.04614" lon="5.38279">
        <ele>735.56</ele>
        <time>2018-11-28T09:24:42Z</time>
      </trkpt>
      <trkpt lat="45.04619" lon="5.38285">
        <ele>735.54</ele>
        <time>2018-11-28T09:25:02Z</time>
      </trkpt>
      <trkpt lat="45.0462" lon="5.38286">
        <ele>735.82</ele>
        <time>2018-11-28T09:25:21Z</time>
      </trkpt>
      <trkpt lat="45.04621" lon="5.38284">
        <ele>735.74</ele>
        <time>2018-11-28T09:25:40Z</time>
      </trkpt>
      <trkpt lat="45.04617" lon="5.3829">
        <ele>736.33</ele>
        <time>2018-11-28T09:26:03Z</time>
      </trkpt>
      <trkpt lat="45.04609" lon="5.38307">
        <ele>737.22</ele>
        <time>2018-11-28T09:26:17Z</time>
      </trkpt>
      <trkpt lat="45.04604" lon="5.38318">
        <ele>738.69</ele>
        <time>2018-11-28T09:26:26Z</time>
      </trkpt>
      <trkpt lat="45.04596" lon="5.3833">
        <ele>740.34</ele>
        <time>2018-11-28T09:26:38Z</time>
      </trkpt>
      <trkpt lat="45.04589" lon="5.38341">
        <ele>741.88</ele>
        <time>2018-11-28T09:26:51Z</time>
      </trkpt>
      <trkpt lat="45.04584" lon="5.3836">
        <ele>745.06</ele>
        <time>2018-11-28T09:27:06Z</time>
      </trkpt>
      <trkpt lat="45.04577" lon="5.38377">
        <ele>748.09</ele>
        <time>2018-11-28T09:27:23Z</time>
      </trkpt>
      <trkpt lat="45.04572" lon="5.38396">
        <ele>750.38</ele>
        <time>2018-11-28T09:27:37Z</time>
      </trkpt>
      <trkpt lat="45.04564" lon="5.38414">
        <ele>752.7</ele>
        <time>2018-11-28T09:27:53Z</time>
      </trkpt>
      <trkpt lat="45.04558" lon="5.38434">
        <ele>755.44</ele>
        <time>2018-11-28T09:28:09Z</time>
      </trkpt>
      <trkpt lat="45.04549" lon="5.38446">
        <ele>758.57</ele>
        <time>2018-11-28T09:28:24Z</time>
      </trkpt>
      <trkpt lat="45.04541" lon="5.38461">
        <ele>761.64</ele>
        <time>2018-11-28T09:28:40Z</time>
      </trkpt>
      <trkpt lat="45.0453" lon="5.38479">
        <ele>764.64</ele>
        <time>2018-11-28T09:28:57Z</time>
      </trkpt>
      <trkpt lat="45.04524" lon="5.38493">
        <ele>767.28</ele>
        <time>2018-11-28T09:29:14Z</time>
      </trkpt>
      <trkpt lat="45.04515" lon="5.3851">
        <ele>770.22</ele>
        <time>2018-11-28T09:29:31Z</time>
      </trkpt>
      <trkpt lat="45.04507" lon="5.38524">
        <ele>773.04</ele>
        <time>2018-11-28T09:29:48Z</time>
      </trkpt>
      <trkpt lat="45.04497" lon="5.38542">
        <ele>776.13</ele>
        <time>2018-11-28T09:30:06Z</time>
      </trkpt>
      <trkpt lat="45.04493" lon="5.38562">
        <ele>778.93</ele>
        <time>2018-11-28T09:30:23Z</time>
      </trkpt>
      <trkpt lat="45.04488" lon="5.38581">
        <ele>781.3</ele>
        <time>2018-11-28T09:30:39Z</time>
      </trkpt>
      <trkpt lat="45.04487" lon="5.38584">
        <ele>781.61</ele>
        <time>2018-11-28T09:30:54Z</time>
      </trkpt>
      <trkpt lat="45.04488" lon="5.38586">
        <ele>781.45</ele>
        <time>2018-11-28T09:31:13Z</time>
      </trkpt>
      <trkpt lat="45.04485" lon="5.38585">
        <ele>781.38</ele>
        <time>2018-11-28T09:31:32Z</time>
      </trkpt>
      <trkpt lat="45.04484" lon="5.38586">
        <ele>781.16</ele>
        <time>2018-11-28T09:31:57Z</time>
      </trkpt>
      <trkpt lat="45.04484" lon="5.3859">
        <ele>781.29</ele>
        <time>2018-11-28T09:32:15Z</time>
      </trkpt>
      <trkpt lat="45.04482" lon="5.38584">
        <ele>780.79</ele>
        <time>2018-11-28T09:32:35Z</time>
      </trkpt>
      <trkpt lat="45.04482" lon="5.38584">
        <ele>781.15</ele>
        <time>2018-11-28T09:32:50Z</time>
      </trkpt>
      <trkpt lat="45.0448" lon="5.38586">
        <ele>781.01</ele>
        <time>2018-11-28T09:32:56Z</time>
      </trkpt>
      <trkpt lat="45.04477" lon="5.38594">
        <ele>782.01</ele>
        <time>2018-11-28T09:33:07Z</time>
      </trkpt>
      <trkpt lat="45.04477" lon="5.38593">
        <ele>781.86</ele>
        <time>2018-11-28T09:33:30Z</time>
      </trkpt>
      <trkpt lat="45.0448" lon="5.38585">
        <ele>781.42</ele>
        <time>2018-11-28T09:33:40Z</time>
      </trkpt>
      <trkpt lat="45.0448" lon="5.3858">
        <ele>781.52</ele>
        <time>2018-11-28T09:33:55Z</time>
      </trkpt>
      <trkpt lat="45.04481" lon="5.38583">
        <ele>781.58</ele>
        <time>2018-11-28T09:34:22Z</time>
      </trkpt>
      <trkpt lat="45.04482" lon="5.38579">
        <ele>781.69</ele>
        <time>2018-11-28T09:34:45Z</time>
      </trkpt>
      <trkpt lat="45.04481" lon="5.38578">
        <ele>782.2</ele>
        <time>2018-11-28T09:35:08Z</time>
      </trkpt>
      <trkpt lat="45.04481" lon="5.38578">
        <ele>781.92</ele>
        <time>2018-11-28T09:35:33Z</time>
      </trkpt>
      <trkpt lat="45.04482" lon="5.38578">
        <ele>781.89</ele>
        <time>2018-11-28T09:35:47Z</time>
      </trkpt>
      <trkpt lat="45.04482" lon="5.3858">
        <ele>781.6</ele>
        <time>2018-11-28T09:36:06Z</time>
      </trkpt>
      <trkpt lat="45.0448" lon="5.38576">
        <ele>781.96</ele>
        <time>2018-11-28T09:36:27Z</time>
      </trkpt>
      <trkpt lat="45.0448" lon="5.38574">
        <ele>782.26</ele>
        <time>2018-11-28T09:36:49Z</time>
      </trkpt>
      <trkpt lat="45.04478" lon="5.38572">
        <ele>782.18</ele>
        <time>2018-11-28T09:37:13Z</time>
      </trkpt>
      <trkpt lat="45.04479" lon="5.38572">
        <ele>781.96</ele>
        <time>2018-11-28T09:37:36Z</time>
      </trkpt>
      <trkpt lat="45.04481" lon="5.38576">
        <ele>782.78</ele>
        <time>2018-11-28T09:38:06Z</time>
      </trkpt>
      <trkpt lat="45.04482" lon="5.38577">
        <ele>782.5</ele>
        <time>2018-11-28T09:38:23Z</time>
      </trkpt>
      <trkpt lat="45.04482" lon="5.38577">
        <ele>782.55</ele>
        <time>2018-11-28T09:38:46Z</time>
      </trkpt>
      <trkpt lat="45.04482" lon="5.38576">
        <ele>782.47</ele>
        <time>2018-11-28T09:39:07Z</time>
      </trkpt>
      <trkpt lat="45.04484" lon="5.38577">
        <ele>784.08</ele>
        <time>2018-11-28T09:39:24Z</time>
      </trkpt>
      <trkpt lat="45.04487" lon="5.38586">
        <ele>787.09</ele>
        <time>2018-11-28T09:39:39Z</time>
      </trkpt>
      <trkpt lat="45.0449" lon="5.38592">
        <ele>789.28</ele>
        <time>2018-11-28T09:39:53Z</time>
      </trkpt>
      <trkpt lat="45.04492" lon="5.38597">
        <ele>792.64</ele>
        <time>2018-11-28T09:40:09Z</time>
      </trkpt>
      <trkpt lat="45.04495" lon="5.38603">
        <ele>795.68</ele>
        <time>2018-11-28T09:40:25Z</time>
      </trkpt>
      <trkpt lat="45.04499" lon="5.38612">
        <ele>798.93</ele>
        <time>2018-11-28T09:40:41Z</time>
      </trkpt>
      <trkpt lat="45.045" lon="5.3862">
        <ele>801.51</ele>
        <time>2018-11-28T09:40:56Z</time>
      </trkpt>
      <trkpt lat="45.045" lon="5.38629">
        <ele>804.52</ele>
        <time>2018-11-28T09:41:08Z</time>
      </trkpt>
      <trkpt lat="45.04502" lon="5.38638">
        <ele>807.09</ele>
        <time>2018-11-28T09:41:28Z</time>
      </trkpt>
      <trkpt lat="45.04502" lon="5.38646">
        <ele>810.09</ele>
        <time>2018-11-28T09:41:45Z</time>
      </trkpt>
      <trkpt lat="45.04504" lon="5.38657">
        <ele>812.92</ele>
        <time>2018-11-28T09:42:00Z</time>
      </trkpt>
      <trkpt lat="45.04505" lon="5.38668">
        <ele>815.93</ele>
        <time>2018-11-28T09:42:15Z</time>
      </trkpt>
      <trkpt lat="45.04505" lon="5.38675">
        <ele>817.48</ele>
        <time>2018-11-28T09:42:29Z</time>
      </trkpt>
      <trkpt lat="45.04504" lon="5.38676">
        <ele>818.06</ele>
        <time>2018-11-28T09:42:49Z</time>
      </trkpt>
      <trkpt lat="45.04503" lon="5.38681">
        <ele>818.31</ele>
        <time>2018-11-28T09:43:15Z</time>
      </trkpt>
      <trkpt lat="45.04507" lon="5.38689">
        <ele>821.36</ele>
        <time>2018-11-28T09:43:32Z</time>
      </trkpt>
      <trkpt lat="45.04508" lon="5.38699">
        <ele>824.29</ele>
        <time>2018-11-28T09:43:50Z</time>
      </trkpt>
      <trkpt lat="45.0451" lon="5.38707">
        <ele>826.79</ele>
        <time>2018-11-28T09:44:07Z</time>
      </trkpt>
      <trkpt lat="45.04511" lon="5.38714">
        <ele>829.85</ele>
        <time>2018-11-28T09:44:23Z</time>
      </trkpt>
      <trkpt lat="45.04512" lon="5.38724">
        <ele>832.79</ele>
        <time>2018-11-28T09:44:40Z</time>
      </trkpt>
      <trkpt lat="45.04514" lon="5.3873">
        <ele>835.7</ele>
        <time>2018-11-28T09:44:56Z</time>
      </trkpt>
      <trkpt lat="45.04514" lon="5.3874">
        <ele>837.87</ele>
        <time>2018-11-28T09:45:11Z</time>
      </trkpt>
      <trkpt lat="45.04517" lon="5.38749">
        <ele>841.01</ele>
        <time>2018-11-28T09:45:29Z</time>
      </trkpt>
      <trkpt lat="45.04519" lon="5.38759">
        <ele>844.06</ele>
        <time>2018-11-28T09:45:48Z</time>
      </trkpt>
      <trkpt lat="45.04525" lon="5.38761">
        <ele>846.54</ele>
        <time>2018-11-28T09:46:05Z</time>
      </trkpt>
      <trkpt lat="45.04532" lon="5.3875">
        <ele>849.45</ele>
        <time>2018-11-28T09:46:22Z</time>
      </trkpt>
      <trkpt lat="45.0454" lon="5.3874">
        <ele>851.96</ele>
        <time>2018-11-28T09:46:38Z</time>
      </trkpt>
      <trkpt lat="45.04547" lon="5.38732">
        <ele>854.51</ele>
        <time>2018-11-28T09:46:52Z</time>
      </trkpt>
      <trkpt lat="45.04554" lon="5.38725">
        <ele>856.63</ele>
        <time>2018-11-28T09:47:07Z</time>
      </trkpt>
      <trkpt lat="45.04564" lon="5.38721">
        <ele>859.24</ele>
        <time>2018-11-28T09:47:26Z</time>
      </trkpt>
      <trkpt lat="45.04567" lon="5.38716">
        <ele>861.97</ele>
        <time>2018-11-28T09:47:39Z</time>
      </trkpt>
      <trkpt lat="45.04573" lon="5.3871">
        <ele>864.87</ele>
        <time>2018-11-28T09:47:56Z</time>
      </trkpt>
      <trkpt lat="45.04584" lon="5.38702">
        <ele>867.55</ele>
        <time>2018-11-28T09:48:15Z</time>
      </trkpt>
      <trkpt lat="45.04593" lon="5.38692">
        <ele>870.05</ele>
        <time>2018-11-28T09:48:31Z</time>
      </trkpt>
      <trkpt lat="45.046" lon="5.38683">
        <ele>873.15</ele>
        <time>2018-11-28T09:48:48Z</time>
      </trkpt>
      <trkpt lat="45.04598" lon="5.38675">
        <ele>873.19</ele>
        <time>2018-11-28T09:49:09Z</time>
      </trkpt>
      <trkpt lat="45.04606" lon="5.3867">
        <ele>876.32</ele>
        <time>2018-11-28T09:49:26Z</time>
      </trkpt>
      <trkpt lat="45.04612" lon="5.38671">
        <ele>878.35</ele>
        <time>2018-11-28T09:49:40Z</time>
      </trkpt>
      <trkpt lat="45.04615" lon="5.38678">
        <ele>881.17</ele>
        <time>2018-11-28T09:49:55Z</time>
      </trkpt>
      <trkpt lat="45.04617" lon="5.38689">
        <ele>883.88</ele>
        <time>2018-11-28T09:50:13Z</time>
      </trkpt>
      <trkpt lat="45.0462" lon="5.38698">
        <ele>887.12</ele>
        <time>2018-11-28T09:50:30Z</time>
      </trkpt>
      <trkpt lat="45.0462" lon="5.38705">
        <ele>888.93</ele>
        <time>2018-11-28T09:50:45Z</time>
      </trkpt>
      <trkpt lat="45.04622" lon="5.38719">
        <ele>891.6</ele>
        <time>2018-11-28T09:51:03Z</time>
      </trkpt>
      <trkpt lat="45.04621" lon="5.38732">
        <ele>894.57</ele>
        <time>2018-11-28T09:51:20Z</time>
      </trkpt>
      <trkpt lat="45.04621" lon="5.38742">
        <ele>896.44</ele>
        <time>2018-11-28T09:51:35Z</time>
      </trkpt>
      <trkpt lat="45.04623" lon="5.38742">
        <ele>899.67</ele>
        <time>2018-11-28T09:51:54Z</time>
      </trkpt>
      <trkpt lat="45.04625" lon="5.38751">
        <ele>902.19</ele>
        <time>2018-11-28T09:52:12Z</time>
      </trkpt>
      <trkpt lat="45.04626" lon="5.38763">
        <ele>904.65</ele>
        <time>2018-11-28T09:52:28Z</time>
      </trkpt>
      <trkpt lat="45.04627" lon="5.38773">
        <ele>906.66</ele>
        <time>2018-11-28T09:52:43Z</time>
      </trkpt>
      <trkpt lat="45.04625" lon="5.38778">
        <ele>908.21</ele>
        <time>2018-11-28T09:53:01Z</time>
      </trkpt>
      <trkpt lat="45.04628" lon="5.38775">
        <ele>909.53</ele>
        <time>2018-11-28T09:53:22Z</time>
      </trkpt>
      <trkpt lat="45.0463" lon="5.38769">
        <ele>910.35</ele>
        <time>2018-11-28T09:53:43Z</time>
      </trkpt>
      <trkpt lat="45.04632" lon="5.38769">
        <ele>910.03</ele>
        <time>2018-11-28T09:54:04Z</time>
      </trkpt>
      <trkpt lat="45.04632" lon="5.3877">
        <ele>911.03</ele>
        <time>2018-11-28T09:54:24Z</time>
      </trkpt>
      <trkpt lat="45.04633" lon="5.38784">
        <ele>914.05</ele>
        <time>2018-11-28T09:54:40Z</time>
      </trkpt>
      <trkpt lat="45.04634" lon="5.38795">
        <ele>916.84</ele>
        <time>2018-11-28T09:54:55Z</time>
      </trkpt>
      <trkpt lat="45.04632" lon="5.38807">
        <ele>918.98</ele>
        <time>2018-11-28T09:55:13Z</time>
      </trkpt>
      <trkpt lat="45.04632" lon="5.3882">
        <ele>921.91</ele>
        <time>2018-11-28T09:55:31Z</time>
      </trkpt>
      <trkpt lat="45.04633" lon="5.38819">
        <ele>924.08</ele>
        <time>2018-11-28T09:55:48Z</time>
      </trkpt>
      <trkpt lat="45.04638" lon="5.38826">
        <ele>926.52</ele>
        <time>2018-11-28T09:56:04Z</time>
      </trkpt>
      <trkpt lat="45.04647" lon="5.38823">
        <ele>929.09</ele>
        <time>2018-11-28T09:56:23Z</time>
      </trkpt>
      <trkpt lat="45.04654" lon="5.38822">
        <ele>929.38</ele>
        <time>2018-11-28T09:56:38Z</time>
      </trkpt>
      <trkpt lat="45.04659" lon="5.38826">
        <ele>929.14</ele>
        <time>2018-11-28T09:56:44Z</time>
      </trkpt>
      <trkpt lat="45.04658" lon="5.38824">
        <ele>929.36</ele>
        <time>2018-11-28T09:56:46Z</time>
      </trkpt>
      <trkpt lat="45.04657" lon="5.38831">
        <ele>931.7</ele>
        <time>2018-11-28T09:57:03Z</time>
      </trkpt>
      <trkpt lat="45.04652" lon="5.38837">
        <ele>934.57</ele>
        <time>2018-11-28T09:57:20Z</time>
      </trkpt>
      <trkpt lat="45.0465" lon="5.38846">
        <ele>936.42</ele>
        <time>2018-11-28T09:57:33Z</time>
      </trkpt>
      <trkpt lat="45.04651" lon="5.38856">
        <ele>938.8</ele>
        <time>2018-11-28T09:57:48Z</time>
      </trkpt>
      <trkpt lat="45.04652" lon="5.38865">
        <ele>941.55</ele>
        <time>2018-11-28T09:58:06Z</time>
      </trkpt>
      <trkpt lat="45.04655" lon="5.38878">
        <ele>944.65</ele>
        <time>2018-11-28T09:58:25Z</time>
      </trkpt>
      <trkpt lat="45.04655" lon="5.38882">
        <ele>945.53</ele>
        <time>2018-11-28T09:58:40Z</time>
      </trkpt>
      <trkpt lat="45.04658" lon="5.38892">
        <ele>948.17</ele>
        <time>2018-11-28T09:58:55Z</time>
      </trkpt>
      <trkpt lat="45.04656" lon="5.38894">
        <ele>948.48</ele>
        <time>2018-11-28T09:59:00Z</time>
      </trkpt>
      <trkpt lat="45.04654" lon="5.38903">
        <ele>950.04</ele>
        <time>2018-11-28T09:59:16Z</time>
      </trkpt>
      <trkpt lat="45.04652" lon="5.3891">
        <ele>951.85</ele>
        <time>2018-11-28T09:59:32Z</time>
      </trkpt>
      <trkpt lat="45.04651" lon="5.38916">
        <ele>953.08</ele>
        <time>2018-11-28T09:59:48Z</time>
      </trkpt>
      <trkpt lat="45.04653" lon="5.3892">
        <ele>954.05</ele>
        <time>2018-11-28T09:59:55Z</time>
      </trkpt>
      <trkpt lat="45.0465" lon="5.38934">
        <ele>955.29</ele>
        <time>2018-11-28T10:00:09Z</time>
      </trkpt>
      <trkpt lat="45.04646" lon="5.38938">
        <ele>957.07</ele>
        <time>2018-11-28T10:00:25Z</time>
      </trkpt>
      <trkpt lat="45.04643" lon="5.38937">
        <ele>957.12</ele>
        <time>2018-11-28T10:00:48Z</time>
      </trkpt>
      <trkpt lat="45.04646" lon="5.38929">
        <ele>959.69</ele>
        <time>2018-11-28T10:01:06Z</time>
      </trkpt>
      <trkpt lat="45.04651" lon="5.38924">
        <ele>960.58</ele>
        <time>2018-11-28T10:01:20Z</time>
      </trkpt>
      <trkpt lat="45.04654" lon="5.3893">
        <ele>962.59</ele>
        <time>2018-11-28T10:01:37Z</time>
      </trkpt>
      <trkpt lat="45.04652" lon="5.38937">
        <ele>965.41</ele>
        <time>2018-11-28T10:01:52Z</time>
      </trkpt>
      <trkpt lat="45.04652" lon="5.38941">
        <ele>967.49</ele>
        <time>2018-11-28T10:02:06Z</time>
      </trkpt>
      <trkpt lat="45.04651" lon="5.38942">
        <ele>969.35</ele>
        <time>2018-11-28T10:02:21Z</time>
      </trkpt>
      <trkpt lat="45.04653" lon="5.38948">
        <ele>971</ele>
        <time>2018-11-28T10:02:35Z</time>
      </trkpt>
      <trkpt lat="45.04658" lon="5.38943">
        <ele>973.11</ele>
        <time>2018-11-28T10:02:51Z</time>
      </trkpt>
      <trkpt lat="45.04664" lon="5.38939">
        <ele>976.09</ele>
        <time>2018-11-28T10:03:07Z</time>
      </trkpt>
      <trkpt lat="45.0467" lon="5.38935">
        <ele>978.42</ele>
        <time>2018-11-28T10:03:24Z</time>
      </trkpt>
      <trkpt lat="45.04668" lon="5.38936">
        <ele>977.31</ele>
        <time>2018-11-28T10:03:37Z</time>
      </trkpt>
      <trkpt lat="45.04664" lon="5.38934">
        <ele>978.19</ele>
        <time>2018-11-28T10:03:58Z</time>
      </trkpt>
      <trkpt lat="45.04663" lon="5.38941">
        <ele>979.14</ele>
        <time>2018-11-28T10:04:13Z</time>
      </trkpt>
      <trkpt lat="45.04662" lon="5.38947">
        <ele>980.64</ele>
        <time>2018-11-28T10:04:31Z</time>
      </trkpt>
      <trkpt lat="45.04665" lon="5.38946">
        <ele>982.68</ele>
        <time>2018-11-28T10:04:47Z</time>
      </trkpt>
      <trkpt lat="45.04665" lon="5.38948">
        <ele>984.33</ele>
        <time>2018-11-28T10:05:02Z</time>
      </trkpt>
      <trkpt lat="45.04672" lon="5.38941">
        <ele>987.13</ele>
        <time>2018-11-28T10:05:21Z</time>
      </trkpt>
      <trkpt lat="45.04677" lon="5.38935">
        <ele>990.22</ele>
        <time>2018-11-28T10:05:39Z</time>
      </trkpt>
      <trkpt lat="45.04685" lon="5.3893">
        <ele>992.82</ele>
        <time>2018-11-28T10:06:00Z</time>
      </trkpt>
      <trkpt lat="45.04688" lon="5.38924">
        <ele>995.17</ele>
        <time>2018-11-28T10:06:15Z</time>
      </trkpt>
      <trkpt lat="45.0469" lon="5.38928">
        <ele>997.6</ele>
        <time>2018-11-28T10:06:31Z</time>
      </trkpt>
      <trkpt lat="45.04692" lon="5.38941">
        <ele>1000.19</ele>
        <time>2018-11-28T10:06:46Z</time>
      </trkpt>
      <trkpt lat="45.0469" lon="5.38954">
        <ele>1002.47</ele>
        <time>2018-11-28T10:07:02Z</time>
      </trkpt>
      <trkpt lat="45.04686" lon="5.38959">
        <ele>1003.62</ele>
        <time>2018-11-28T10:07:16Z</time>
      </trkpt>
      <trkpt lat="45.0469" lon="5.38957">
        <ele>1006.38</ele>
        <time>2018-11-28T10:07:29Z</time>
      </trkpt>
      <trkpt lat="45.04694" lon="5.38955">
        <ele>1009.44</ele>
        <time>2018-11-28T10:07:46Z</time>
      </trkpt>
      <trkpt lat="45.04691" lon="5.38968">
        <ele>1011.34</ele>
        <time>2018-11-28T10:08:01Z</time>
      </trkpt>
      <trkpt lat="45.04684" lon="5.38979">
        <ele>1012.64</ele>
        <time>2018-11-28T10:08:15Z</time>
      </trkpt>
      <trkpt lat="45.04677" lon="5.38973">
        <ele>1012.78</ele>
        <time>2018-11-28T10:08:32Z</time>
      </trkpt>
      <trkpt lat="45.04672" lon="5.38971">
        <ele>1013.55</ele>
        <time>2018-11-28T10:08:50Z</time>
      </trkpt>
      <trkpt lat="45.04666" lon="5.3895">
        <ele>1013.57</ele>
        <time>2018-11-28T10:09:09Z</time>
      </trkpt>
      <trkpt lat="45.04667" lon="5.38954">
        <ele>1013.86</ele>
        <time>2018-11-28T10:09:15Z</time>
      </trkpt>
      <trkpt lat="45.04663" lon="5.38949">
        <ele>1013.97</ele>
        <time>2018-11-28T10:09:21Z</time>
      </trkpt>
      <trkpt lat="45.04668" lon="5.38963">
        <ele>1014.31</ele>
        <time>2018-11-28T10:09:39Z</time>
      </trkpt>
      <trkpt lat="45.04671" lon="5.38965">
        <ele>1014.68</ele>
        <time>2018-11-28T10:09:57Z</time>
      </trkpt>
      <trkpt lat="45.04672" lon="5.38965">
        <ele>1014.6</ele>
        <time>2018-11-28T10:10:00Z</time>
      </trkpt>
      <trkpt lat="45.0467" lon="5.38971">
        <ele>1015.01</ele>
        <time>2018-11-28T10:10:17Z</time>
      </trkpt>
      <trkpt lat="45.04669" lon="5.38964">
        <ele>1015.55</ele>
        <time>2018-11-28T10:10:37Z</time>
      </trkpt>
      <trkpt lat="45.04669" lon="5.38964">
        <ele>1016.08</ele>
        <time>2018-11-28T10:10:58Z</time>
      </trkpt>
      <trkpt lat="45.04667" lon="5.38979">
        <ele>1018.44</ele>
        <time>2018-11-28T10:11:13Z</time>
      </trkpt>
      <trkpt lat="45.04663" lon="5.38988">
        <ele>1020.18</ele>
        <time>2018-11-28T10:11:28Z</time>
      </trkpt>
      <trkpt lat="45.0466" lon="5.38998">
        <ele>1022.58</ele>
        <time>2018-11-28T10:11:44Z</time>
      </trkpt>
      <trkpt lat="45.04659" lon="5.39001">
        <ele>1022.92</ele>
        <time>2018-11-28T10:11:46Z</time>
      </trkpt>
      <trkpt lat="45.04657" lon="5.39013">
        <ele>1025.24</ele>
        <time>2018-11-28T10:12:03Z</time>
      </trkpt>
      <trkpt lat="45.04655" lon="5.39015">
        <ele>1025.73</ele>
        <time>2018-11-28T10:12:07Z</time>
      </trkpt>
      <trkpt lat="45.04647" lon="5.39011">
        <ele>1027.35</ele>
        <time>2018-11-28T10:12:24Z</time>
      </trkpt>
      <trkpt lat="45.04643" lon="5.39011">
        <ele>1027.77</ele>
        <time>2018-11-28T10:12:45Z</time>
      </trkpt>
      <trkpt lat="45.04638" lon="5.39012">
        <ele>1030.35</ele>
        <time>2018-11-28T10:12:58Z</time>
      </trkpt>
      <trkpt lat="45.04641" lon="5.39015">
        <ele>1031.48</ele>
        <time>2018-11-28T10:13:13Z</time>
      </trkpt>
      <trkpt lat="45.0464" lon="5.39015">
        <ele>1031.71</ele>
        <time>2018-11-28T10:13:19Z</time>
      </trkpt>
      <trkpt lat="45.0464" lon="5.39021">
        <ele>1034.28</ele>
        <time>2018-11-28T10:13:35Z</time>
      </trkpt>
      <trkpt lat="45.04639" lon="5.39024">
        <ele>1037.08</ele>
        <time>2018-11-28T10:13:49Z</time>
      </trkpt>
      <trkpt lat="45.04635" lon="5.39024">
        <ele>1037.84</ele>
        <time>2018-11-28T10:14:10Z</time>
      </trkpt>
      <trkpt lat="45.04627" lon="5.39021">
        <ele>1040.46</ele>
        <time>2018-11-28T10:14:29Z</time>
      </trkpt>
      <trkpt lat="45.04623" lon="5.39025">
        <ele>1043.01</ele>
        <time>2018-11-28T10:14:46Z</time>
      </trkpt>
      <trkpt lat="45.04619" lon="5.39023">
        <ele>1045.49</ele>
        <time>2018-11-28T10:15:06Z</time>
      </trkpt>
      <trkpt lat="45.04616" lon="5.39027">
        <ele>1046.66</ele>
        <time>2018-11-28T10:15:21Z</time>
      </trkpt>
      <trkpt lat="45.0461" lon="5.39034">
        <ele>1048.5</ele>
        <time>2018-11-28T10:15:40Z</time>
      </trkpt>
      <trkpt lat="45.04608" lon="5.39041">
        <ele>1050.87</ele>
        <time>2018-11-28T10:15:59Z</time>
      </trkpt>
      <trkpt lat="45.04606" lon="5.39047">
        <ele>1053.73</ele>
        <time>2018-11-28T10:16:16Z</time>
      </trkpt>
      <trkpt lat="45.04611" lon="5.39044">
        <ele>1055.05</ele>
        <time>2018-11-28T10:16:34Z</time>
      </trkpt>
      <trkpt lat="45.04611" lon="5.39044">
        <ele>1054.67</ele>
        <time>2018-11-28T10:16:35Z</time>
      </trkpt>
      <trkpt lat="45.04617" lon="5.39033">
        <ele>1055.28</ele>
        <time>2018-11-28T10:16:46Z</time>
      </trkpt>
      <trkpt lat="45.04624" lon="5.39034">
        <ele>1055.86</ele>
        <time>2018-11-28T10:16:57Z</time>
      </trkpt>
      <trkpt lat="45.04621" lon="5.39037">
        <ele>1057.81</ele>
        <time>2018-11-28T10:17:14Z</time>
      </trkpt>
      <trkpt lat="45.0462" lon="5.39042">
        <ele>1058.29</ele>
        <time>2018-11-28T10:17:30Z</time>
      </trkpt>
      <trkpt lat="45.04622" lon="5.39044">
        <ele>1060.14</ele>
        <time>2018-11-28T10:17:51Z</time>
      </trkpt>
      <trkpt lat="45.04622" lon="5.39046">
        <ele>1062.15</ele>
        <time>2018-11-28T10:18:09Z</time>
      </trkpt>
      <trkpt lat="45.04617" lon="5.39053">
        <ele>1064.38</ele>
        <time>2018-11-28T10:18:23Z</time>
      </trkpt>
      <trkpt lat="45.04613" lon="5.3906">
        <ele>1066.74</ele>
        <time>2018-11-28T10:18:38Z</time>
      </trkpt>
      <trkpt lat="45.04613" lon="5.39065">
        <ele>1068.26</ele>
        <time>2018-11-28T10:18:57Z</time>
      </trkpt>
      <trkpt lat="45.0462" lon="5.39061">
        <ele>1070</ele>
        <time>2018-11-28T10:19:14Z</time>
      </trkpt>
      <trkpt lat="45.04624" lon="5.39064">
        <ele>1072.96</ele>
        <time>2018-11-28T10:19:34Z</time>
      </trkpt>
      <trkpt lat="45.0462" lon="5.3907">
        <ele>1075.44</ele>
        <time>2018-11-28T10:19:51Z</time>
      </trkpt>
      <trkpt lat="45.04619" lon="5.39077">
        <ele>1077.89</ele>
        <time>2018-11-28T10:20:08Z</time>
      </trkpt>
      <trkpt lat="45.04622" lon="5.39076">
        <ele>1080.57</ele>
        <time>2018-11-28T10:20:25Z</time>
      </trkpt>
      <trkpt lat="45.04618" lon="5.39081">
        <ele>1083.09</ele>
        <time>2018-11-28T10:20:42Z</time>
      </trkpt>
      <trkpt lat="45.04614" lon="5.39089">
        <ele>1085.22</ele>
        <time>2018-11-28T10:21:03Z</time>
      </trkpt>
      <trkpt lat="45.04613" lon="5.39089">
        <ele>1085.71</ele>
        <time>2018-11-28T10:21:28Z</time>
      </trkpt>
      <trkpt lat="45.04612" lon="5.39094">
        <ele>1088.65</ele>
        <time>2018-11-28T10:21:44Z</time>
      </trkpt>
      <trkpt lat="45.04609" lon="5.39101">
        <ele>1091.2</ele>
        <time>2018-11-28T10:22:02Z</time>
      </trkpt>
      <trkpt lat="45.04607" lon="5.39103">
        <ele>1091.97</ele>
        <time>2018-11-28T10:22:19Z</time>
      </trkpt>
      <trkpt lat="45.04603" lon="5.39105">
        <ele>1093.6</ele>
        <time>2018-11-28T10:22:39Z</time>
      </trkpt>
      <trkpt lat="45.04599" lon="5.39113">
        <ele>1095.72</ele>
        <time>2018-11-28T10:22:56Z</time>
      </trkpt>
      <trkpt lat="45.04595" lon="5.39116">
        <ele>1096.69</ele>
        <time>2018-11-28T10:23:14Z</time>
      </trkpt>
      <trkpt lat="45.04592" lon="5.39119">
        <ele>1097.91</ele>
        <time>2018-11-28T10:23:22Z</time>
      </trkpt>
      <trkpt lat="45.04591" lon="5.39124">
        <ele>1098.66</ele>
        <time>2018-11-28T10:23:42Z</time>
      </trkpt>
      <trkpt lat="45.04594" lon="5.39125">
        <ele>1101.52</ele>
        <time>2018-11-28T10:24:02Z</time>
      </trkpt>
      <trkpt lat="45.04597" lon="5.39124">
        <ele>1101.93</ele>
        <time>2018-11-28T10:24:15Z</time>
      </trkpt>
      <trkpt lat="45.04601" lon="5.39125">
        <ele>1104.12</ele>
        <time>2018-11-28T10:24:33Z</time>
      </trkpt>
      <trkpt lat="45.04608" lon="5.39115">
        <ele>1104.32</ele>
        <time>2018-11-28T10:24:48Z</time>
      </trkpt>
      <trkpt lat="45.04613" lon="5.39105">
        <ele>1103.96</ele>
        <time>2018-11-28T10:24:59Z</time>
      </trkpt>
      <trkpt lat="45.04616" lon="5.391">
        <ele>1103.54</ele>
        <time>2018-11-28T10:25:04Z</time>
      </trkpt>
      <trkpt lat="45.04625" lon="5.39089">
        <ele>1103.01</ele>
        <time>2018-11-28T10:25:13Z</time>
      </trkpt>
      <trkpt lat="45.04629" lon="5.39083">
        <ele>1102.17</ele>
        <time>2018-11-28T10:25:17Z</time>
      </trkpt>
      <trkpt lat="45.04641" lon="5.39076">
        <ele>1101.85</ele>
        <time>2018-11-28T10:25:30Z</time>
      </trkpt>
      <trkpt lat="45.04648" lon="5.3907">
        <ele>1102</ele>
        <time>2018-11-28T10:25:40Z</time>
      </trkpt>
      <trkpt lat="45.04649" lon="5.39064">
        <ele>1102.03</ele>
        <time>2018-11-28T10:25:52Z</time>
      </trkpt>
      <trkpt lat="45.04652" lon="5.39051">
        <ele>1103.92</ele>
        <time>2018-11-28T10:26:11Z</time>
      </trkpt>
      <trkpt lat="45.04657" lon="5.39041">
        <ele>1105.42</ele>
        <time>2018-11-28T10:26:26Z</time>
      </trkpt>
      <trkpt lat="45.04661" lon="5.39042">
        <ele>1106.19</ele>
        <time>2018-11-28T10:26:43Z</time>
      </trkpt>
      <trkpt lat="45.04662" lon="5.39043">
        <ele>1106.42</ele>
        <time>2018-11-28T10:27:00Z</time>
      </trkpt>
      <trkpt lat="45.04664" lon="5.39044">
        <ele>1107.06</ele>
        <time>2018-11-28T10:27:25Z</time>
      </trkpt>
      <trkpt lat="45.04664" lon="5.39044">
        <ele>1107.18</ele>
        <time>2018-11-28T10:27:47Z</time>
      </trkpt>
      <trkpt lat="45.04665" lon="5.39045">
        <ele>1107.24</ele>
        <time>2018-11-28T10:28:00Z</time>
      </trkpt>
      <trkpt lat="45.04665" lon="5.39047">
        <ele>1107.49</ele>
        <time>2018-11-28T10:28:21Z</time>
      </trkpt>
      <trkpt lat="45.04666" lon="5.39045">
        <ele>1107.58</ele>
        <time>2018-11-28T10:28:40Z</time>
      </trkpt>
      <trkpt lat="45.04669" lon="5.39043">
        <ele>1107.62</ele>
        <time>2018-11-28T10:28:53Z</time>
      </trkpt>
      <trkpt lat="45.0467" lon="5.39046">
        <ele>1107.89</ele>
        <time>2018-11-28T10:29:18Z</time>
      </trkpt>
      <trkpt lat="45.04669" lon="5.39048">
        <ele>1108.04</ele>
        <time>2018-11-28T10:29:43Z</time>
      </trkpt>
      <trkpt lat="45.04669" lon="5.39049">
        <ele>1108.25</ele>
        <time>2018-11-28T10:30:05Z</time>
      </trkpt>
      <trkpt lat="45.0467" lon="5.39049">
        <ele>1108.52</ele>
        <time>2018-11-28T10:30:22Z</time>
      </trkpt>
      <trkpt lat="45.04668" lon="5.39048">
        <ele>1108.75</ele>
        <time>2018-11-28T10:30:43Z</time>
      </trkpt>
      <trkpt lat="45.04666" lon="5.39048">
        <ele>1108.43</ele>
        <time>2018-11-28T10:31:01Z</time>
      </trkpt>
      <trkpt lat="45.04666" lon="5.39049">
        <ele>1108.57</ele>
        <time>2018-11-28T10:31:21Z</time>
      </trkpt>
      <trkpt lat="45.04666" lon="5.39049">
        <ele>1108.69</ele>
        <time>2018-11-28T10:31:45Z</time>
      </trkpt>
      <trkpt lat="45.04667" lon="5.3905">
        <ele>1107.64</ele>
        <time>2018-11-28T10:32:06Z</time>
      </trkpt>
      <trkpt lat="45.04669" lon="5.39048">
        <ele>1108.97</ele>
        <time>2018-11-28T10:32:28Z</time>
      </trkpt>
      <trkpt lat="45.04669" lon="5.39048">
        <ele>1108.94</ele>
        <time>2018-11-28T10:32:53Z</time>
      </trkpt>
      <trkpt lat="45.04669" lon="5.39051">
        <ele>1109.13</ele>
        <time>2018-11-28T10:33:11Z</time>
      </trkpt>
      <trkpt lat="45.04675" lon="5.3906">
        <ele>1110.43</ele>
        <time>2018-11-28T10:33:24Z</time>
      </trkpt>
      <trkpt lat="45.04677" lon="5.39067">
        <ele>1111.77</ele>
        <time>2018-11-28T10:33:38Z</time>
      </trkpt>
      <trkpt lat="45.04678" lon="5.39078">
        <ele>1114.06</ele>
        <time>2018-11-28T10:33:57Z</time>
      </trkpt>
      <trkpt lat="45.04678" lon="5.39091">
        <ele>1116.72</ele>
        <time>2018-11-28T10:34:17Z</time>
      </trkpt>
      <trkpt lat="45.04681" lon="5.39101">
        <ele>1118.91</ele>
        <time>2018-11-28T10:34:34Z</time>
      </trkpt>
      <trkpt lat="45.04686" lon="5.39109">
        <ele>1120.5</ele>
        <time>2018-11-28T10:34:50Z</time>
      </trkpt>
      <trkpt lat="45.0469" lon="5.39118">
        <ele>1122.6</ele>
        <time>2018-11-28T10:35:09Z</time>
      </trkpt>
      <trkpt lat="45.04691" lon="5.39124">
        <ele>1122.93</ele>
        <time>2018-11-28T10:35:20Z</time>
      </trkpt>
      <trkpt lat="45.04685" lon="5.39124">
        <ele>1124.64</ele>
        <time>2018-11-28T10:35:35Z</time>
      </trkpt>
      <trkpt lat="45.04678" lon="5.3912">
        <ele>1127.1</ele>
        <time>2018-11-28T10:35:51Z</time>
      </trkpt>
      <trkpt lat="45.04669" lon="5.39118">
        <ele>1130.18</ele>
        <time>2018-11-28T10:36:08Z</time>
      </trkpt>
      <trkpt lat="45.04659" lon="5.39116">
        <ele>1132.62</ele>
        <time>2018-11-28T10:36:25Z</time>
      </trkpt>
      <trkpt lat="45.0465" lon="5.39115">
        <ele>1136.11</ele>
        <time>2018-11-28T10:36:44Z</time>
      </trkpt>
      <trkpt lat="45.0464" lon="5.3912">
        <ele>1137.84</ele>
        <time>2018-11-28T10:37:04Z</time>
      </trkpt>
      <trkpt lat="45.04629" lon="5.39129">
        <ele>1139.77</ele>
        <time>2018-11-28T10:37:22Z</time>
      </trkpt>
      <trkpt lat="45.04621" lon="5.39138">
        <ele>1141.58</ele>
        <time>2018-11-28T10:37:36Z</time>
      </trkpt>
      <trkpt lat="45.04613" lon="5.39148">
        <ele>1143.01</ele>
        <time>2018-11-28T10:37:54Z</time>
      </trkpt>
      <trkpt lat="45.04608" lon="5.39156">
        <ele>1145.81</ele>
        <time>2018-11-28T10:38:09Z</time>
      </trkpt>
      <trkpt lat="45.04603" lon="5.39163">
        <ele>1148.25</ele>
        <time>2018-11-28T10:38:24Z</time>
      </trkpt>
      <trkpt lat="45.04603" lon="5.39171">
        <ele>1150</ele>
        <time>2018-11-28T10:38:41Z</time>
      </trkpt>
      <trkpt lat="45.04603" lon="5.39181">
        <ele>1152.21</ele>
        <time>2018-11-28T10:38:58Z</time>
      </trkpt>
      <trkpt lat="45.04601" lon="5.39195">
        <ele>1155.16</ele>
        <time>2018-11-28T10:39:18Z</time>
      </trkpt>
      <trkpt lat="45.046" lon="5.3921">
        <ele>1158.18</ele>
        <time>2018-11-28T10:39:35Z</time>
      </trkpt>
      <trkpt lat="45.04596" lon="5.39223">
        <ele>1160.53</ele>
        <time>2018-11-28T10:39:53Z</time>
      </trkpt>
      <trkpt lat="45.04589" lon="5.39239">
        <ele>1159.75</ele>
        <time>2018-11-28T10:40:07Z</time>
      </trkpt>
      <trkpt lat="45.04589" lon="5.3924">
        <ele>1159.69</ele>
        <time>2018-11-28T10:40:08Z</time>
      </trkpt>
      <trkpt lat="45.04588" lon="5.39244">
        <ele>1158.72</ele>
        <time>2018-11-28T10:40:11Z</time>
      </trkpt>
      <trkpt lat="45.04587" lon="5.39246">
        <ele>1158.03</ele>
        <time>2018-11-28T10:40:13Z</time>
      </trkpt>
      <trkpt lat="45.04579" lon="5.39245">
        <ele>1156.75</ele>
        <time>2018-11-28T10:40:24Z</time>
      </trkpt>
      <trkpt lat="45.04576" lon="5.39239">
        <ele>1156.32</ele>
        <time>2018-11-28T10:40:31Z</time>
      </trkpt>
      <trkpt lat="45.04572" lon="5.39233">
        <ele>1156.06</ele>
        <time>2018-11-28T10:40:36Z</time>
      </trkpt>
      <trkpt lat="45.04565" lon="5.39222">
        <ele>1155.96</ele>
        <time>2018-11-28T10:40:47Z</time>
      </trkpt>
      <trkpt lat="45.04555" lon="5.39207">
        <ele>1154.51</ele>
        <time>2018-11-28T10:41:02Z</time>
      </trkpt>
      <trkpt lat="45.0454" lon="5.3919">
        <ele>1154.36</ele>
        <time>2018-11-28T10:41:15Z</time>
      </trkpt>
      <trkpt lat="45.04531" lon="5.39182">
        <ele>1153.94</ele>
        <time>2018-11-28T10:41:23Z</time>
      </trkpt>
      <trkpt lat="45.04516" lon="5.39175">
        <ele>1154.05</ele>
        <time>2018-11-28T10:41:34Z</time>
      </trkpt>
      <trkpt lat="45.04505" lon="5.39171">
        <ele>1154.79</ele>
        <time>2018-11-28T10:41:45Z</time>
      </trkpt>
      <trkpt lat="45.04489" lon="5.39167">
        <ele>1154.51</ele>
        <time>2018-11-28T10:42:00Z</time>
      </trkpt>
      <trkpt lat="45.04487" lon="5.39167">
        <ele>1154.59</ele>
        <time>2018-11-28T10:42:01Z</time>
      </trkpt>
      <trkpt lat="45.04474" lon="5.39181">
        <ele>1154.58</ele>
        <time>2018-11-28T10:42:13Z</time>
      </trkpt>
      <trkpt lat="45.04471" lon="5.39188">
        <ele>1154.61</ele>
        <time>2018-11-28T10:42:17Z</time>
      </trkpt>
      <trkpt lat="45.04469" lon="5.39193">
        <ele>1154.22</ele>
        <time>2018-11-28T10:42:20Z</time>
      </trkpt>
      <trkpt lat="45.04464" lon="5.3921">
        <ele>1154.95</ele>
        <time>2018-11-28T10:42:28Z</time>
      </trkpt>
      <trkpt lat="45.0446" lon="5.39233">
        <ele>1155.85</ele>
        <time>2018-11-28T10:42:41Z</time>
      </trkpt>
      <trkpt lat="45.04457" lon="5.39243">
        <ele>1155.51</ele>
        <time>2018-11-28T10:42:45Z</time>
      </trkpt>
      <trkpt lat="45.04455" lon="5.39252">
        <ele>1155.14</ele>
        <time>2018-11-28T10:42:49Z</time>
      </trkpt>
      <trkpt lat="45.04452" lon="5.3927">
        <ele>1155.77</ele>
        <time>2018-11-28T10:43:00Z</time>
      </trkpt>
      <trkpt lat="45.04449" lon="5.39291">
        <ele>1157.1</ele>
        <time>2018-11-28T10:43:14Z</time>
      </trkpt>
      <trkpt lat="45.04451" lon="5.39306">
        <ele>1157.96</ele>
        <time>2018-11-28T10:43:28Z</time>
      </trkpt>
      <trkpt lat="45.04449" lon="5.39312">
        <ele>1158.36</ele>
        <time>2018-11-28T10:43:34Z</time>
      </trkpt>
      <trkpt lat="45.04446" lon="5.39329">
        <ele>1159.37</ele>
        <time>2018-11-28T10:43:47Z</time>
      </trkpt>
      <trkpt lat="45.04443" lon="5.39344">
        <ele>1161.65</ele>
        <time>2018-11-28T10:44:04Z</time>
      </trkpt>
      <trkpt lat="45.04441" lon="5.39348">
        <ele>1162.16</ele>
        <time>2018-11-28T10:44:09Z</time>
      </trkpt>
      <trkpt lat="45.04434" lon="5.39367">
        <ele>1163.62</ele>
        <time>2018-11-28T10:44:25Z</time>
      </trkpt>
      <trkpt lat="45.04421" lon="5.39362">
        <ele>1165.17</ele>
        <time>2018-11-28T10:44:41Z</time>
      </trkpt>
      <trkpt lat="45.04409" lon="5.39346">
        <ele>1166.86</ele>
        <time>2018-11-28T10:44:58Z</time>
      </trkpt>
      <trkpt lat="45.04403" lon="5.39339">
        <ele>1167.87</ele>
        <time>2018-11-28T10:45:05Z</time>
      </trkpt>
      <trkpt lat="45.04393" lon="5.39326">
        <ele>1170.12</ele>
        <time>2018-11-28T10:45:22Z</time>
      </trkpt>
      <trkpt lat="45.04385" lon="5.39317">
        <ele>1170.94</ele>
        <time>2018-11-28T10:45:38Z</time>
      </trkpt>
      <trkpt lat="45.04373" lon="5.39314">
        <ele>1172.75</ele>
        <time>2018-11-28T10:45:55Z</time>
      </trkpt>
      <trkpt lat="45.04364" lon="5.3931">
        <ele>1174.05</ele>
        <time>2018-11-28T10:46:09Z</time>
      </trkpt>
      <trkpt lat="45.04352" lon="5.39311">
        <ele>1176.55</ele>
        <time>2018-11-28T10:46:29Z</time>
      </trkpt>
      <trkpt lat="45.04348" lon="5.39324">
        <ele>1178.6</ele>
        <time>2018-11-28T10:46:47Z</time>
      </trkpt>
      <trkpt lat="45.04349" lon="5.39325">
        <ele>1178.79</ele>
        <time>2018-11-28T10:47:02Z</time>
      </trkpt>
      <trkpt lat="45.04342" lon="5.39327">
        <ele>1179.46</ele>
        <time>2018-11-28T10:47:30Z</time>
      </trkpt>
      <trkpt lat="45.04334" lon="5.39326">
        <ele>1180.7</ele>
        <time>2018-11-28T10:47:43Z</time>
      </trkpt>
      <trkpt lat="45.04325" lon="5.39336">
        <ele>1182.39</ele>
        <time>2018-11-28T10:47:58Z</time>
      </trkpt>
      <trkpt lat="45.04331" lon="5.39348">
        <ele>1184.68</ele>
        <time>2018-11-28T10:48:14Z</time>
      </trkpt>
      <trkpt lat="45.04337" lon="5.39364">
        <ele>1187.08</ele>
        <time>2018-11-28T10:48:31Z</time>
      </trkpt>
      <trkpt lat="45.04339" lon="5.3938">
        <ele>1188.73</ele>
        <time>2018-11-28T10:48:44Z</time>
      </trkpt>
      <trkpt lat="45.04336" lon="5.3938">
        <ele>1191.1</ele>
        <time>2018-11-28T10:48:58Z</time>
      </trkpt>
      <trkpt lat="45.04328" lon="5.39375">
        <ele>1193.37</ele>
        <time>2018-11-28T10:49:15Z</time>
      </trkpt>
      <trkpt lat="45.04329" lon="5.39381">
        <ele>1194.39</ele>
        <time>2018-11-28T10:49:33Z</time>
      </trkpt>
      <trkpt lat="45.04332" lon="5.39394">
        <ele>1195.6</ele>
        <time>2018-11-28T10:49:48Z</time>
      </trkpt>
      <trkpt lat="45.04334" lon="5.3941">
        <ele>1196.85</ele>
        <time>2018-11-28T10:50:02Z</time>
      </trkpt>
      <trkpt lat="45.04337" lon="5.39426">
        <ele>1197.91</ele>
        <time>2018-11-28T10:50:15Z</time>
      </trkpt>
      <trkpt lat="45.04341" lon="5.39442">
        <ele>1198.52</ele>
        <time>2018-11-28T10:50:29Z</time>
      </trkpt>
      <trkpt lat="45.04344" lon="5.3946">
        <ele>1199.43</ele>
        <time>2018-11-28T10:50:43Z</time>
      </trkpt>
      <trkpt lat="45.0435" lon="5.39478">
        <ele>1200.59</ele>
        <time>2018-11-28T10:50:57Z</time>
      </trkpt>
      <trkpt lat="45.0435" lon="5.39493">
        <ele>1202.85</ele>
        <time>2018-11-28T10:51:12Z</time>
      </trkpt>
      <trkpt lat="45.04346" lon="5.39511">
        <ele>1204.96</ele>
        <time>2018-11-28T10:51:30Z</time>
      </trkpt>
      <trkpt lat="45.04338" lon="5.39523">
        <ele>1207.07</ele>
        <time>2018-11-28T10:51:46Z</time>
      </trkpt>
      <trkpt lat="45.04336" lon="5.39539">
        <ele>1207.57</ele>
        <time>2018-11-28T10:52:04Z</time>
      </trkpt>
      <trkpt lat="45.04329" lon="5.39554">
        <ele>1207.5</ele>
        <time>2018-11-28T10:52:16Z</time>
      </trkpt>
      <trkpt lat="45.04324" lon="5.39567">
        <ele>1207.57</ele>
        <time>2018-11-28T10:52:25Z</time>
      </trkpt>
      <trkpt lat="45.04316" lon="5.39584">
        <ele>1207.41</ele>
        <time>2018-11-28T10:52:36Z</time>
      </trkpt>
      <trkpt lat="45.04311" lon="5.39601">
        <ele>1207.39</ele>
        <time>2018-11-28T10:52:48Z</time>
      </trkpt>
      <trkpt lat="45.04306" lon="5.39618">
        <ele>1208.26</ele>
        <time>2018-11-28T10:53:03Z</time>
      </trkpt>
      <trkpt lat="45.04306" lon="5.3962">
        <ele>1208.38</ele>
        <time>2018-11-28T10:53:04Z</time>
      </trkpt>
      <trkpt lat="45.04304" lon="5.39625">
        <ele>1208.09</ele>
        <time>2018-11-28T10:53:07Z</time>
      </trkpt>
      <trkpt lat="45.04294" lon="5.39638">
        <ele>1208.62</ele>
        <time>2018-11-28T10:53:20Z</time>
      </trkpt>
      <trkpt lat="45.04284" lon="5.39659">
        <ele>1210.35</ele>
        <time>2018-11-28T10:53:37Z</time>
      </trkpt>
      <trkpt lat="45.04279" lon="5.39662">
        <ele>1211.06</ele>
        <time>2018-11-28T10:53:43Z</time>
      </trkpt>
      <trkpt lat="45.04271" lon="5.39672">
        <ele>1210.08</ele>
        <time>2018-11-28T10:54:01Z</time>
      </trkpt>
      <trkpt lat="45.04271" lon="5.39672">
        <ele>1210.68</ele>
        <time>2018-11-28T10:54:39Z</time>
      </trkpt>
      <trkpt lat="45.04268" lon="5.39681">
        <ele>1211.47</ele>
        <time>2018-11-28T10:54:53Z</time>
      </trkpt>
      <trkpt lat="45.0427" lon="5.39696">
        <ele>1213.14</ele>
        <time>2018-11-28T10:55:08Z</time>
      </trkpt>
      <trkpt lat="45.04269" lon="5.39704">
        <ele>1213.86</ele>
        <time>2018-11-28T10:55:15Z</time>
      </trkpt>
      <trkpt lat="45.04269" lon="5.39726">
        <ele>1215.19</ele>
        <time>2018-11-28T10:55:31Z</time>
      </trkpt>
      <trkpt lat="45.04273" lon="5.39741">
        <ele>1217.15</ele>
        <time>2018-11-28T10:55:45Z</time>
      </trkpt>
      <trkpt lat="45.04285" lon="5.39766">
        <ele>1218.7</ele>
        <time>2018-11-28T10:56:03Z</time>
      </trkpt>
      <trkpt lat="45.04287" lon="5.39771">
        <ele>1219.98</ele>
        <time>2018-11-28T10:56:11Z</time>
      </trkpt>
      <trkpt lat="45.04299" lon="5.39788">
        <ele>1221.74</ele>
        <time>2018-11-28T10:56:29Z</time>
      </trkpt>
      <trkpt lat="45.04311" lon="5.39808">
        <ele>1223.1</ele>
        <time>2018-11-28T10:56:46Z</time>
      </trkpt>
      <trkpt lat="45.0432" lon="5.39825">
        <ele>1224.7</ele>
        <time>2018-11-28T10:57:03Z</time>
      </trkpt>
      <trkpt lat="45.04328" lon="5.39844">
        <ele>1225.98</ele>
        <time>2018-11-28T10:57:20Z</time>
      </trkpt>
      <trkpt lat="45.04336" lon="5.39861">
        <ele>1227.01</ele>
        <time>2018-11-28T10:57:37Z</time>
      </trkpt>
      <trkpt lat="45.04342" lon="5.39875">
        <ele>1228.51</ele>
        <time>2018-11-28T10:57:51Z</time>
      </trkpt>
      <trkpt lat="45.04352" lon="5.39886">
        <ele>1229.3</ele>
        <time>2018-11-28T10:58:04Z</time>
      </trkpt>
      <trkpt lat="45.04354" lon="5.39904">
        <ele>1231.77</ele>
        <time>2018-11-28T10:58:22Z</time>
      </trkpt>
      <trkpt lat="45.04346" lon="5.39912">
        <ele>1233.66</ele>
        <time>2018-11-28T10:58:38Z</time>
      </trkpt>
      <trkpt lat="45.04335" lon="5.39912">
        <ele>1235.72</ele>
        <time>2018-11-28T10:58:56Z</time>
      </trkpt>
      <trkpt lat="45.04329" lon="5.39912">
        <ele>1237.28</ele>
        <time>2018-11-28T10:59:12Z</time>
      </trkpt>
      <trkpt lat="45.04323" lon="5.39928">
        <ele>1238.77</ele>
        <time>2018-11-28T10:59:31Z</time>
      </trkpt>
      <trkpt lat="45.04326" lon="5.3994">
        <ele>1240.73</ele>
        <time>2018-11-28T10:59:45Z</time>
      </trkpt>
      <trkpt lat="45.04329" lon="5.39956">
        <ele>1241.7</ele>
        <time>2018-11-28T11:00:01Z</time>
      </trkpt>
      <trkpt lat="45.04332" lon="5.39972">
        <ele>1241.19</ele>
        <time>2018-11-28T11:00:19Z</time>
      </trkpt>
      <trkpt lat="45.04333" lon="5.39986">
        <ele>1240.97</ele>
        <time>2018-11-28T11:00:35Z</time>
      </trkpt>
      <trkpt lat="45.04334" lon="5.39985">
        <ele>1240.55</ele>
        <time>2018-11-28T11:00:56Z</time>
      </trkpt>
      <trkpt lat="45.04335" lon="5.39979">
        <ele>1240.36</ele>
        <time>2018-11-28T11:01:16Z</time>
      </trkpt>
      <trkpt lat="45.04333" lon="5.39975">
        <ele>1240.34</ele>
        <time>2018-11-28T11:01:40Z</time>
      </trkpt>
      <trkpt lat="45.04333" lon="5.39976">
        <ele>1239.95</ele>
        <time>2018-11-28T11:01:55Z</time>
      </trkpt>
      <trkpt lat="45.04329" lon="5.39982">
        <ele>1239.92</ele>
        <time>2018-11-28T11:02:27Z</time>
      </trkpt>
      <trkpt lat="45.04328" lon="5.3998">
        <ele>1239.77</ele>
        <time>2018-11-28T11:02:53Z</time>
      </trkpt>
      <trkpt lat="45.04332" lon="5.39979">
        <ele>1239.79</ele>
        <time>2018-11-28T11:03:25Z</time>
      </trkpt>
      <trkpt lat="45.04331" lon="5.39986">
        <ele>1240.17</ele>
        <time>2018-11-28T11:03:56Z</time>
      </trkpt>
      <trkpt lat="45.0433" lon="5.39983">
        <ele>1240.53</ele>
        <time>2018-11-28T11:04:38Z</time>
      </trkpt>
      <trkpt lat="45.0433" lon="5.39982">
        <ele>1240.85</ele>
        <time>2018-11-28T11:05:15Z</time>
      </trkpt>
      <trkpt lat="45.04332" lon="5.39981">
        <ele>1241.03</ele>
        <time>2018-11-28T11:05:46Z</time>
      </trkpt>
      <trkpt lat="45.04333" lon="5.39984">
        <ele>1241.27</ele>
        <time>2018-11-28T11:06:27Z</time>
      </trkpt>
      <trkpt lat="45.04333" lon="5.39984">
        <ele>1242.14</ele>
        <time>2018-11-28T11:07:15Z</time>
      </trkpt>
      <trkpt lat="45.04333" lon="5.39983">
        <ele>1243</ele>
        <time>2018-11-28T11:07:42Z</time>
      </trkpt>
      <trkpt lat="45.04332" lon="5.39986">
        <ele>1243.03</ele>
        <time>2018-11-28T11:08:03Z</time>
      </trkpt>
      <trkpt lat="45.04325" lon="5.39983">
        <ele>1242.92</ele>
        <time>2018-11-28T11:08:18Z</time>
      </trkpt>
      <trkpt lat="45.04316" lon="5.39991">
        <ele>1241.09</ele>
        <time>2018-11-28T11:08:31Z</time>
      </trkpt>
      <trkpt lat="45.04306" lon="5.39997">
        <ele>1239.44</ele>
        <time>2018-11-28T11:08:45Z</time>
      </trkpt>
      <trkpt lat="45.04302" lon="5.4">
        <ele>1238.64</ele>
        <time>2018-11-28T11:08:48Z</time>
      </trkpt>
      <trkpt lat="45.04294" lon="5.4002">
        <ele>1235.24</ele>
        <time>2018-11-28T11:09:00Z</time>
      </trkpt>
      <trkpt lat="45.04294" lon="5.40042">
        <ele>1232.17</ele>
        <time>2018-11-28T11:09:13Z</time>
      </trkpt>
      <trkpt lat="45.04294" lon="5.40044">
        <ele>1231.92</ele>
        <time>2018-11-28T11:09:14Z</time>
      </trkpt>
      <trkpt lat="45.04295" lon="5.4006">
        <ele>1229.02</ele>
        <time>2018-11-28T11:09:25Z</time>
      </trkpt>
      <trkpt lat="45.04303" lon="5.40072">
        <ele>1226.37</ele>
        <time>2018-11-28T11:09:38Z</time>
      </trkpt>
      <trkpt lat="45.04318" lon="5.40082">
        <ele>1223.26</ele>
        <time>2018-11-28T11:09:54Z</time>
      </trkpt>
      <trkpt lat="45.04333" lon="5.4009">
        <ele>1220.48</ele>
        <time>2018-11-28T11:10:08Z</time>
      </trkpt>
      <trkpt lat="45.04344" lon="5.40096">
        <ele>1219.39</ele>
        <time>2018-11-28T11:10:16Z</time>
      </trkpt>
      <trkpt lat="45.04361" lon="5.40111">
        <ele>1217.34</ele>
        <time>2018-11-28T11:10:29Z</time>
      </trkpt>
      <trkpt lat="45.04368" lon="5.40127">
        <ele>1215.76</ele>
        <time>2018-11-28T11:10:40Z</time>
      </trkpt>
      <trkpt lat="45.04375" lon="5.4014">
        <ele>1213.73</ele>
        <time>2018-11-28T11:10:48Z</time>
      </trkpt>
      <trkpt lat="45.04373" lon="5.40156">
        <ele>1210.65</ele>
        <time>2018-11-28T11:10:58Z</time>
      </trkpt>
      <trkpt lat="45.04364" lon="5.40166">
        <ele>1207.62</ele>
        <time>2018-11-28T11:11:11Z</time>
      </trkpt>
      <trkpt lat="45.04357" lon="5.40174">
        <ele>1204.7</ele>
        <time>2018-11-28T11:11:21Z</time>
      </trkpt>
      <trkpt lat="45.04349" lon="5.40183">
        <ele>1201.7</ele>
        <time>2018-11-28T11:11:32Z</time>
      </trkpt>
      <trkpt lat="45.04343" lon="5.40191">
        <ele>1198.55</ele>
        <time>2018-11-28T11:11:41Z</time>
      </trkpt>
      <trkpt lat="45.04337" lon="5.40199">
        <ele>1197.47</ele>
        <time>2018-11-28T11:11:47Z</time>
      </trkpt>
      <trkpt lat="45.04328" lon="5.40214">
        <ele>1193.94</ele>
        <time>2018-11-28T11:11:58Z</time>
      </trkpt>
      <trkpt lat="45.04323" lon="5.40219">
        <ele>1192.04</ele>
        <time>2018-11-28T11:12:03Z</time>
      </trkpt>
      <trkpt lat="45.04313" lon="5.4023">
        <ele>1188.77</ele>
        <time>2018-11-28T11:12:13Z</time>
      </trkpt>
      <trkpt lat="45.04302" lon="5.40242">
        <ele>1185.72</ele>
        <time>2018-11-28T11:12:24Z</time>
      </trkpt>
      <trkpt lat="45.04292" lon="5.40257">
        <ele>1182.67</ele>
        <time>2018-11-28T11:12:34Z</time>
      </trkpt>
      <trkpt lat="45.04279" lon="5.40274">
        <ele>1179.41</ele>
        <time>2018-11-28T11:12:46Z</time>
      </trkpt>
      <trkpt lat="45.04276" lon="5.40279">
        <ele>1178.26</ele>
        <time>2018-11-28T11:12:49Z</time>
      </trkpt>
      <trkpt lat="45.04266" lon="5.40294">
        <ele>1174.71</ele>
        <time>2018-11-28T11:12:59Z</time>
      </trkpt>
      <trkpt lat="45.04257" lon="5.4031">
        <ele>1172.12</ele>
        <time>2018-11-28T11:13:11Z</time>
      </trkpt>
      <trkpt lat="45.04254" lon="5.40326">
        <ele>1169.07</ele>
        <time>2018-11-28T11:13:20Z</time>
      </trkpt>
      <trkpt lat="45.0425" lon="5.40342">
        <ele>1166.24</ele>
        <time>2018-11-28T11:13:29Z</time>
      </trkpt>
      <trkpt lat="45.0425" lon="5.40361">
        <ele>1163.36</ele>
        <time>2018-11-28T11:13:40Z</time>
      </trkpt>
      <trkpt lat="45.04247" lon="5.40372">
        <ele>1162.07</ele>
        <time>2018-11-28T11:13:45Z</time>
      </trkpt>
      <trkpt lat="45.04241" lon="5.40396">
        <ele>1159.22</ele>
        <time>2018-11-28T11:13:56Z</time>
      </trkpt>
      <trkpt lat="45.04236" lon="5.40418">
        <ele>1157.52</ele>
        <time>2018-11-28T11:14:06Z</time>
      </trkpt>
      <trkpt lat="45.04235" lon="5.40433">
        <ele>1155.37</ele>
        <time>2018-11-28T11:14:17Z</time>
      </trkpt>
      <trkpt lat="45.04236" lon="5.40436">
        <ele>1154.99</ele>
        <time>2018-11-28T11:14:19Z</time>
      </trkpt>
      <trkpt lat="45.04237" lon="5.40441">
        <ele>1154.01</ele>
        <time>2018-11-28T11:14:22Z</time>
      </trkpt>
      <trkpt lat="45.0424" lon="5.40464">
        <ele>1150.83</ele>
        <time>2018-11-28T11:14:36Z</time>
      </trkpt>
      <trkpt lat="45.04241" lon="5.40493">
        <ele>1148.2</ele>
        <time>2018-11-28T11:14:51Z</time>
      </trkpt>
      <trkpt lat="45.04238" lon="5.40523">
        <ele>1145.82</ele>
        <time>2018-11-28T11:15:06Z</time>
      </trkpt>
      <trkpt lat="45.04236" lon="5.40544">
        <ele>1143.69</ele>
        <time>2018-11-28T11:15:18Z</time>
      </trkpt>
      <trkpt lat="45.04235" lon="5.40552">
        <ele>1142.89</ele>
        <time>2018-11-28T11:15:22Z</time>
      </trkpt>
      <trkpt lat="45.04228" lon="5.40576">
        <ele>1140.95</ele>
        <time>2018-11-28T11:15:34Z</time>
      </trkpt>
      <trkpt lat="45.04226" lon="5.406">
        <ele>1139.29</ele>
        <time>2018-11-28T11:15:46Z</time>
      </trkpt>
      <trkpt lat="45.04225" lon="5.40618">
        <ele>1138.01</ele>
        <time>2018-11-28T11:15:56Z</time>
      </trkpt>
      <trkpt lat="45.04228" lon="5.40638">
        <ele>1136.12</ele>
        <time>2018-11-28T11:16:07Z</time>
      </trkpt>
      <trkpt lat="45.04227" lon="5.40645">
        <ele>1135.64</ele>
        <time>2018-11-28T11:16:10Z</time>
      </trkpt>
      <trkpt lat="45.04226" lon="5.40649">
        <ele>1135.45</ele>
        <time>2018-11-28T11:16:12Z</time>
      </trkpt>
      <trkpt lat="45.04225" lon="5.40665">
        <ele>1134.28</ele>
        <time>2018-11-28T11:16:20Z</time>
      </trkpt>
      <trkpt lat="45.04225" lon="5.40667">
        <ele>1133.89</ele>
        <time>2018-11-28T11:16:22Z</time>
      </trkpt>
      <trkpt lat="45.04226" lon="5.40676">
        <ele>1133.2</ele>
        <time>2018-11-28T11:16:37Z</time>
      </trkpt>
      <trkpt lat="45.04223" lon="5.40681">
        <ele>1132.88</ele>
        <time>2018-11-28T11:16:55Z</time>
      </trkpt>
      <trkpt lat="45.04218" lon="5.40678">
        <ele>1132.54</ele>
        <time>2018-11-28T11:17:17Z</time>
      </trkpt>
      <trkpt lat="45.04217" lon="5.40681">
        <ele>1132.96</ele>
        <time>2018-11-28T11:17:37Z</time>
      </trkpt>
      <trkpt lat="45.04218" lon="5.40678">
        <ele>1133.18</ele>
        <time>2018-11-28T11:18:01Z</time>
      </trkpt>
      <trkpt lat="45.04217" lon="5.40678">
        <ele>1133.51</ele>
        <time>2018-11-28T11:18:35Z</time>
      </trkpt>
      <trkpt lat="45.04216" lon="5.40682">
        <ele>1133.04</ele>
        <time>2018-11-28T11:18:48Z</time>
      </trkpt>
      <trkpt lat="45.04217" lon="5.40683">
        <ele>1133.59</ele>
        <time>2018-11-28T11:19:11Z</time>
      </trkpt>
      <trkpt lat="45.04218" lon="5.40683">
        <ele>1133.57</ele>
        <time>2018-11-28T11:19:32Z</time>
      </trkpt>
      <trkpt lat="45.04218" lon="5.40682">
        <ele>1133.78</ele>
        <time>2018-11-28T11:19:42Z</time>
      </trkpt>
      <trkpt lat="45.04214" lon="5.40684">
        <ele>1133.19</ele>
        <time>2018-11-28T11:19:46Z</time>
      </trkpt>
      <trkpt lat="45.04212" lon="5.40685">
        <ele>1133.16</ele>
        <time>2018-11-28T11:19:48Z</time>
      </trkpt>
      <trkpt lat="45.04198" lon="5.40699">
        <ele>1131.48</ele>
        <time>2018-11-28T11:20:02Z</time>
      </trkpt>
      <trkpt lat="45.04187" lon="5.40708">
        <ele>1129.73</ele>
        <time>2018-11-28T11:20:16Z</time>
      </trkpt>
      <trkpt lat="45.04184" lon="5.40704">
        <ele>1130.24</ele>
        <time>2018-11-28T11:20:31Z</time>
      </trkpt>
      <trkpt lat="45.04178" lon="5.40696">
        <ele>1130.06</ele>
        <time>2018-11-28T11:20:47Z</time>
      </trkpt>
      <trkpt lat="45.04164" lon="5.40696">
        <ele>1129.23</ele>
        <time>2018-11-28T11:21:01Z</time>
      </trkpt>
      <trkpt lat="45.04151" lon="5.40705">
        <ele>1129.84</ele>
        <time>2018-11-28T11:21:18Z</time>
      </trkpt>
      <trkpt lat="45.04135" lon="5.40709">
        <ele>1129.92</ele>
        <time>2018-11-28T11:21:35Z</time>
      </trkpt>
      <trkpt lat="45.04128" lon="5.40707">
        <ele>1128.87</ele>
        <time>2018-11-28T11:21:43Z</time>
      </trkpt>
      <trkpt lat="45.04117" lon="5.40708">
        <ele>1127.07</ele>
        <time>2018-11-28T11:21:51Z</time>
      </trkpt>
      <trkpt lat="45.04112" lon="5.40712">
        <ele>1126.03</ele>
        <time>2018-11-28T11:21:56Z</time>
      </trkpt>
      <trkpt lat="45.04097" lon="5.40727">
        <ele>1123.68</ele>
        <time>2018-11-28T11:22:08Z</time>
      </trkpt>
      <trkpt lat="45.04093" lon="5.40733">
        <ele>1123.23</ele>
        <time>2018-11-28T11:22:12Z</time>
      </trkpt>
      <trkpt lat="45.04089" lon="5.40736">
        <ele>1122.82</ele>
        <time>2018-11-28T11:22:16Z</time>
      </trkpt>
      <trkpt lat="45.04086" lon="5.40744">
        <ele>1122.24</ele>
        <time>2018-11-28T11:22:21Z</time>
      </trkpt>
      <trkpt lat="45.04076" lon="5.40763">
        <ele>1121.17</ele>
        <time>2018-11-28T11:22:32Z</time>
      </trkpt>
      <trkpt lat="45.04073" lon="5.40768">
        <ele>1120.95</ele>
        <time>2018-11-28T11:22:35Z</time>
      </trkpt>
      <trkpt lat="45.04069" lon="5.40783">
        <ele>1120.85</ele>
        <time>2018-11-28T11:22:47Z</time>
      </trkpt>
      <trkpt lat="45.04053" lon="5.40796">
        <ele>1122.41</ele>
        <time>2018-11-28T11:23:05Z</time>
      </trkpt>
      <trkpt lat="45.04052" lon="5.40798">
        <ele>1122.19</ele>
        <time>2018-11-28T11:23:06Z</time>
      </trkpt>
      <trkpt lat="45.04038" lon="5.40821">
        <ele>1121.11</ele>
        <time>2018-11-28T11:23:21Z</time>
      </trkpt>
      <trkpt lat="45.04025" lon="5.40833">
        <ele>1122.87</ele>
        <time>2018-11-28T11:23:36Z</time>
      </trkpt>
      <trkpt lat="45.04015" lon="5.40837">
        <ele>1125.13</ele>
        <time>2018-11-28T11:23:51Z</time>
      </trkpt>
      <trkpt lat="45.03994" lon="5.40842">
        <ele>1125.34</ele>
        <time>2018-11-28T11:24:09Z</time>
      </trkpt>
      <trkpt lat="45.03974" lon="5.40848">
        <ele>1125.07</ele>
        <time>2018-11-28T11:24:25Z</time>
      </trkpt>
      <trkpt lat="45.03956" lon="5.40862">
        <ele>1125.97</ele>
        <time>2018-11-28T11:24:42Z</time>
      </trkpt>
      <trkpt lat="45.03937" lon="5.40879">
        <ele>1126.15</ele>
        <time>2018-11-28T11:24:57Z</time>
      </trkpt>
      <trkpt lat="45.03927" lon="5.40885">
        <ele>1125.45</ele>
        <time>2018-11-28T11:25:07Z</time>
      </trkpt>
      <trkpt lat="45.03909" lon="5.409">
        <ele>1125.42</ele>
        <time>2018-11-28T11:25:26Z</time>
      </trkpt>
      <trkpt lat="45.0389" lon="5.40899">
        <ele>1128.07</ele>
        <time>2018-11-28T11:25:45Z</time>
      </trkpt>
      <trkpt lat="45.03881" lon="5.40889">
        <ele>1130.12</ele>
        <time>2018-11-28T11:26:00Z</time>
      </trkpt>
      <trkpt lat="45.03872" lon="5.40868">
        <ele>1132.54</ele>
        <time>2018-11-28T11:26:17Z</time>
      </trkpt>
      <trkpt lat="45.0387" lon="5.40846">
        <ele>1135.56</ele>
        <time>2018-11-28T11:26:36Z</time>
      </trkpt>
      <trkpt lat="45.03868" lon="5.40826">
        <ele>1135.58</ele>
        <time>2018-11-28T11:26:51Z</time>
      </trkpt>
      <trkpt lat="45.03863" lon="5.40812">
        <ele>1135.23</ele>
        <time>2018-11-28T11:27:02Z</time>
      </trkpt>
      <trkpt lat="45.03854" lon="5.40806">
        <ele>1135.18</ele>
        <time>2018-11-28T11:27:14Z</time>
      </trkpt>
      <trkpt lat="45.03846" lon="5.40803">
        <ele>1136.16</ele>
        <time>2018-11-28T11:27:27Z</time>
      </trkpt>
      <trkpt lat="45.03835" lon="5.40802">
        <ele>1138.14</ele>
        <time>2018-11-28T11:27:41Z</time>
      </trkpt>
      <trkpt lat="45.03818" lon="5.40802">
        <ele>1138.96</ele>
        <time>2018-11-28T11:28:00Z</time>
      </trkpt>
      <trkpt lat="45.03809" lon="5.40802">
        <ele>1139.47</ele>
        <time>2018-11-28T11:28:06Z</time>
      </trkpt>
      <trkpt lat="45.03789" lon="5.40799">
        <ele>1140.13</ele>
        <time>2018-11-28T11:28:23Z</time>
      </trkpt>
      <trkpt lat="45.03776" lon="5.40788">
        <ele>1140.02</ele>
        <time>2018-11-28T11:28:39Z</time>
      </trkpt>
      <trkpt lat="45.03758" lon="5.40782">
        <ele>1140.97</ele>
        <time>2018-11-28T11:28:55Z</time>
      </trkpt>
      <trkpt lat="45.03742" lon="5.4078">
        <ele>1141.58</ele>
        <time>2018-11-28T11:29:10Z</time>
      </trkpt>
      <trkpt lat="45.03726" lon="5.40777">
        <ele>1141.63</ele>
        <time>2018-11-28T11:29:25Z</time>
      </trkpt>
      <trkpt lat="45.03718" lon="5.40773">
        <ele>1141.74</ele>
        <time>2018-11-28T11:29:39Z</time>
      </trkpt>
      <trkpt lat="45.03717" lon="5.40772">
        <ele>1141.8</ele>
        <time>2018-11-28T11:29:40Z</time>
      </trkpt>
      <trkpt lat="45.03712" lon="5.40768">
        <ele>1141.61</ele>
        <time>2018-11-28T11:29:45Z</time>
      </trkpt>
      <trkpt lat="45.03696" lon="5.40748">
        <ele>1142.4</ele>
        <time>2018-11-28T11:30:03Z</time>
      </trkpt>
      <trkpt lat="45.03682" lon="5.40728">
        <ele>1142.33</ele>
        <time>2018-11-28T11:30:20Z</time>
      </trkpt>
      <trkpt lat="45.03665" lon="5.40701">
        <ele>1143.52</ele>
        <time>2018-11-28T11:30:38Z</time>
      </trkpt>
      <trkpt lat="45.03654" lon="5.40676">
        <ele>1143.67</ele>
        <time>2018-11-28T11:30:56Z</time>
      </trkpt>
      <trkpt lat="45.03647" lon="5.40649">
        <ele>1144.06</ele>
        <time>2018-11-28T11:31:15Z</time>
      </trkpt>
      <trkpt lat="45.03647" lon="5.40647">
        <ele>1143.86</ele>
        <time>2018-11-28T11:31:16Z</time>
      </trkpt>
      <trkpt lat="45.0365" lon="5.40623">
        <ele>1145.67</ele>
        <time>2018-11-28T11:31:32Z</time>
      </trkpt>
      <trkpt lat="45.03649" lon="5.40602">
        <ele>1146.11</ele>
        <time>2018-11-28T11:31:48Z</time>
      </trkpt>
      <trkpt lat="45.03644" lon="5.40591">
        <ele>1146.1</ele>
        <time>2018-11-28T11:32:00Z</time>
      </trkpt>
      <trkpt lat="45.03639" lon="5.40568">
        <ele>1145.63</ele>
        <time>2018-11-28T11:32:16Z</time>
      </trkpt>
      <trkpt lat="45.03632" lon="5.40548">
        <ele>1144.57</ele>
        <time>2018-11-28T11:32:29Z</time>
      </trkpt>
      <trkpt lat="45.03628" lon="5.40542">
        <ele>1144.1</ele>
        <time>2018-11-28T11:32:34Z</time>
      </trkpt>
      <trkpt lat="45.03615" lon="5.40523">
        <ele>1141.59</ele>
        <time>2018-11-28T11:32:50Z</time>
      </trkpt>
      <trkpt lat="45.03602" lon="5.40507">
        <ele>1141.18</ele>
        <time>2018-11-28T11:33:06Z</time>
      </trkpt>
      <trkpt lat="45.03586" lon="5.40482">
        <ele>1141.14</ele>
        <time>2018-11-28T11:33:25Z</time>
      </trkpt>
      <trkpt lat="45.03578" lon="5.40456">
        <ele>1142.28</ele>
        <time>2018-11-28T11:33:42Z</time>
      </trkpt>
      <trkpt lat="45.03577" lon="5.40431">
        <ele>1144.25</ele>
        <time>2018-11-28T11:33:59Z</time>
      </trkpt>
      <trkpt lat="45.03574" lon="5.40407">
        <ele>1145.57</ele>
        <time>2018-11-28T11:34:15Z</time>
      </trkpt>
      <trkpt lat="45.03572" lon="5.40374">
        <ele>1145.76</ele>
        <time>2018-11-28T11:34:33Z</time>
      </trkpt>
      <trkpt lat="45.03565" lon="5.40345">
        <ele>1146.51</ele>
        <time>2018-11-28T11:34:52Z</time>
      </trkpt>
      <trkpt lat="45.03564" lon="5.40343">
        <ele>1146.7</ele>
        <time>2018-11-28T11:34:53Z</time>
      </trkpt>
      <trkpt lat="45.03555" lon="5.40322">
        <ele>1147.22</ele>
        <time>2018-11-28T11:35:10Z</time>
      </trkpt>
      <trkpt lat="45.03546" lon="5.40304">
        <ele>1147.88</ele>
        <time>2018-11-28T11:35:26Z</time>
      </trkpt>
      <trkpt lat="45.03531" lon="5.40285">
        <ele>1148.37</ele>
        <time>2018-11-28T11:35:44Z</time>
      </trkpt>
      <trkpt lat="45.03512" lon="5.4028">
        <ele>1147.62</ele>
        <time>2018-11-28T11:35:59Z</time>
      </trkpt>
      <trkpt lat="45.03498" lon="5.40271">
        <ele>1148.21</ele>
        <time>2018-11-28T11:36:15Z</time>
      </trkpt>
      <trkpt lat="45.03482" lon="5.40269">
        <ele>1149.04</ele>
        <time>2018-11-28T11:36:29Z</time>
      </trkpt>
      <trkpt lat="45.03467" lon="5.40267">
        <ele>1148.86</ele>
        <time>2018-11-28T11:36:46Z</time>
      </trkpt>
      <trkpt lat="45.03449" lon="5.40266">
        <ele>1149.05</ele>
        <time>2018-11-28T11:37:03Z</time>
      </trkpt>
      <trkpt lat="45.03435" lon="5.40255">
        <ele>1149.65</ele>
        <time>2018-11-28T11:37:18Z</time>
      </trkpt>
      <trkpt lat="45.03423" lon="5.4024">
        <ele>1150.88</ele>
        <time>2018-11-28T11:37:34Z</time>
      </trkpt>
      <trkpt lat="45.03413" lon="5.40223">
        <ele>1152.29</ele>
        <time>2018-11-28T11:37:50Z</time>
      </trkpt>
      <trkpt lat="45.03404" lon="5.40214">
        <ele>1153.4</ele>
        <time>2018-11-28T11:38:05Z</time>
      </trkpt>
      <trkpt lat="45.03395" lon="5.402">
        <ele>1154.48</ele>
        <time>2018-11-28T11:38:23Z</time>
      </trkpt>
      <trkpt lat="45.03391" lon="5.40185">
        <ele>1156.27</ele>
        <time>2018-11-28T11:38:38Z</time>
      </trkpt>
      <trkpt lat="45.03387" lon="5.4017">
        <ele>1157.5</ele>
        <time>2018-11-28T11:38:53Z</time>
      </trkpt>
      <trkpt lat="45.03382" lon="5.40152">
        <ele>1158.91</ele>
        <time>2018-11-28T11:39:08Z</time>
      </trkpt>
      <trkpt lat="45.03377" lon="5.40144">
        <ele>1159.58</ele>
        <time>2018-11-28T11:39:22Z</time>
      </trkpt>
      <trkpt lat="45.03373" lon="5.40136">
        <ele>1159.44</ele>
        <time>2018-11-28T11:39:43Z</time>
      </trkpt>
      <trkpt lat="45.0337" lon="5.40123">
        <ele>1160.34</ele>
        <time>2018-11-28T11:39:57Z</time>
      </trkpt>
      <trkpt lat="45.03364" lon="5.40106">
        <ele>1161.49</ele>
        <time>2018-11-28T11:40:13Z</time>
      </trkpt>
      <trkpt lat="45.03364" lon="5.40086">
        <ele>1162.03</ele>
        <time>2018-11-28T11:40:29Z</time>
      </trkpt>
      <trkpt lat="45.03362" lon="5.40076">
        <ele>1161.22</ele>
        <time>2018-11-28T11:40:35Z</time>
      </trkpt>
      <trkpt lat="45.03354" lon="5.40067">
        <ele>1159.4</ele>
        <time>2018-11-28T11:40:43Z</time>
      </trkpt>
      <trkpt lat="45.03344" lon="5.40056">
        <ele>1157.63</ele>
        <time>2018-11-28T11:40:54Z</time>
      </trkpt>
      <trkpt lat="45.03339" lon="5.40049">
        <ele>1157.5</ele>
        <time>2018-11-28T11:41:05Z</time>
      </trkpt>
      <trkpt lat="45.03338" lon="5.40042">
        <ele>1158.03</ele>
        <time>2018-11-28T11:41:20Z</time>
      </trkpt>
      <trkpt lat="45.03336" lon="5.40024">
        <ele>1159.86</ele>
        <time>2018-11-28T11:41:37Z</time>
      </trkpt>
      <trkpt lat="45.03326" lon="5.40012">
        <ele>1160.93</ele>
        <time>2018-11-28T11:41:52Z</time>
      </trkpt>
      <trkpt lat="45.03324" lon="5.40002">
        <ele>1160.66</ele>
        <time>2018-11-28T11:42:07Z</time>
      </trkpt>
      <trkpt lat="45.03324" lon="5.39993">
        <ele>1161.81</ele>
        <time>2018-11-28T11:42:22Z</time>
      </trkpt>
      <trkpt lat="45.03322" lon="5.39986">
        <ele>1162.23</ele>
        <time>2018-11-28T11:42:34Z</time>
      </trkpt>
      <trkpt lat="45.03319" lon="5.39987">
        <ele>1162.39</ele>
        <time>2018-11-28T11:42:48Z</time>
      </trkpt>
      <trkpt lat="45.03317" lon="5.39988">
        <ele>1161.57</ele>
        <time>2018-11-28T11:43:04Z</time>
      </trkpt>
      <trkpt lat="45.03315" lon="5.39988">
        <ele>1161.71</ele>
        <time>2018-11-28T11:43:42Z</time>
      </trkpt>
      <trkpt lat="45.03315" lon="5.39988">
        <ele>1161.8</ele>
        <time>2018-11-28T11:44:23Z</time>
      </trkpt>
      <trkpt lat="45.03314" lon="5.39988">
        <ele>1162.11</ele>
        <time>2018-11-28T11:45:02Z</time>
      </trkpt>
      <trkpt lat="45.03315" lon="5.39988">
        <ele>1162.17</ele>
        <time>2018-11-28T11:45:44Z</time>
      </trkpt>
      <trkpt lat="45.03315" lon="5.39988">
        <ele>1161.96</ele>
        <time>2018-11-28T11:46:08Z</time>
      </trkpt>
      <trkpt lat="45.03316" lon="5.39989">
        <ele>1162.14</ele>
        <time>2018-11-28T11:46:32Z</time>
      </trkpt>
      <trkpt lat="45.03318" lon="5.39988">
        <ele>1162.29</ele>
        <time>2018-11-28T11:47:01Z</time>
      </trkpt>
      <trkpt lat="45.03318" lon="5.39991">
        <ele>1162.21</ele>
        <time>2018-11-28T11:47:30Z</time>
      </trkpt>
      <trkpt lat="45.03322" lon="5.39991">
        <ele>1162.13</ele>
        <time>2018-11-28T11:48:01Z</time>
      </trkpt>
      <trkpt lat="45.03322" lon="5.39991">
        <ele>1162.62</ele>
        <time>2018-11-28T11:48:39Z</time>
      </trkpt>
      <trkpt lat="45.03322" lon="5.39991">
        <ele>1162.68</ele>
        <time>2018-11-28T11:49:17Z</time>
      </trkpt>
      <trkpt lat="45.03321" lon="5.39991">
        <ele>1162.51</ele>
        <time>2018-11-28T11:49:44Z</time>
      </trkpt>
      <trkpt lat="45.0332" lon="5.39991">
        <ele>1162.71</ele>
        <time>2018-11-28T11:50:21Z</time>
      </trkpt>
      <trkpt lat="45.03321" lon="5.39991">
        <ele>1163.08</ele>
        <time>2018-11-28T11:50:54Z</time>
      </trkpt>
      <trkpt lat="45.0332" lon="5.3999">
        <ele>1163.26</ele>
        <time>2018-11-28T11:51:33Z</time>
      </trkpt>
      <trkpt lat="45.0332" lon="5.39991">
        <ele>1163.26</ele>
        <time>2018-11-28T11:52:09Z</time>
      </trkpt>
      <trkpt lat="45.0332" lon="5.39992">
        <ele>1163.37</ele>
        <time>2018-11-28T11:52:51Z</time>
      </trkpt>
      <trkpt lat="45.0332" lon="5.39991">
        <ele>1163.53</ele>
        <time>2018-11-28T11:53:31Z</time>
      </trkpt>
      <trkpt lat="45.0332" lon="5.39991">
        <ele>1163.72</ele>
        <time>2018-11-28T11:54:11Z</time>
      </trkpt>
      <trkpt lat="45.0332" lon="5.39992">
        <ele>1163.49</ele>
        <time>2018-11-28T11:54:48Z</time>
      </trkpt>
      <trkpt lat="45.0332" lon="5.39992">
        <ele>1163.61</ele>
        <time>2018-11-28T11:55:26Z</time>
      </trkpt>
      <trkpt lat="45.0332" lon="5.39992">
        <ele>1163.96</ele>
        <time>2018-11-28T11:56:07Z</time>
      </trkpt>
      <trkpt lat="45.0332" lon="5.39992">
        <ele>1163.77</ele>
        <time>2018-11-28T11:56:47Z</time>
      </trkpt>
      <trkpt lat="45.0332" lon="5.39992">
        <ele>1163.47</ele>
        <time>2018-11-28T11:57:28Z</time>
      </trkpt>
      <trkpt lat="45.0332" lon="5.39993">
        <ele>1163.85</ele>
        <time>2018-11-28T11:58:13Z</time>
      </trkpt>
      <trkpt lat="45.0332" lon="5.39992">
        <ele>1163.78</ele>
        <time>2018-11-28T11:58:55Z</time>
      </trkpt>
      <trkpt lat="45.0332" lon="5.39992">
        <ele>1163.82</ele>
        <time>2018-11-28T11:59:29Z</time>
      </trkpt>
      <trkpt lat="45.03321" lon="5.39991">
        <ele>1163.58</ele>
        <time>2018-11-28T12:00:09Z</time>
      </trkpt>
      <trkpt lat="45.0332" lon="5.39991">
        <ele>1163.5</ele>
        <time>2018-11-28T12:00:43Z</time>
      </trkpt>
      <trkpt lat="45.0332" lon="5.3999">
        <ele>1163.55</ele>
        <time>2018-11-28T12:01:19Z</time>
      </trkpt>
      <trkpt lat="45.03319" lon="5.39991">
        <ele>1163.74</ele>
        <time>2018-11-28T12:01:54Z</time>
      </trkpt>
      <trkpt lat="45.03319" lon="5.3999">
        <ele>1163.56</ele>
        <time>2018-11-28T12:02:32Z</time>
      </trkpt>
      <trkpt lat="45.03321" lon="5.3999">
        <ele>1163.57</ele>
        <time>2018-11-28T12:03:07Z</time>
      </trkpt>
      <trkpt lat="45.0332" lon="5.3999">
        <ele>1163.4</ele>
        <time>2018-11-28T12:03:53Z</time>
      </trkpt>
      <trkpt lat="45.03321" lon="5.39991">
        <ele>1163.29</ele>
        <time>2018-11-28T12:04:33Z</time>
      </trkpt>
      <trkpt lat="45.03321" lon="5.39991">
        <ele>1163.34</ele>
        <time>2018-11-28T12:05:12Z</time>
      </trkpt>
      <trkpt lat="45.03321" lon="5.39991">
        <ele>1163.4</ele>
        <time>2018-11-28T12:05:57Z</time>
      </trkpt>
      <trkpt lat="45.03321" lon="5.39991">
        <ele>1163.81</ele>
        <time>2018-11-28T12:06:39Z</time>
      </trkpt>
      <trkpt lat="45.03321" lon="5.39991">
        <ele>1163.53</ele>
        <time>2018-11-28T12:07:21Z</time>
      </trkpt>
      <trkpt lat="45.03322" lon="5.39991">
        <ele>1163.69</ele>
        <time>2018-11-28T12:08:03Z</time>
      </trkpt>
      <trkpt lat="45.03322" lon="5.39991">
        <ele>1163.79</ele>
        <time>2018-11-28T12:08:45Z</time>
      </trkpt>
      <trkpt lat="45.03321" lon="5.39991">
        <ele>1163.74</ele>
        <time>2018-11-28T12:09:27Z</time>
      </trkpt>
      <trkpt lat="45.03321" lon="5.39991">
        <ele>1163.97</ele>
        <time>2018-11-28T12:10:13Z</time>
      </trkpt>
      <trkpt lat="45.03321" lon="5.39992">
        <ele>1163.8</ele>
        <time>2018-11-28T12:10:54Z</time>
      </trkpt>
      <trkpt lat="45.03321" lon="5.39992">
        <ele>1163.73</ele>
        <time>2018-11-28T12:11:44Z</time>
      </trkpt>
      <trkpt lat="45.03321" lon="5.39992">
        <ele>1163.94</ele>
        <time>2018-11-28T12:12:18Z</time>
      </trkpt>
      <trkpt lat="45.03322" lon="5.39992">
        <ele>1164.03</ele>
        <time>2018-11-28T12:13:04Z</time>
      </trkpt>
      <trkpt lat="45.03321" lon="5.39991">
        <ele>1163.84</ele>
        <time>2018-11-28T12:13:44Z</time>
      </trkpt>
      <trkpt lat="45.03321" lon="5.3999">
        <ele>1163.94</ele>
        <time>2018-11-28T12:14:25Z</time>
      </trkpt>
      <trkpt lat="45.03322" lon="5.39991">
        <ele>1163.96</ele>
        <time>2018-11-28T12:15:03Z</time>
      </trkpt>
      <trkpt lat="45.03323" lon="5.39991">
        <ele>1164.23</ele>
        <time>2018-11-28T12:15:50Z</time>
      </trkpt>
      <trkpt lat="45.03322" lon="5.39991">
        <ele>1164.43</ele>
        <time>2018-11-28T12:16:33Z</time>
      </trkpt>
      <trkpt lat="45.03321" lon="5.39991">
        <ele>1164.61</ele>
        <time>2018-11-28T12:16:57Z</time>
      </trkpt>
      <trkpt lat="45.0332" lon="5.39991">
        <ele>1164.49</ele>
        <time>2018-11-28T12:17:20Z</time>
      </trkpt>
      <trkpt lat="45.03319" lon="5.39992">
        <ele>1164.67</ele>
        <time>2018-11-28T12:17:48Z</time>
      </trkpt>
      <trkpt lat="45.03319" lon="5.39991">
        <ele>1164.89</ele>
        <time>2018-11-28T12:18:12Z</time>
      </trkpt>
      <trkpt lat="45.03319" lon="5.3999">
        <ele>1164.59</ele>
        <time>2018-11-28T12:18:50Z</time>
      </trkpt>
      <trkpt lat="45.03319" lon="5.39991">
        <ele>1164.94</ele>
        <time>2018-11-28T12:19:25Z</time>
      </trkpt>
      <trkpt lat="45.03318" lon="5.3999">
        <ele>1165.15</ele>
        <time>2018-11-28T12:20:00Z</time>
      </trkpt>
      <trkpt lat="45.03318" lon="5.3999">
        <ele>1165.1</ele>
        <time>2018-11-28T12:20:30Z</time>
      </trkpt>
      <trkpt lat="45.03317" lon="5.39989">
        <ele>1165.2</ele>
        <time>2018-11-28T12:21:06Z</time>
      </trkpt>
      <trkpt lat="45.03317" lon="5.39988">
        <ele>1165.57</ele>
        <time>2018-11-28T12:21:37Z</time>
      </trkpt>
      <trkpt lat="45.03317" lon="5.39988">
        <ele>1165.51</ele>
        <time>2018-11-28T12:22:08Z</time>
      </trkpt>
      <trkpt lat="45.03318" lon="5.39989">
        <ele>1166.28</ele>
        <time>2018-11-28T12:22:33Z</time>
      </trkpt>
      <trkpt lat="45.0332" lon="5.3999">
        <ele>1166.49</ele>
        <time>2018-11-28T12:22:46Z</time>
      </trkpt>
      <trkpt lat="45.0332" lon="5.3999">
        <ele>1166.52</ele>
        <time>2018-11-28T12:23:06Z</time>
      </trkpt>
      <trkpt lat="45.0332" lon="5.39991">
        <ele>1166.47</ele>
        <time>2018-11-28T12:23:31Z</time>
      </trkpt>
      <trkpt lat="45.03321" lon="5.3999">
        <ele>1166.44</ele>
        <time>2018-11-28T12:23:52Z</time>
      </trkpt>
      <trkpt lat="45.0332" lon="5.39989">
        <ele>1166.53</ele>
        <time>2018-11-28T12:24:09Z</time>
      </trkpt>
      <trkpt lat="45.0332" lon="5.39989">
        <ele>1166.49</ele>
        <time>2018-11-28T12:24:36Z</time>
      </trkpt>
      <trkpt lat="45.0332" lon="5.39991">
        <ele>1166.44</ele>
        <time>2018-11-28T12:24:56Z</time>
      </trkpt>
      <trkpt lat="45.0332" lon="5.40001">
        <ele>1163.95</ele>
        <time>2018-11-28T12:25:05Z</time>
      </trkpt>
      <trkpt lat="45.03321" lon="5.40003">
        <ele>1164.13</ele>
        <time>2018-11-28T12:25:19Z</time>
      </trkpt>
      <trkpt lat="45.03319" lon="5.4">
        <ele>1163.93</ele>
        <time>2018-11-28T12:25:35Z</time>
      </trkpt>
      <trkpt lat="45.03319" lon="5.39998">
        <ele>1163.65</ele>
        <time>2018-11-28T12:25:55Z</time>
      </trkpt>
      <trkpt lat="45.0332" lon="5.39999">
        <ele>1163.76</ele>
        <time>2018-11-28T12:26:14Z</time>
      </trkpt>
      <trkpt lat="45.03322" lon="5.39998">
        <ele>1163.76</ele>
        <time>2018-11-28T12:26:28Z</time>
      </trkpt>
      <trkpt lat="45.03326" lon="5.39999">
        <ele>1162.2</ele>
        <time>2018-11-28T12:26:45Z</time>
      </trkpt>
      <trkpt lat="45.03331" lon="5.39997">
        <ele>1160.34</ele>
        <time>2018-11-28T12:26:59Z</time>
      </trkpt>
      <trkpt lat="45.03333" lon="5.39995">
        <ele>1159.68</ele>
        <time>2018-11-28T12:27:01Z</time>
      </trkpt>
      <trkpt lat="45.03337" lon="5.39994">
        <ele>1158.8</ele>
        <time>2018-11-28T12:27:05Z</time>
      </trkpt>
      <trkpt lat="45.03349" lon="5.39988">
        <ele>1155.4</ele>
        <time>2018-11-28T12:27:17Z</time>
      </trkpt>
      <trkpt lat="45.03357" lon="5.39979">
        <ele>1153.27</ele>
        <time>2018-11-28T12:27:27Z</time>
      </trkpt>
      <trkpt lat="45.0336" lon="5.39977">
        <ele>1153.12</ele>
        <time>2018-11-28T12:27:38Z</time>
      </trkpt>
      <trkpt lat="45.03361" lon="5.39978">
        <ele>1153.06</ele>
        <time>2018-11-28T12:27:51Z</time>
      </trkpt>
      <trkpt lat="45.0336" lon="5.39979">
        <ele>1152.95</ele>
        <time>2018-11-28T12:28:11Z</time>
      </trkpt>
      <trkpt lat="45.03362" lon="5.3998">
        <ele>1152.95</ele>
        <time>2018-11-28T12:28:35Z</time>
      </trkpt>
      <trkpt lat="45.0337" lon="5.39977">
        <ele>1151.26</ele>
        <time>2018-11-28T12:28:48Z</time>
      </trkpt>
      <trkpt lat="45.03375" lon="5.39976">
        <ele>1149.87</ele>
        <time>2018-11-28T12:28:53Z</time>
      </trkpt>
      <trkpt lat="45.03383" lon="5.39971">
        <ele>1147.61</ele>
        <time>2018-11-28T12:29:03Z</time>
      </trkpt>
      <trkpt lat="45.03384" lon="5.3997">
        <ele>1147.73</ele>
        <time>2018-11-28T12:29:07Z</time>
      </trkpt>
      <trkpt lat="45.03386" lon="5.39967">
        <ele>1146.5</ele>
        <time>2018-11-28T12:29:10Z</time>
      </trkpt>
      <trkpt lat="45.03389" lon="5.39964">
        <ele>1145.72</ele>
        <time>2018-11-28T12:29:15Z</time>
      </trkpt>
      <trkpt lat="45.03396" lon="5.39954">
        <ele>1143.19</ele>
        <time>2018-11-28T12:29:28Z</time>
      </trkpt>
      <trkpt lat="45.034" lon="5.39949">
        <ele>1142.63</ele>
        <time>2018-11-28T12:29:33Z</time>
      </trkpt>
      <trkpt lat="45.03405" lon="5.39946">
        <ele>1141.26</ele>
        <time>2018-11-28T12:29:39Z</time>
      </trkpt>
      <trkpt lat="45.03416" lon="5.39939">
        <ele>1139.13</ele>
        <time>2018-11-28T12:29:51Z</time>
      </trkpt>
      <trkpt lat="45.03424" lon="5.3993">
        <ele>1135.97</ele>
        <time>2018-11-28T12:30:02Z</time>
      </trkpt>
      <trkpt lat="45.03428" lon="5.39926">
        <ele>1134.51</ele>
        <time>2018-11-28T12:30:08Z</time>
      </trkpt>
      <trkpt lat="45.03439" lon="5.39918">
        <ele>1131.59</ele>
        <time>2018-11-28T12:30:21Z</time>
      </trkpt>
      <trkpt lat="45.0344" lon="5.39918">
        <ele>1131.53</ele>
        <time>2018-11-28T12:30:22Z</time>
      </trkpt>
      <trkpt lat="45.03445" lon="5.39918">
        <ele>1130.56</ele>
        <time>2018-11-28T12:30:27Z</time>
      </trkpt>
      <trkpt lat="45.03453" lon="5.3991">
        <ele>1129.07</ele>
        <time>2018-11-28T12:30:38Z</time>
      </trkpt>
      <trkpt lat="45.03448" lon="5.39911">
        <ele>1127.96</ele>
        <time>2018-11-28T12:30:56Z</time>
      </trkpt>
      <trkpt lat="45.03439" lon="5.39916">
        <ele>1125.57</ele>
        <time>2018-11-28T12:31:07Z</time>
      </trkpt>
      <trkpt lat="45.03436" lon="5.39917">
        <ele>1125.23</ele>
        <time>2018-11-28T12:31:11Z</time>
      </trkpt>
      <trkpt lat="45.03434" lon="5.39917">
        <ele>1124.79</ele>
        <time>2018-11-28T12:31:13Z</time>
      </trkpt>
      <trkpt lat="45.03424" lon="5.3992">
        <ele>1122.74</ele>
        <time>2018-11-28T12:31:22Z</time>
      </trkpt>
      <trkpt lat="45.03413" lon="5.39921">
        <ele>1119.56</ele>
        <time>2018-11-28T12:31:31Z</time>
      </trkpt>
      <trkpt lat="45.03402" lon="5.39921">
        <ele>1116.39</ele>
        <time>2018-11-28T12:31:42Z</time>
      </trkpt>
      <trkpt lat="45.03395" lon="5.39923">
        <ele>1113.97</ele>
        <time>2018-11-28T12:31:54Z</time>
      </trkpt>
      <trkpt lat="45.03393" lon="5.39921">
        <ele>1113.29</ele>
        <time>2018-11-28T12:32:07Z</time>
      </trkpt>
      <trkpt lat="45.03387" lon="5.39922">
        <ele>1112.24</ele>
        <time>2018-11-28T12:32:13Z</time>
      </trkpt>
      <trkpt lat="45.03377" lon="5.39923">
        <ele>1109.61</ele>
        <time>2018-11-28T12:32:24Z</time>
      </trkpt>
      <trkpt lat="45.03367" lon="5.39927">
        <ele>1107.21</ele>
        <time>2018-11-28T12:32:35Z</time>
      </trkpt>
      <trkpt lat="45.03357" lon="5.39931">
        <ele>1104.37</ele>
        <time>2018-11-28T12:32:47Z</time>
      </trkpt>
      <trkpt lat="45.03351" lon="5.39932">
        <ele>1103.35</ele>
        <time>2018-11-28T12:33:00Z</time>
      </trkpt>
      <trkpt lat="45.03349" lon="5.39934">
        <ele>1102.67</ele>
        <time>2018-11-28T12:33:03Z</time>
      </trkpt>
      <trkpt lat="45.0334" lon="5.39933">
        <ele>1100.13</ele>
        <time>2018-11-28T12:33:13Z</time>
      </trkpt>
      <trkpt lat="45.03345" lon="5.39928">
        <ele>1099.08</ele>
        <time>2018-11-28T12:33:18Z</time>
      </trkpt>
      <trkpt lat="45.03351" lon="5.39921">
        <ele>1096.8</ele>
        <time>2018-11-28T12:33:26Z</time>
      </trkpt>
      <trkpt lat="45.03359" lon="5.39907">
        <ele>1093.78</ele>
        <time>2018-11-28T12:33:37Z</time>
      </trkpt>
      <trkpt lat="45.03365" lon="5.399">
        <ele>1092.51</ele>
        <time>2018-11-28T12:33:45Z</time>
      </trkpt>
      <trkpt lat="45.03376" lon="5.39891">
        <ele>1090.56</ele>
        <time>2018-11-28T12:33:58Z</time>
      </trkpt>
      <trkpt lat="45.03387" lon="5.39888">
        <ele>1089.27</ele>
        <time>2018-11-28T12:34:09Z</time>
      </trkpt>
      <trkpt lat="45.03396" lon="5.39884">
        <ele>1088.42</ele>
        <time>2018-11-28T12:34:19Z</time>
      </trkpt>
      <trkpt lat="45.03403" lon="5.39879">
        <ele>1088.13</ele>
        <time>2018-11-28T12:34:27Z</time>
      </trkpt>
      <trkpt lat="45.03407" lon="5.39874">
        <ele>1087.62</ele>
        <time>2018-11-28T12:34:31Z</time>
      </trkpt>
      <trkpt lat="45.03412" lon="5.39869">
        <ele>1086.76</ele>
        <time>2018-11-28T12:34:37Z</time>
      </trkpt>
      <trkpt lat="45.03422" lon="5.39863">
        <ele>1085.28</ele>
        <time>2018-11-28T12:34:47Z</time>
      </trkpt>
      <trkpt lat="45.03425" lon="5.39858">
        <ele>1085.05</ele>
        <time>2018-11-28T12:34:51Z</time>
      </trkpt>
      <trkpt lat="45.03429" lon="5.39856">
        <ele>1084.55</ele>
        <time>2018-11-28T12:34:54Z</time>
      </trkpt>
      <trkpt lat="45.03437" lon="5.39851">
        <ele>1082.71</ele>
        <time>2018-11-28T12:35:03Z</time>
      </trkpt>
      <trkpt lat="45.0344" lon="5.39848">
        <ele>1082.08</ele>
        <time>2018-11-28T12:35:06Z</time>
      </trkpt>
      <trkpt lat="45.03449" lon="5.39839">
        <ele>1079.65</ele>
        <time>2018-11-28T12:35:19Z</time>
      </trkpt>
      <trkpt lat="45.03458" lon="5.39836">
        <ele>1077.57</ele>
        <time>2018-11-28T12:35:30Z</time>
      </trkpt>
      <trkpt lat="45.03459" lon="5.39837">
        <ele>1077.35</ele>
        <time>2018-11-28T12:35:31Z</time>
      </trkpt>
      <trkpt lat="45.0347" lon="5.39841">
        <ele>1075.06</ele>
        <time>2018-11-28T12:35:43Z</time>
      </trkpt>
      <trkpt lat="45.03481" lon="5.39841">
        <ele>1071.67</ele>
        <time>2018-11-28T12:35:54Z</time>
      </trkpt>
      <trkpt lat="45.03494" lon="5.39839">
        <ele>1069.71</ele>
        <time>2018-11-28T12:36:06Z</time>
      </trkpt>
      <trkpt lat="45.03504" lon="5.39836">
        <ele>1068.81</ele>
        <time>2018-11-28T12:36:15Z</time>
      </trkpt>
      <trkpt lat="45.03508" lon="5.39835">
        <ele>1068.58</ele>
        <time>2018-11-28T12:36:18Z</time>
      </trkpt>
      <trkpt lat="45.03517" lon="5.39835">
        <ele>1067.92</ele>
        <time>2018-11-28T12:36:28Z</time>
      </trkpt>
      <trkpt lat="45.03522" lon="5.39832">
        <ele>1066.48</ele>
        <time>2018-11-28T12:36:38Z</time>
      </trkpt>
      <trkpt lat="45.03532" lon="5.39832">
        <ele>1066.51</ele>
        <time>2018-11-28T12:36:47Z</time>
      </trkpt>
      <trkpt lat="45.03541" lon="5.39827">
        <ele>1064.68</ele>
        <time>2018-11-28T12:36:57Z</time>
      </trkpt>
      <trkpt lat="45.03548" lon="5.3982">
        <ele>1061.7</ele>
        <time>2018-11-28T12:37:12Z</time>
      </trkpt>
      <trkpt lat="45.03548" lon="5.3982">
        <ele>1061.5</ele>
        <time>2018-11-28T12:37:28Z</time>
      </trkpt>
      <trkpt lat="45.03551" lon="5.39822">
        <ele>1061.12</ele>
        <time>2018-11-28T12:37:56Z</time>
      </trkpt>
      <trkpt lat="45.03551" lon="5.39818">
        <ele>1060.88</ele>
        <time>2018-11-28T12:38:10Z</time>
      </trkpt>
      <trkpt lat="45.03552" lon="5.39815">
        <ele>1060.32</ele>
        <time>2018-11-28T12:38:20Z</time>
      </trkpt>
      <trkpt lat="45.03559" lon="5.39811">
        <ele>1059.92</ele>
        <time>2018-11-28T12:38:29Z</time>
      </trkpt>
      <trkpt lat="45.03563" lon="5.39807">
        <ele>1057.82</ele>
        <time>2018-11-28T12:38:36Z</time>
      </trkpt>
      <trkpt lat="45.03571" lon="5.39803">
        <ele>1056.54</ele>
        <time>2018-11-28T12:38:45Z</time>
      </trkpt>
      <trkpt lat="45.03578" lon="5.39797">
        <ele>1054.85</ele>
        <time>2018-11-28T12:38:59Z</time>
      </trkpt>
      <trkpt lat="45.03584" lon="5.39793">
        <ele>1054.47</ele>
        <time>2018-11-28T12:39:10Z</time>
      </trkpt>
      <trkpt lat="45.03587" lon="5.39794">
        <ele>1054.59</ele>
        <time>2018-11-28T12:39:30Z</time>
      </trkpt>
      <trkpt lat="45.03596" lon="5.39789">
        <ele>1054.26</ele>
        <time>2018-11-28T12:39:43Z</time>
      </trkpt>
      <trkpt lat="45.036" lon="5.39789">
        <ele>1054.51</ele>
        <time>2018-11-28T12:39:58Z</time>
      </trkpt>
      <trkpt lat="45.03605" lon="5.39788">
        <ele>1053.17</ele>
        <time>2018-11-28T12:40:16Z</time>
      </trkpt>
      <trkpt lat="45.03612" lon="5.39782">
        <ele>1052.45</ele>
        <time>2018-11-28T12:40:27Z</time>
      </trkpt>
      <trkpt lat="45.03618" lon="5.39775">
        <ele>1051.29</ele>
        <time>2018-11-28T12:40:43Z</time>
      </trkpt>
      <trkpt lat="45.03621" lon="5.39773">
        <ele>1050.37</ele>
        <time>2018-11-28T12:40:45Z</time>
      </trkpt>
      <trkpt lat="45.03623" lon="5.39772">
        <ele>1050.13</ele>
        <time>2018-11-28T12:40:54Z</time>
      </trkpt>
      <trkpt lat="45.03626" lon="5.39771">
        <ele>1050.06</ele>
        <time>2018-11-28T12:41:12Z</time>
      </trkpt>
      <trkpt lat="45.03634" lon="5.39772">
        <ele>1049.12</ele>
        <time>2018-11-28T12:41:31Z</time>
      </trkpt>
      <trkpt lat="45.0364" lon="5.39773">
        <ele>1047.44</ele>
        <time>2018-11-28T12:41:48Z</time>
      </trkpt>
      <trkpt lat="45.03644" lon="5.39767">
        <ele>1045.99</ele>
        <time>2018-11-28T12:42:04Z</time>
      </trkpt>
      <trkpt lat="45.03652" lon="5.39763">
        <ele>1044.53</ele>
        <time>2018-11-28T12:42:16Z</time>
      </trkpt>
      <trkpt lat="45.03659" lon="5.39759">
        <ele>1044.43</ele>
        <time>2018-11-28T12:42:30Z</time>
      </trkpt>
      <trkpt lat="45.03663" lon="5.39756">
        <ele>1043.55</ele>
        <time>2018-11-28T12:42:35Z</time>
      </trkpt>
      <trkpt lat="45.03666" lon="5.39754">
        <ele>1042.54</ele>
        <time>2018-11-28T12:42:38Z</time>
      </trkpt>
      <trkpt lat="45.03675" lon="5.3975">
        <ele>1041.8</ele>
        <time>2018-11-28T12:42:49Z</time>
      </trkpt>
      <trkpt lat="45.03682" lon="5.39744">
        <ele>1040.05</ele>
        <time>2018-11-28T12:43:01Z</time>
      </trkpt>
      <trkpt lat="45.03686" lon="5.39736">
        <ele>1038.4</ele>
        <time>2018-11-28T12:43:14Z</time>
      </trkpt>
      <trkpt lat="45.0369" lon="5.39731">
        <ele>1036.1</ele>
        <time>2018-11-28T12:43:25Z</time>
      </trkpt>
      <trkpt lat="45.03689" lon="5.39728">
        <ele>1035.35</ele>
        <time>2018-11-28T12:43:38Z</time>
      </trkpt>
      <trkpt lat="45.0369" lon="5.39735">
        <ele>1035.5</ele>
        <time>2018-11-28T12:43:59Z</time>
      </trkpt>
      <trkpt lat="45.03691" lon="5.39736">
        <ele>1035.45</ele>
        <time>2018-11-28T12:44:01Z</time>
      </trkpt>
      <trkpt lat="45.0369" lon="5.39742">
        <ele>1034.55</ele>
        <time>2018-11-28T12:44:29Z</time>
      </trkpt>
      <trkpt lat="45.03682" lon="5.39743">
        <ele>1032.68</ele>
        <time>2018-11-28T12:44:42Z</time>
      </trkpt>
      <trkpt lat="45.03678" lon="5.39743">
        <ele>1030.91</ele>
        <time>2018-11-28T12:44:54Z</time>
      </trkpt>
      <trkpt lat="45.03681" lon="5.39736">
        <ele>1029.04</ele>
        <time>2018-11-28T12:45:11Z</time>
      </trkpt>
      <trkpt lat="45.03686" lon="5.39724">
        <ele>1026.05</ele>
        <time>2018-11-28T12:45:24Z</time>
      </trkpt>
      <trkpt lat="45.03689" lon="5.39716">
        <ele>1024.48</ele>
        <time>2018-11-28T12:45:33Z</time>
      </trkpt>
      <trkpt lat="45.03696" lon="5.39705">
        <ele>1022.86</ele>
        <time>2018-11-28T12:45:42Z</time>
      </trkpt>
      <trkpt lat="45.03702" lon="5.39698">
        <ele>1021.4</ele>
        <time>2018-11-28T12:45:50Z</time>
      </trkpt>
      <trkpt lat="45.03708" lon="5.3969">
        <ele>1019.6</ele>
        <time>2018-11-28T12:46:02Z</time>
      </trkpt>
      <trkpt lat="45.03713" lon="5.39685">
        <ele>1017.33</ele>
        <time>2018-11-28T12:46:21Z</time>
      </trkpt>
      <trkpt lat="45.03714" lon="5.39682">
        <ele>1015.69</ele>
        <time>2018-11-28T12:46:44Z</time>
      </trkpt>
      <trkpt lat="45.03718" lon="5.39677">
        <ele>1014.05</ele>
        <time>2018-11-28T12:46:57Z</time>
      </trkpt>
      <trkpt lat="45.03708" lon="5.39677">
        <ele>1011.62</ele>
        <time>2018-11-28T12:47:12Z</time>
      </trkpt>
      <trkpt lat="45.03701" lon="5.39679">
        <ele>1008.82</ele>
        <time>2018-11-28T12:47:24Z</time>
      </trkpt>
      <trkpt lat="45.03704" lon="5.39677">
        <ele>1008.37</ele>
        <time>2018-11-28T12:47:27Z</time>
      </trkpt>
      <trkpt lat="45.03707" lon="5.39674">
        <ele>1007.54</ele>
        <time>2018-11-28T12:47:31Z</time>
      </trkpt>
      <trkpt lat="45.03712" lon="5.3967">
        <ele>1006.79</ele>
        <time>2018-11-28T12:47:37Z</time>
      </trkpt>
      <trkpt lat="45.03718" lon="5.39662">
        <ele>1005.63</ele>
        <time>2018-11-28T12:47:47Z</time>
      </trkpt>
      <trkpt lat="45.0372" lon="5.3966">
        <ele>1005.55</ele>
        <time>2018-11-28T12:47:49Z</time>
      </trkpt>
      <trkpt lat="45.03729" lon="5.3965">
        <ele>1002.53</ele>
        <time>2018-11-28T12:48:02Z</time>
      </trkpt>
      <trkpt lat="45.03731" lon="5.39647">
        <ele>1001.62</ele>
        <time>2018-11-28T12:48:16Z</time>
      </trkpt>
      <trkpt lat="45.03737" lon="5.39643">
        <ele>999.33</ele>
        <time>2018-11-28T12:48:38Z</time>
      </trkpt>
      <trkpt lat="45.03744" lon="5.39634">
        <ele>996.16</ele>
        <time>2018-11-28T12:48:53Z</time>
      </trkpt>
      <trkpt lat="45.0375" lon="5.39624">
        <ele>993.77</ele>
        <time>2018-11-28T12:49:06Z</time>
      </trkpt>
      <trkpt lat="45.03757" lon="5.39618">
        <ele>992.21</ele>
        <time>2018-11-28T12:49:14Z</time>
      </trkpt>
      <trkpt lat="45.03763" lon="5.3961">
        <ele>990.54</ele>
        <time>2018-11-28T12:49:22Z</time>
      </trkpt>
      <trkpt lat="45.03766" lon="5.39607">
        <ele>989.89</ele>
        <time>2018-11-28T12:49:25Z</time>
      </trkpt>
      <trkpt lat="45.03773" lon="5.39601">
        <ele>988.28</ele>
        <time>2018-11-28T12:49:32Z</time>
      </trkpt>
      <trkpt lat="45.03776" lon="5.39595">
        <ele>987.31</ele>
        <time>2018-11-28T12:49:37Z</time>
      </trkpt>
      <trkpt lat="45.03787" lon="5.39579">
        <ele>984.68</ele>
        <time>2018-11-28T12:49:49Z</time>
      </trkpt>
      <trkpt lat="45.03795" lon="5.39566">
        <ele>981.9</ele>
        <time>2018-11-28T12:50:00Z</time>
      </trkpt>
      <trkpt lat="45.03803" lon="5.39557">
        <ele>979.27</ele>
        <time>2018-11-28T12:50:12Z</time>
      </trkpt>
      <trkpt lat="45.03806" lon="5.3955">
        <ele>978.02</ele>
        <time>2018-11-28T12:50:26Z</time>
      </trkpt>
      <trkpt lat="45.03808" lon="5.39546">
        <ele>977.01</ele>
        <time>2018-11-28T12:50:40Z</time>
      </trkpt>
      <trkpt lat="45.03809" lon="5.39545">
        <ele>977.06</ele>
        <time>2018-11-28T12:51:01Z</time>
      </trkpt>
      <trkpt lat="45.03817" lon="5.39536">
        <ele>973.83</ele>
        <time>2018-11-28T12:51:12Z</time>
      </trkpt>
      <trkpt lat="45.03821" lon="5.39533">
        <ele>972.72</ele>
        <time>2018-11-28T12:51:23Z</time>
      </trkpt>
      <trkpt lat="45.0383" lon="5.39523">
        <ele>969.42</ele>
        <time>2018-11-28T12:51:34Z</time>
      </trkpt>
      <trkpt lat="45.03834" lon="5.39518">
        <ele>967.74</ele>
        <time>2018-11-28T12:51:39Z</time>
      </trkpt>
      <trkpt lat="45.03838" lon="5.39514">
        <ele>966.56</ele>
        <time>2018-11-28T12:51:43Z</time>
      </trkpt>
      <trkpt lat="45.03846" lon="5.39502">
        <ele>963.45</ele>
        <time>2018-11-28T12:51:53Z</time>
      </trkpt>
      <trkpt lat="45.03848" lon="5.39499">
        <ele>962.17</ele>
        <time>2018-11-28T12:51:56Z</time>
      </trkpt>
      <trkpt lat="45.03851" lon="5.39495">
        <ele>961.18</ele>
        <time>2018-11-28T12:52:00Z</time>
      </trkpt>
      <trkpt lat="45.03857" lon="5.39492">
        <ele>959.47</ele>
        <time>2018-11-28T12:52:05Z</time>
      </trkpt>
      <trkpt lat="45.03862" lon="5.39484">
        <ele>958.27</ele>
        <time>2018-11-28T12:52:10Z</time>
      </trkpt>
      <trkpt lat="45.03866" lon="5.3948">
        <ele>956.99</ele>
        <time>2018-11-28T12:52:14Z</time>
      </trkpt>
      <trkpt lat="45.03874" lon="5.3947">
        <ele>954.29</ele>
        <time>2018-11-28T12:52:23Z</time>
      </trkpt>
      <trkpt lat="45.03878" lon="5.39466">
        <ele>952.94</ele>
        <time>2018-11-28T12:52:26Z</time>
      </trkpt>
      <trkpt lat="45.0388" lon="5.39461">
        <ele>952.17</ele>
        <time>2018-11-28T12:52:29Z</time>
      </trkpt>
      <trkpt lat="45.03888" lon="5.39451">
        <ele>949.16</ele>
        <time>2018-11-28T12:52:38Z</time>
      </trkpt>
      <trkpt lat="45.03894" lon="5.39441">
        <ele>947.5</ele>
        <time>2018-11-28T12:52:49Z</time>
      </trkpt>
      <trkpt lat="45.03902" lon="5.39432">
        <ele>944.5</ele>
        <time>2018-11-28T12:53:00Z</time>
      </trkpt>
      <trkpt lat="45.03905" lon="5.39424">
        <ele>941.88</ele>
        <time>2018-11-28T12:53:12Z</time>
      </trkpt>
      <trkpt lat="45.03907" lon="5.39411">
        <ele>938.84</ele>
        <time>2018-11-28T12:53:26Z</time>
      </trkpt>
      <trkpt lat="45.0391" lon="5.39402">
        <ele>936.71</ele>
        <time>2018-11-28T12:53:40Z</time>
      </trkpt>
      <trkpt lat="45.03914" lon="5.39392">
        <ele>933.67</ele>
        <time>2018-11-28T12:53:51Z</time>
      </trkpt>
      <trkpt lat="45.03919" lon="5.39382">
        <ele>930.59</ele>
        <time>2018-11-28T12:54:02Z</time>
      </trkpt>
      <trkpt lat="45.03927" lon="5.39372">
        <ele>927.95</ele>
        <time>2018-11-28T12:54:18Z</time>
      </trkpt>
      <trkpt lat="45.03933" lon="5.39364">
        <ele>924.88</ele>
        <time>2018-11-28T12:54:33Z</time>
      </trkpt>
      <trkpt lat="45.03938" lon="5.39358">
        <ele>922.58</ele>
        <time>2018-11-28T12:54:44Z</time>
      </trkpt>
      <trkpt lat="45.03942" lon="5.39347">
        <ele>919.42</ele>
        <time>2018-11-28T12:54:56Z</time>
      </trkpt>
      <trkpt lat="45.0395" lon="5.39336">
        <ele>916.98</ele>
        <time>2018-11-28T12:55:10Z</time>
      </trkpt>
      <trkpt lat="45.03958" lon="5.39325">
        <ele>914.03</ele>
        <time>2018-11-28T12:55:24Z</time>
      </trkpt>
      <trkpt lat="45.03967" lon="5.39315">
        <ele>911.35</ele>
        <time>2018-11-28T12:55:38Z</time>
      </trkpt>
      <trkpt lat="45.03968" lon="5.39312">
        <ele>911.15</ele>
        <time>2018-11-28T12:55:40Z</time>
      </trkpt>
      <trkpt lat="45.03971" lon="5.39304">
        <ele>909.26</ele>
        <time>2018-11-28T12:55:47Z</time>
      </trkpt>
      <trkpt lat="45.03978" lon="5.39295">
        <ele>906.91</ele>
        <time>2018-11-28T12:55:59Z</time>
      </trkpt>
      <trkpt lat="45.03984" lon="5.39283">
        <ele>904.97</ele>
        <time>2018-11-28T12:56:12Z</time>
      </trkpt>
      <trkpt lat="45.03993" lon="5.39275">
        <ele>901.73</ele>
        <time>2018-11-28T12:56:26Z</time>
      </trkpt>
      <trkpt lat="45.03994" lon="5.39264">
        <ele>899.59</ele>
        <time>2018-11-28T12:56:40Z</time>
      </trkpt>
      <trkpt lat="45.03996" lon="5.39257">
        <ele>897.81</ele>
        <time>2018-11-28T12:56:50Z</time>
      </trkpt>
      <trkpt lat="45.03997" lon="5.39242">
        <ele>895.52</ele>
        <time>2018-11-28T12:57:05Z</time>
      </trkpt>
      <trkpt lat="45.03998" lon="5.39232">
        <ele>893.08</ele>
        <time>2018-11-28T12:57:18Z</time>
      </trkpt>
      <trkpt lat="45.04007" lon="5.39226">
        <ele>890.24</ele>
        <time>2018-11-28T12:57:32Z</time>
      </trkpt>
      <trkpt lat="45.04017" lon="5.39216">
        <ele>887.66</ele>
        <time>2018-11-28T12:57:45Z</time>
      </trkpt>
      <trkpt lat="45.04026" lon="5.39214">
        <ele>887.09</ele>
        <time>2018-11-28T12:57:58Z</time>
      </trkpt>
      <trkpt lat="45.04031" lon="5.39211">
        <ele>886.54</ele>
        <time>2018-11-28T12:58:10Z</time>
      </trkpt>
      <trkpt lat="45.04039" lon="5.39207">
        <ele>884.54</ele>
        <time>2018-11-28T12:58:23Z</time>
      </trkpt>
      <trkpt lat="45.04044" lon="5.39202">
        <ele>882.85</ele>
        <time>2018-11-28T12:58:32Z</time>
      </trkpt>
      <trkpt lat="45.04048" lon="5.39195">
        <ele>879.93</ele>
        <time>2018-11-28T12:58:46Z</time>
      </trkpt>
      <trkpt lat="45.04054" lon="5.39187">
        <ele>877</ele>
        <time>2018-11-28T12:59:02Z</time>
      </trkpt>
      <trkpt lat="45.04062" lon="5.39183">
        <ele>875.46</ele>
        <time>2018-11-28T12:59:16Z</time>
      </trkpt>
      <trkpt lat="45.04071" lon="5.39174">
        <ele>875.98</ele>
        <time>2018-11-28T12:59:29Z</time>
      </trkpt>
      <trkpt lat="45.0408" lon="5.39163">
        <ele>875.75</ele>
        <time>2018-11-28T12:59:42Z</time>
      </trkpt>
      <trkpt lat="45.04091" lon="5.39158">
        <ele>876.33</ele>
        <time>2018-11-28T12:59:57Z</time>
      </trkpt>
      <trkpt lat="45.041" lon="5.39155">
        <ele>878.57</ele>
        <time>2018-11-28T13:00:11Z</time>
      </trkpt>
      <trkpt lat="45.04107" lon="5.39151">
        <ele>879.56</ele>
        <time>2018-11-28T13:00:24Z</time>
      </trkpt>
      <trkpt lat="45.04117" lon="5.39152">
        <ele>879.72</ele>
        <time>2018-11-28T13:00:38Z</time>
      </trkpt>
      <trkpt lat="45.04127" lon="5.39152">
        <ele>877.51</ele>
        <time>2018-11-28T13:00:54Z</time>
      </trkpt>
      <trkpt lat="45.04136" lon="5.39153">
        <ele>876.43</ele>
        <time>2018-11-28T13:01:10Z</time>
      </trkpt>
      <trkpt lat="45.04147" lon="5.39155">
        <ele>873.66</ele>
        <time>2018-11-28T13:01:25Z</time>
      </trkpt>
      <trkpt lat="45.04154" lon="5.39161">
        <ele>871.51</ele>
        <time>2018-11-28T13:01:38Z</time>
      </trkpt>
      <trkpt lat="45.04163" lon="5.39168">
        <ele>870.43</ele>
        <time>2018-11-28T13:01:49Z</time>
      </trkpt>
      <trkpt lat="45.04164" lon="5.39169">
        <ele>870.11</ele>
        <time>2018-11-28T13:01:50Z</time>
      </trkpt>
      <trkpt lat="45.04175" lon="5.3917">
        <ele>867.69</ele>
        <time>2018-11-28T13:02:03Z</time>
      </trkpt>
      <trkpt lat="45.04179" lon="5.39171">
        <ele>867.27</ele>
        <time>2018-11-28T13:02:06Z</time>
      </trkpt>
      <trkpt lat="45.04194" lon="5.3916">
        <ele>865.65</ele>
        <time>2018-11-28T13:02:21Z</time>
      </trkpt>
      <trkpt lat="45.04206" lon="5.3915">
        <ele>864.07</ele>
        <time>2018-11-28T13:02:33Z</time>
      </trkpt>
      <trkpt lat="45.04208" lon="5.39149">
        <ele>863.84</ele>
        <time>2018-11-28T13:02:35Z</time>
      </trkpt>
      <trkpt lat="45.04216" lon="5.39147">
        <ele>863.44</ele>
        <time>2018-11-28T13:02:42Z</time>
      </trkpt>
      <trkpt lat="45.04221" lon="5.39141">
        <ele>862.74</ele>
        <time>2018-11-28T13:02:49Z</time>
      </trkpt>
      <trkpt lat="45.04236" lon="5.39132">
        <ele>861.42</ele>
        <time>2018-11-28T13:03:04Z</time>
      </trkpt>
      <trkpt lat="45.04239" lon="5.39128">
        <ele>861.26</ele>
        <time>2018-11-28T13:03:17Z</time>
      </trkpt>
      <trkpt lat="45.04238" lon="5.39128">
        <ele>860.61</ele>
        <time>2018-11-28T13:03:28Z</time>
      </trkpt>
      <trkpt lat="45.04239" lon="5.39122">
        <ele>860.86</ele>
        <time>2018-11-28T13:03:54Z</time>
      </trkpt>
      <trkpt lat="45.0424" lon="5.39117">
        <ele>861.03</ele>
        <time>2018-11-28T13:04:26Z</time>
      </trkpt>
      <trkpt lat="45.04243" lon="5.39119">
        <ele>861.46</ele>
        <time>2018-11-28T13:04:57Z</time>
      </trkpt>
      <trkpt lat="45.04241" lon="5.3912">
        <ele>861.82</ele>
        <time>2018-11-28T13:05:26Z</time>
      </trkpt>
      <trkpt lat="45.04242" lon="5.39124">
        <ele>861.9</ele>
        <time>2018-11-28T13:05:48Z</time>
      </trkpt>
      <trkpt lat="45.04242" lon="5.39128">
        <ele>862.3</ele>
        <time>2018-11-28T13:06:15Z</time>
      </trkpt>
      <trkpt lat="45.04243" lon="5.39125">
        <ele>862.52</ele>
        <time>2018-11-28T13:06:40Z</time>
      </trkpt>
      <trkpt lat="45.04244" lon="5.39123">
        <ele>862.71</ele>
        <time>2018-11-28T13:07:16Z</time>
      </trkpt>
      <trkpt lat="45.0424" lon="5.39115">
        <ele>863.07</ele>
        <time>2018-11-28T13:07:46Z</time>
      </trkpt>
      <trkpt lat="45.0424" lon="5.39115">
        <ele>863.46</ele>
        <time>2018-11-28T13:08:25Z</time>
      </trkpt>
      <trkpt lat="45.04242" lon="5.39121">
        <ele>863.59</ele>
        <time>2018-11-28T13:09:00Z</time>
      </trkpt>
      <trkpt lat="45.0424" lon="5.39115">
        <ele>863.93</ele>
        <time>2018-11-28T13:09:27Z</time>
      </trkpt>
      <trkpt lat="45.04241" lon="5.39118">
        <ele>864.22</ele>
        <time>2018-11-28T13:09:59Z</time>
      </trkpt>
      <trkpt lat="45.04242" lon="5.39124">
        <ele>865.26</ele>
        <time>2018-11-28T13:10:12Z</time>
      </trkpt>
      <trkpt lat="45.04242" lon="5.3912">
        <ele>866.24</ele>
        <time>2018-11-28T13:10:30Z</time>
      </trkpt>
      <trkpt lat="45.04242" lon="5.39119">
        <ele>866.14</ele>
        <time>2018-11-28T13:10:40Z</time>
      </trkpt>
      <trkpt lat="45.04248" lon="5.3911">
        <ele>865.7</ele>
        <time>2018-11-28T13:10:50Z</time>
      </trkpt>
      <trkpt lat="45.04251" lon="5.39104">
        <ele>865.19</ele>
        <time>2018-11-28T13:10:56Z</time>
      </trkpt>
      <trkpt lat="45.04255" lon="5.39096">
        <ele>863.99</ele>
        <time>2018-11-28T13:11:01Z</time>
      </trkpt>
      <trkpt lat="45.04262" lon="5.39084">
        <ele>862.56</ele>
        <time>2018-11-28T13:11:09Z</time>
      </trkpt>
      <trkpt lat="45.04267" lon="5.39077">
        <ele>862.49</ele>
        <time>2018-11-28T13:11:14Z</time>
      </trkpt>
      <trkpt lat="45.04273" lon="5.39068">
        <ele>862.79</ele>
        <time>2018-11-28T13:11:20Z</time>
      </trkpt>
      <trkpt lat="45.04278" lon="5.3906">
        <ele>863.19</ele>
        <time>2018-11-28T13:11:26Z</time>
      </trkpt>
      <trkpt lat="45.04288" lon="5.39047">
        <ele>863.24</ele>
        <time>2018-11-28T13:11:37Z</time>
      </trkpt>
      <trkpt lat="45.04292" lon="5.39042">
        <ele>863.82</ele>
        <time>2018-11-28T13:11:42Z</time>
      </trkpt>
      <trkpt lat="45.04302" lon="5.39041">
        <ele>862.64</ele>
        <time>2018-11-28T13:11:55Z</time>
      </trkpt>
      <trkpt lat="45.04303" lon="5.39031">
        <ele>861.37</ele>
        <time>2018-11-28T13:12:07Z</time>
      </trkpt>
      <trkpt lat="45.04309" lon="5.39027">
        <ele>859.84</ele>
        <time>2018-11-28T13:12:20Z</time>
      </trkpt>
      <trkpt lat="45.04317" lon="5.39011">
        <ele>858.57</ele>
        <time>2018-11-28T13:12:36Z</time>
      </trkpt>
      <trkpt lat="45.04324" lon="5.38999">
        <ele>858.19</ele>
        <time>2018-11-28T13:12:48Z</time>
      </trkpt>
      <trkpt lat="45.04329" lon="5.38987">
        <ele>857.22</ele>
        <time>2018-11-28T13:12:59Z</time>
      </trkpt>
      <trkpt lat="45.04337" lon="5.38979">
        <ele>855.62</ele>
        <time>2018-11-28T13:13:14Z</time>
      </trkpt>
      <trkpt lat="45.04343" lon="5.38967">
        <ele>853.8</ele>
        <time>2018-11-28T13:13:29Z</time>
      </trkpt>
      <trkpt lat="45.04347" lon="5.38954">
        <ele>851.63</ele>
        <time>2018-11-28T13:13:43Z</time>
      </trkpt>
      <trkpt lat="45.04354" lon="5.38944">
        <ele>850.29</ele>
        <time>2018-11-28T13:13:57Z</time>
      </trkpt>
      <trkpt lat="45.04357" lon="5.3893">
        <ele>848.23</ele>
        <time>2018-11-28T13:14:11Z</time>
      </trkpt>
      <trkpt lat="45.04367" lon="5.38918">
        <ele>847.09</ele>
        <time>2018-11-28T13:14:26Z</time>
      </trkpt>
      <trkpt lat="45.04376" lon="5.38907">
        <ele>847.43</ele>
        <time>2018-11-28T13:14:40Z</time>
      </trkpt>
      <trkpt lat="45.04381" lon="5.38902">
        <ele>847.84</ele>
        <time>2018-11-28T13:14:50Z</time>
      </trkpt>
      <trkpt lat="45.04389" lon="5.38893">
        <ele>846.86</ele>
        <time>2018-11-28T13:15:03Z</time>
      </trkpt>
      <trkpt lat="45.04394" lon="5.38881">
        <ele>844.53</ele>
        <time>2018-11-28T13:15:16Z</time>
      </trkpt>
      <trkpt lat="45.04398" lon="5.38871">
        <ele>843.3</ele>
        <time>2018-11-28T13:15:30Z</time>
      </trkpt>
      <trkpt lat="45.04402" lon="5.38862">
        <ele>841.67</ele>
        <time>2018-11-28T13:15:41Z</time>
      </trkpt>
      <trkpt lat="45.04404" lon="5.38854">
        <ele>840.1</ele>
        <time>2018-11-28T13:15:52Z</time>
      </trkpt>
      <trkpt lat="45.04407" lon="5.38844">
        <ele>838.13</ele>
        <time>2018-11-28T13:16:05Z</time>
      </trkpt>
      <trkpt lat="45.04406" lon="5.38833">
        <ele>836.02</ele>
        <time>2018-11-28T13:16:18Z</time>
      </trkpt>
      <trkpt lat="45.04407" lon="5.38826">
        <ele>834.04</ele>
        <time>2018-11-28T13:16:30Z</time>
      </trkpt>
      <trkpt lat="45.04412" lon="5.38814">
        <ele>831.84</ele>
        <time>2018-11-28T13:16:46Z</time>
      </trkpt>
      <trkpt lat="45.04411" lon="5.38805">
        <ele>828.81</ele>
        <time>2018-11-28T13:16:56Z</time>
      </trkpt>
      <trkpt lat="45.04413" lon="5.38792">
        <ele>825.53</ele>
        <time>2018-11-28T13:17:07Z</time>
      </trkpt>
      <trkpt lat="45.04414" lon="5.38791">
        <ele>825.21</ele>
        <time>2018-11-28T13:17:08Z</time>
      </trkpt>
      <trkpt lat="45.0442" lon="5.38778">
        <ele>822.82</ele>
        <time>2018-11-28T13:17:17Z</time>
      </trkpt>
      <trkpt lat="45.04422" lon="5.38776">
        <ele>822.04</ele>
        <time>2018-11-28T13:17:20Z</time>
      </trkpt>
      <trkpt lat="45.04424" lon="5.38769">
        <ele>820.89</ele>
        <time>2018-11-28T13:17:24Z</time>
      </trkpt>
      <trkpt lat="45.04426" lon="5.38763">
        <ele>819.96</ele>
        <time>2018-11-28T13:17:28Z</time>
      </trkpt>
      <trkpt lat="45.04431" lon="5.38756">
        <ele>818.1</ele>
        <time>2018-11-28T13:17:34Z</time>
      </trkpt>
      <trkpt lat="45.04436" lon="5.38752">
        <ele>816.98</ele>
        <time>2018-11-28T13:17:39Z</time>
      </trkpt>
      <trkpt lat="45.04445" lon="5.38747">
        <ele>815.56</ele>
        <time>2018-11-28T13:17:49Z</time>
      </trkpt>
      <trkpt lat="45.04453" lon="5.38745">
        <ele>813.46</ele>
        <time>2018-11-28T13:17:56Z</time>
      </trkpt>
      <trkpt lat="45.04461" lon="5.38732">
        <ele>811.11</ele>
        <time>2018-11-28T13:18:07Z</time>
      </trkpt>
      <trkpt lat="45.04461" lon="5.38731">
        <ele>810.87</ele>
        <time>2018-11-28T13:18:08Z</time>
      </trkpt>
      <trkpt lat="45.04462" lon="5.38727">
        <ele>810.09</ele>
        <time>2018-11-28T13:18:11Z</time>
      </trkpt>
      <trkpt lat="45.04465" lon="5.38717">
        <ele>807.55</ele>
        <time>2018-11-28T13:18:19Z</time>
      </trkpt>
      <trkpt lat="45.0447" lon="5.38708">
        <ele>805.31</ele>
        <time>2018-11-28T13:18:28Z</time>
      </trkpt>
      <trkpt lat="45.04468" lon="5.38701">
        <ele>803.61</ele>
        <time>2018-11-28T13:18:33Z</time>
      </trkpt>
      <trkpt lat="45.04469" lon="5.38694">
        <ele>802.89</ele>
        <time>2018-11-28T13:18:37Z</time>
      </trkpt>
      <trkpt lat="45.04469" lon="5.38682">
        <ele>802.37</ele>
        <time>2018-11-28T13:18:42Z</time>
      </trkpt>
      <trkpt lat="45.04469" lon="5.38668">
        <ele>800.63</ele>
        <time>2018-11-28T13:18:49Z</time>
      </trkpt>
      <trkpt lat="45.04469" lon="5.38659">
        <ele>799.73</ele>
        <time>2018-11-28T13:18:54Z</time>
      </trkpt>
      <trkpt lat="45.04472" lon="5.38638">
        <ele>797.27</ele>
        <time>2018-11-28T13:19:06Z</time>
      </trkpt>
      <trkpt lat="45.04473" lon="5.38618">
        <ele>794.07</ele>
        <time>2018-11-28T13:19:16Z</time>
      </trkpt>
      <trkpt lat="45.04473" lon="5.38611">
        <ele>793.05</ele>
        <time>2018-11-28T13:19:20Z</time>
      </trkpt>
      <trkpt lat="45.04474" lon="5.386">
        <ele>791.74</ele>
        <time>2018-11-28T13:19:33Z</time>
      </trkpt>
      <trkpt lat="45.04477" lon="5.38597">
        <ele>791.16</ele>
        <time>2018-11-28T13:19:36Z</time>
      </trkpt>
      <trkpt lat="45.04482" lon="5.38584">
        <ele>790.36</ele>
        <time>2018-11-28T13:19:45Z</time>
      </trkpt>
      <trkpt lat="45.04483" lon="5.38577">
        <ele>790.52</ele>
        <time>2018-11-28T13:19:58Z</time>
      </trkpt>
      <trkpt lat="45.04484" lon="5.38576">
        <ele>790.94</ele>
        <time>2018-11-28T13:20:17Z</time>
      </trkpt>
      <trkpt lat="45.04482" lon="5.38577">
        <ele>790.67</ele>
        <time>2018-11-28T13:20:34Z</time>
      </trkpt>
      <trkpt lat="45.04482" lon="5.38577">
        <ele>790.9</ele>
        <time>2018-11-28T13:20:48Z</time>
      </trkpt>
      <trkpt lat="45.04483" lon="5.38577">
        <ele>790.74</ele>
        <time>2018-11-28T13:21:05Z</time>
      </trkpt>
      <trkpt lat="45.04485" lon="5.38576">
        <ele>790.67</ele>
        <time>2018-11-28T13:21:21Z</time>
      </trkpt>
      <trkpt lat="45.04483" lon="5.38574">
        <ele>791.49</ele>
        <time>2018-11-28T13:21:44Z</time>
      </trkpt>
      <trkpt lat="45.04479" lon="5.3857">
        <ele>791.55</ele>
        <time>2018-11-28T13:22:00Z</time>
      </trkpt>
      <trkpt lat="45.04481" lon="5.38573">
        <ele>791.6</ele>
        <time>2018-11-28T13:22:24Z</time>
      </trkpt>
      <trkpt lat="45.04481" lon="5.38574">
        <ele>791.64</ele>
        <time>2018-11-28T13:22:45Z</time>
      </trkpt>
      <trkpt lat="45.0448" lon="5.38577">
        <ele>791.86</ele>
        <time>2018-11-28T13:23:07Z</time>
      </trkpt>
      <trkpt lat="45.04481" lon="5.38577">
        <ele>791.84</ele>
        <time>2018-11-28T13:23:32Z</time>
      </trkpt>
      <trkpt lat="45.04481" lon="5.38577">
        <ele>792.13</ele>
        <time>2018-11-28T13:23:50Z</time>
      </trkpt>
      <trkpt lat="45.04483" lon="5.38579">
        <ele>792.16</ele>
        <time>2018-11-28T13:24:07Z</time>
      </trkpt>
      <trkpt lat="45.04483" lon="5.38578">
        <ele>792.22</ele>
        <time>2018-11-28T13:24:32Z</time>
      </trkpt>
      <trkpt lat="45.04485" lon="5.38568">
        <ele>791.53</ele>
        <time>2018-11-28T13:24:51Z</time>
      </trkpt>
      <trkpt lat="45.04485" lon="5.38566">
        <ele>791.27</ele>
        <time>2018-11-28T13:24:52Z</time>
      </trkpt>
      <trkpt lat="45.04487" lon="5.38558">
        <ele>790.06</ele>
        <time>2018-11-28T13:24:57Z</time>
      </trkpt>
      <trkpt lat="45.04492" lon="5.38539">
        <ele>787.22</ele>
        <time>2018-11-28T13:25:09Z</time>
      </trkpt>
      <trkpt lat="45.04497" lon="5.38524">
        <ele>785.59</ele>
        <time>2018-11-28T13:25:21Z</time>
      </trkpt>
      <trkpt lat="45.04503" lon="5.38514">
        <ele>783.51</ele>
        <time>2018-11-28T13:25:31Z</time>
      </trkpt>
      <trkpt lat="45.04511" lon="5.38503">
        <ele>780.97</ele>
        <time>2018-11-28T13:25:42Z</time>
      </trkpt>
      <trkpt lat="45.04522" lon="5.38489">
        <ele>777.75</ele>
        <time>2018-11-28T13:25:56Z</time>
      </trkpt>
      <trkpt lat="45.04529" lon="5.38475">
        <ele>775.2</ele>
        <time>2018-11-28T13:26:08Z</time>
      </trkpt>
      <trkpt lat="45.04538" lon="5.38461">
        <ele>772.96</ele>
        <time>2018-11-28T13:26:21Z</time>
      </trkpt>
      <trkpt lat="45.04543" lon="5.38452">
        <ele>771.03</ele>
        <time>2018-11-28T13:26:29Z</time>
      </trkpt>
      <trkpt lat="45.04544" lon="5.38451">
        <ele>770.07</ele>
        <time>2018-11-28T13:26:31Z</time>
      </trkpt>
      <trkpt lat="45.04545" lon="5.38448">
        <ele>769.87</ele>
        <time>2018-11-28T13:26:33Z</time>
      </trkpt>
      <trkpt lat="45.04553" lon="5.3844">
        <ele>768.14</ele>
        <time>2018-11-28T13:26:42Z</time>
      </trkpt>
      <trkpt lat="45.04559" lon="5.38429">
        <ele>765.06</ele>
        <time>2018-11-28T13:26:54Z</time>
      </trkpt>
      <trkpt lat="45.04563" lon="5.38421">
        <ele>763.87</ele>
        <time>2018-11-28T13:27:00Z</time>
      </trkpt>
      <trkpt lat="45.04564" lon="5.38417">
        <ele>763.01</ele>
        <time>2018-11-28T13:27:03Z</time>
      </trkpt>
      <trkpt lat="45.04566" lon="5.38414">
        <ele>762.71</ele>
        <time>2018-11-28T13:27:06Z</time>
      </trkpt>
      <trkpt lat="45.04573" lon="5.38393">
        <ele>760.03</ele>
        <time>2018-11-28T13:27:19Z</time>
      </trkpt>
      <trkpt lat="45.04577" lon="5.38372">
        <ele>756.53</ele>
        <time>2018-11-28T13:27:33Z</time>
      </trkpt>
      <trkpt lat="45.04578" lon="5.38371">
        <ele>756.57</ele>
        <time>2018-11-28T13:27:34Z</time>
      </trkpt>
      <trkpt lat="45.04583" lon="5.38355">
        <ele>754.51</ele>
        <time>2018-11-28T13:27:45Z</time>
      </trkpt>
      <trkpt lat="45.04589" lon="5.38341">
        <ele>752.57</ele>
        <time>2018-11-28T13:27:55Z</time>
      </trkpt>
      <trkpt lat="45.04596" lon="5.38328">
        <ele>750.52</ele>
        <time>2018-11-28T13:28:06Z</time>
      </trkpt>
      <trkpt lat="45.04606" lon="5.38312">
        <ele>748.43</ele>
        <time>2018-11-28T13:28:18Z</time>
      </trkpt>
      <trkpt lat="45.0461" lon="5.38298">
        <ele>747.18</ele>
        <time>2018-11-28T13:28:27Z</time>
      </trkpt>
      <trkpt lat="45.04616" lon="5.38285">
        <ele>746.63</ele>
        <time>2018-11-28T13:28:36Z</time>
      </trkpt>
      <trkpt lat="45.04619" lon="5.3828">
        <ele>745.79</ele>
        <time>2018-11-28T13:28:40Z</time>
      </trkpt>
      <trkpt lat="45.04629" lon="5.38267">
        <ele>743.27</ele>
        <time>2018-11-28T13:28:51Z</time>
      </trkpt>
      <trkpt lat="45.04631" lon="5.38266">
        <ele>742.83</ele>
        <time>2018-11-28T13:28:53Z</time>
      </trkpt>
      <trkpt lat="45.04637" lon="5.38263">
        <ele>741.22</ele>
        <time>2018-11-28T13:28:59Z</time>
      </trkpt>
      <trkpt lat="45.04645" lon="5.3826">
        <ele>739.15</ele>
        <time>2018-11-28T13:29:08Z</time>
      </trkpt>
      <trkpt lat="45.04656" lon="5.38255">
        <ele>736.52</ele>
        <time>2018-11-28T13:29:18Z</time>
      </trkpt>
      <trkpt lat="45.0466" lon="5.38255">
        <ele>735.98</ele>
        <time>2018-11-28T13:29:21Z</time>
      </trkpt>
      <trkpt lat="45.04663" lon="5.38251">
        <ele>735.66</ele>
        <time>2018-11-28T13:29:25Z</time>
      </trkpt>
      <trkpt lat="45.04667" lon="5.38249">
        <ele>735.19</ele>
        <time>2018-11-28T13:29:28Z</time>
      </trkpt>
      <trkpt lat="45.04676" lon="5.3824">
        <ele>734.01</ele>
        <time>2018-11-28T13:29:37Z</time>
      </trkpt>
      <trkpt lat="45.04683" lon="5.3823">
        <ele>732.33</ele>
        <time>2018-11-28T13:29:46Z</time>
      </trkpt>
      <trkpt lat="45.04684" lon="5.38228">
        <ele>731.97</ele>
        <time>2018-11-28T13:29:48Z</time>
      </trkpt>
      <trkpt lat="45.04687" lon="5.38223">
        <ele>730.85</ele>
        <time>2018-11-28T13:29:52Z</time>
      </trkpt>
      <trkpt lat="45.0469" lon="5.38216">
        <ele>729.39</ele>
        <time>2018-11-28T13:29:57Z</time>
      </trkpt>
      <trkpt lat="45.04692" lon="5.38212">
        <ele>728.63</ele>
        <time>2018-11-28T13:30:01Z</time>
      </trkpt>
      <trkpt lat="45.04694" lon="5.38206">
        <ele>727.79</ele>
        <time>2018-11-28T13:30:05Z</time>
      </trkpt>
      <trkpt lat="45.04698" lon="5.3819">
        <ele>724.9</ele>
        <time>2018-11-28T13:30:15Z</time>
      </trkpt>
      <trkpt lat="45.04703" lon="5.38171">
        <ele>721.95</ele>
        <time>2018-11-28T13:30:27Z</time>
      </trkpt>
      <trkpt lat="45.04706" lon="5.38163">
        <ele>720.97</ele>
        <time>2018-11-28T13:30:33Z</time>
      </trkpt>
      <trkpt lat="45.04709" lon="5.38157">
        <ele>719.75</ele>
        <time>2018-11-28T13:30:37Z</time>
      </trkpt>
      <trkpt lat="45.04713" lon="5.38141">
        <ele>716.45</ele>
        <time>2018-11-28T13:30:48Z</time>
      </trkpt>
      <trkpt lat="45.04717" lon="5.3813">
        <ele>714.02</ele>
        <time>2018-11-28T13:30:58Z</time>
      </trkpt>
      <trkpt lat="45.04719" lon="5.38116">
        <ele>710.66</ele>
        <time>2018-11-28T13:31:08Z</time>
      </trkpt>
      <trkpt lat="45.04721" lon="5.38101">
        <ele>707.72</ele>
        <time>2018-11-28T13:31:20Z</time>
      </trkpt>
      <trkpt lat="45.04724" lon="5.38092">
        <ele>705.8</ele>
        <time>2018-11-28T13:31:27Z</time>
      </trkpt>
      <trkpt lat="45.04728" lon="5.38079">
        <ele>702.77</ele>
        <time>2018-11-28T13:31:38Z</time>
      </trkpt>
      <trkpt lat="45.04731" lon="5.38072">
        <ele>700.62</ele>
        <time>2018-11-28T13:31:46Z</time>
      </trkpt>
      <trkpt lat="45.04739" lon="5.38059">
        <ele>697.55</ele>
        <time>2018-11-28T13:31:58Z</time>
      </trkpt>
      <trkpt lat="45.0474" lon="5.38056">
        <ele>696.97</ele>
        <time>2018-11-28T13:32:00Z</time>
      </trkpt>
      <trkpt lat="45.04741" lon="5.38048">
        <ele>695.9</ele>
        <time>2018-11-28T13:32:05Z</time>
      </trkpt>
      <trkpt lat="45.0475" lon="5.38035">
        <ele>692.28</ele>
        <time>2018-11-28T13:32:18Z</time>
      </trkpt>
      <trkpt lat="45.04757" lon="5.3802">
        <ele>688.98</ele>
        <time>2018-11-28T13:32:32Z</time>
      </trkpt>
      <trkpt lat="45.04757" lon="5.38017">
        <ele>688.68</ele>
        <time>2018-11-28T13:32:34Z</time>
      </trkpt>
      <trkpt lat="45.04763" lon="5.38009">
        <ele>686.31</ele>
        <time>2018-11-28T13:32:43Z</time>
      </trkpt>
      <trkpt lat="45.0477" lon="5.37999">
        <ele>683.81</ele>
        <time>2018-11-28T13:32:53Z</time>
      </trkpt>
      <trkpt lat="45.04777" lon="5.37982">
        <ele>680.77</ele>
        <time>2018-11-28T13:33:06Z</time>
      </trkpt>
      <trkpt lat="45.04783" lon="5.37964">
        <ele>677.77</ele>
        <time>2018-11-28T13:33:17Z</time>
      </trkpt>
      <trkpt lat="45.0479" lon="5.37947">
        <ele>675.44</ele>
        <time>2018-11-28T13:33:28Z</time>
      </trkpt>
      <trkpt lat="45.04796" lon="5.37932">
        <ele>672.32</ele>
        <time>2018-11-28T13:33:40Z</time>
      </trkpt>
      <trkpt lat="45.04802" lon="5.3792">
        <ele>669.71</ele>
        <time>2018-11-28T13:33:50Z</time>
      </trkpt>
      <trkpt lat="45.04803" lon="5.37919">
        <ele>669.7</ele>
        <time>2018-11-28T13:33:51Z</time>
      </trkpt>
      <trkpt lat="45.04807" lon="5.3791">
        <ele>667.94</ele>
        <time>2018-11-28T13:33:58Z</time>
      </trkpt>
      <trkpt lat="45.04814" lon="5.37894">
        <ele>664.68</ele>
        <time>2018-11-28T13:34:10Z</time>
      </trkpt>
      <trkpt lat="45.0482" lon="5.37881">
        <ele>662.07</ele>
        <time>2018-11-28T13:34:20Z</time>
      </trkpt>
      <trkpt lat="45.04822" lon="5.37879">
        <ele>661.53</ele>
        <time>2018-11-28T13:34:23Z</time>
      </trkpt>
      <trkpt lat="45.0483" lon="5.37866">
        <ele>659.33</ele>
        <time>2018-11-28T13:34:34Z</time>
      </trkpt>
      <trkpt lat="45.04837" lon="5.37853">
        <ele>656.96</ele>
        <time>2018-11-28T13:34:44Z</time>
      </trkpt>
      <trkpt lat="45.04839" lon="5.37847">
        <ele>655.95</ele>
        <time>2018-11-28T13:34:48Z</time>
      </trkpt>
      <trkpt lat="45.04841" lon="5.37842">
        <ele>655.19</ele>
        <time>2018-11-28T13:34:52Z</time>
      </trkpt>
      <trkpt lat="45.04845" lon="5.37835">
        <ele>653.52</ele>
        <time>2018-11-28T13:34:57Z</time>
      </trkpt>
      <trkpt lat="45.04852" lon="5.37818">
        <ele>651.48</ele>
        <time>2018-11-28T13:35:09Z</time>
      </trkpt>
      <trkpt lat="45.04852" lon="5.37817">
        <ele>651.11</ele>
        <time>2018-11-28T13:35:10Z</time>
      </trkpt>
      <trkpt lat="45.04859" lon="5.37799">
        <ele>648.3</ele>
        <time>2018-11-28T13:35:21Z</time>
      </trkpt>
      <trkpt lat="45.04865" lon="5.37779">
        <ele>645.8</ele>
        <time>2018-11-28T13:35:33Z</time>
      </trkpt>
      <trkpt lat="45.0487" lon="5.37767">
        <ele>644.09</ele>
        <time>2018-11-28T13:35:41Z</time>
      </trkpt>
      <trkpt lat="45.04875" lon="5.37753">
        <ele>643.09</ele>
        <time>2018-11-28T13:35:48Z</time>
      </trkpt>
      <trkpt lat="45.04875" lon="5.37731">
        <ele>640.46</ele>
        <time>2018-11-28T13:35:59Z</time>
      </trkpt>
      <trkpt lat="45.04875" lon="5.37712">
        <ele>639.03</ele>
        <time>2018-11-28T13:36:10Z</time>
      </trkpt>
      <trkpt lat="45.04876" lon="5.37691">
        <ele>637.1</ele>
        <time>2018-11-28T13:36:22Z</time>
      </trkpt>
      <trkpt lat="45.04877" lon="5.3767">
        <ele>634.46</ele>
        <time>2018-11-28T13:36:33Z</time>
      </trkpt>
      <trkpt lat="45.0488" lon="5.37646">
        <ele>632.1</ele>
        <time>2018-11-28T13:36:45Z</time>
      </trkpt>
      <trkpt lat="45.04883" lon="5.37632">
        <ele>630.7</ele>
        <time>2018-11-28T13:36:53Z</time>
      </trkpt>
      <trkpt lat="45.04884" lon="5.37624">
        <ele>629.68</ele>
        <time>2018-11-28T13:36:58Z</time>
      </trkpt>
      <trkpt lat="45.04892" lon="5.37604">
        <ele>627.1</ele>
        <time>2018-11-28T13:37:10Z</time>
      </trkpt>
      <trkpt lat="45.04895" lon="5.37592">
        <ele>626.11</ele>
        <time>2018-11-28T13:37:17Z</time>
      </trkpt>
      <trkpt lat="45.04906" lon="5.37574">
        <ele>623.65</ele>
        <time>2018-11-28T13:37:30Z</time>
      </trkpt>
      <trkpt lat="45.04914" lon="5.37554">
        <ele>621.66</ele>
        <time>2018-11-28T13:37:42Z</time>
      </trkpt>
      <trkpt lat="45.04917" lon="5.37549">
        <ele>621.23</ele>
        <time>2018-11-28T13:37:46Z</time>
      </trkpt>
      <trkpt lat="45.04923" lon="5.37542">
        <ele>619.88</ele>
        <time>2018-11-28T13:37:53Z</time>
      </trkpt>
      <trkpt lat="45.04939" lon="5.37536">
        <ele>617.21</ele>
        <time>2018-11-28T13:38:06Z</time>
      </trkpt>
      <trkpt lat="45.04953" lon="5.37529">
        <ele>615.4</ele>
        <time>2018-11-28T13:38:18Z</time>
      </trkpt>
      <trkpt lat="45.04961" lon="5.37525">
        <ele>614.29</ele>
        <time>2018-11-28T13:38:24Z</time>
      </trkpt>
      <trkpt lat="45.04971" lon="5.37509">
        <ele>612.86</ele>
        <time>2018-11-28T13:38:35Z</time>
      </trkpt>
      <trkpt lat="45.04981" lon="5.37493">
        <ele>611.18</ele>
        <time>2018-11-28T13:38:47Z</time>
      </trkpt>
      <trkpt lat="45.04983" lon="5.3749">
        <ele>610.91</ele>
        <time>2018-11-28T13:38:49Z</time>
      </trkpt>
      <trkpt lat="45.04989" lon="5.3748">
        <ele>609.56</ele>
        <time>2018-11-28T13:38:56Z</time>
      </trkpt>
      <trkpt lat="45.04999" lon="5.37463">
        <ele>607.94</ele>
        <time>2018-11-28T13:39:07Z</time>
      </trkpt>
      <trkpt lat="45.05" lon="5.37461">
        <ele>607.71</ele>
        <time>2018-11-28T13:39:08Z</time>
      </trkpt>
      <trkpt lat="45.05015" lon="5.37441">
        <ele>605.49</ele>
        <time>2018-11-28T13:39:24Z</time>
      </trkpt>
      <trkpt lat="45.05031" lon="5.37437">
        <ele>603.95</ele>
        <time>2018-11-28T13:39:37Z</time>
      </trkpt>
      <trkpt lat="45.05039" lon="5.3744">
        <ele>603.58</ele>
        <time>2018-11-28T13:39:43Z</time>
      </trkpt>
      <trkpt lat="45.05049" lon="5.37449">
        <ele>603.37</ele>
        <time>2018-11-28T13:39:53Z</time>
      </trkpt>
      <trkpt lat="45.05052" lon="5.37457">
        <ele>601.16</ele>
        <time>2018-11-28T13:40:00Z</time>
      </trkpt>
      <trkpt lat="45.05061" lon="5.37468">
        <ele>599.56</ele>
        <time>2018-11-28T13:40:11Z</time>
      </trkpt>
      <trkpt lat="45.05063" lon="5.37469">
        <ele>599.85</ele>
        <time>2018-11-28T13:40:13Z</time>
      </trkpt>
      <trkpt lat="45.05068" lon="5.37472">
        <ele>599.33</ele>
        <time>2018-11-28T13:40:16Z</time>
      </trkpt>
      <trkpt lat="45.05079" lon="5.37475">
        <ele>598.98</ele>
        <time>2018-11-28T13:40:23Z</time>
      </trkpt>
      <trkpt lat="45.0509" lon="5.37475">
        <ele>598.6</ele>
        <time>2018-11-28T13:40:35Z</time>
      </trkpt>
      <trkpt lat="45.05108" lon="5.37477">
        <ele>598.54</ele>
        <time>2018-11-28T13:40:51Z</time>
      </trkpt>
      <trkpt lat="45.05112" lon="5.37477">
        <ele>598.2</ele>
        <time>2018-11-28T13:40:53Z</time>
      </trkpt>
      <trkpt lat="45.05121" lon="5.37476">
        <ele>597.45</ele>
        <time>2018-11-28T13:40:58Z</time>
      </trkpt>
      <trkpt lat="45.05136" lon="5.37472">
        <ele>595.36</ele>
        <time>2018-11-28T13:41:10Z</time>
      </trkpt>
      <trkpt lat="45.05138" lon="5.37472">
        <ele>595.13</ele>
        <time>2018-11-28T13:41:12Z</time>
      </trkpt>
      <trkpt lat="45.05147" lon="5.37466">
        <ele>594.05</ele>
        <time>2018-11-28T13:41:20Z</time>
      </trkpt>
      <trkpt lat="45.05154" lon="5.37458">
        <ele>593.03</ele>
        <time>2018-11-28T13:41:27Z</time>
      </trkpt>
      <trkpt lat="45.0516" lon="5.37456">
        <ele>592.53</ele>
        <time>2018-11-28T13:41:31Z</time>
      </trkpt>
      <trkpt lat="45.05176" lon="5.37447">
        <ele>590.76</ele>
        <time>2018-11-28T13:41:43Z</time>
      </trkpt>
      <trkpt lat="45.05187" lon="5.3743">
        <ele>588.64</ele>
        <time>2018-11-28T13:41:55Z</time>
      </trkpt>
      <trkpt lat="45.05195" lon="5.37408">
        <ele>588.26</ele>
        <time>2018-11-28T13:42:07Z</time>
      </trkpt>
      <trkpt lat="45.05202" lon="5.37386">
        <ele>586.47</ele>
        <time>2018-11-28T13:42:20Z</time>
      </trkpt>
      <trkpt lat="45.05207" lon="5.37366">
        <ele>585.63</ele>
        <time>2018-11-28T13:42:31Z</time>
      </trkpt>
      <trkpt lat="45.0521" lon="5.37344">
        <ele>584.23</ele>
        <time>2018-11-28T13:42:43Z</time>
      </trkpt>
      <trkpt lat="45.05217" lon="5.37314">
        <ele>583.43</ele>
        <time>2018-11-28T13:42:58Z</time>
      </trkpt>
      <trkpt lat="45.05221" lon="5.37291">
        <ele>582.96</ele>
        <time>2018-11-28T13:43:11Z</time>
      </trkpt>
      <trkpt lat="45.05227" lon="5.37267">
        <ele>582.38</ele>
        <time>2018-11-28T13:43:25Z</time>
      </trkpt>
      <trkpt lat="45.05236" lon="5.37244">
        <ele>579.91</ele>
        <time>2018-11-28T13:43:39Z</time>
      </trkpt>
      <trkpt lat="45.05248" lon="5.37219">
        <ele>577.86</ele>
        <time>2018-11-28T13:43:55Z</time>
      </trkpt>
      <trkpt lat="45.05258" lon="5.37201">
        <ele>575.71</ele>
        <time>2018-11-28T13:44:08Z</time>
      </trkpt>
      <trkpt lat="45.05269" lon="5.37181">
        <ele>574.44</ele>
        <time>2018-11-28T13:44:22Z</time>
      </trkpt>
      <trkpt lat="45.05271" lon="5.37177">
        <ele>573.7</ele>
        <time>2018-11-28T13:44:25Z</time>
      </trkpt>
      <trkpt lat="45.05278" lon="5.37158">
        <ele>571.61</ele>
        <time>2018-11-28T13:44:37Z</time>
      </trkpt>
      <trkpt lat="45.05279" lon="5.37154">
        <ele>571.34</ele>
        <time>2018-11-28T13:44:39Z</time>
      </trkpt>
      <trkpt lat="45.05284" lon="5.37136">
        <ele>570.18</ele>
        <time>2018-11-28T13:44:50Z</time>
      </trkpt>
      <trkpt lat="45.05288" lon="5.3712">
        <ele>569.05</ele>
        <time>2018-11-28T13:45:02Z</time>
      </trkpt>
      <trkpt lat="45.05287" lon="5.37117">
        <ele>569.11</ele>
        <time>2018-11-28T13:45:04Z</time>
      </trkpt>
      <trkpt lat="45.05288" lon="5.37114">
        <ele>568.65</ele>
        <time>2018-11-28T13:45:07Z</time>
      </trkpt>
      <trkpt lat="45.05289" lon="5.37104">
        <ele>568.04</ele>
        <time>2018-11-28T13:45:13Z</time>
      </trkpt>
      <trkpt lat="45.05289" lon="5.3709">
        <ele>566.95</ele>
        <time>2018-11-28T13:45:21Z</time>
      </trkpt>
      <trkpt lat="45.05288" lon="5.37072">
        <ele>565.7</ele>
        <time>2018-11-28T13:45:31Z</time>
      </trkpt>
      <trkpt lat="45.05286" lon="5.37047">
        <ele>564.3</ele>
        <time>2018-11-28T13:45:45Z</time>
      </trkpt>
      <trkpt lat="45.05283" lon="5.37021">
        <ele>562.34</ele>
        <time>2018-11-28T13:45:59Z</time>
      </trkpt>
      <trkpt lat="45.05277" lon="5.36998">
        <ele>559.53</ele>
        <time>2018-11-28T13:46:12Z</time>
      </trkpt>
      <trkpt lat="45.05274" lon="5.36976">
        <ele>557.61</ele>
        <time>2018-11-28T13:46:25Z</time>
      </trkpt>
      <trkpt lat="45.05272" lon="5.36954">
        <ele>556.54</ele>
        <time>2018-11-28T13:46:38Z</time>
      </trkpt>
      <trkpt lat="45.05271" lon="5.36936">
        <ele>554.58</ele>
        <time>2018-11-28T13:46:50Z</time>
      </trkpt>
      <trkpt lat="45.05266" lon="5.36932">
        <ele>554.18</ele>
        <time>2018-11-28T13:46:55Z</time>
      </trkpt>
      <trkpt lat="45.05271" lon="5.36909">
        <ele>551.21</ele>
        <time>2018-11-28T13:47:09Z</time>
      </trkpt>
      <trkpt lat="45.05279" lon="5.36886">
        <ele>548.54</ele>
        <time>2018-11-28T13:47:24Z</time>
      </trkpt>
      <trkpt lat="45.05291" lon="5.36866">
        <ele>545.9</ele>
        <time>2018-11-28T13:47:39Z</time>
      </trkpt>
      <trkpt lat="45.05298" lon="5.36854">
        <ele>544.07</ele>
        <time>2018-11-28T13:47:48Z</time>
      </trkpt>
      <trkpt lat="45.05309" lon="5.36834">
        <ele>541.68</ele>
        <time>2018-11-28T13:48:03Z</time>
      </trkpt>
      <trkpt lat="45.0532" lon="5.36809">
        <ele>539.52</ele>
        <time>2018-11-28T13:48:19Z</time>
      </trkpt>
      <trkpt lat="45.05325" lon="5.36783">
        <ele>538.48</ele>
        <time>2018-11-28T13:48:35Z</time>
      </trkpt>
      <trkpt lat="45.05327" lon="5.36773">
        <ele>537.51</ele>
        <time>2018-11-28T13:48:43Z</time>
      </trkpt>
      <trkpt lat="45.0533" lon="5.36761">
        <ele>537.16</ele>
        <time>2018-11-28T13:48:54Z</time>
      </trkpt>
      <trkpt lat="45.0533" lon="5.36762">
        <ele>535.98</ele>
        <time>2018-11-28T13:49:06Z</time>
      </trkpt>
      <trkpt lat="45.0533" lon="5.36762">
        <ele>536.14</ele>
        <time>2018-11-28T13:49:23Z</time>
      </trkpt>
      <trkpt lat="45.0533" lon="5.36761">
        <ele>535.88</ele>
        <time>2018-11-28T13:49:54Z</time>
      </trkpt>
      <trkpt lat="45.05329" lon="5.36764">
        <ele>535.99</ele>
        <time>2018-11-28T13:50:34Z</time>
      </trkpt>
      <trkpt lat="45.05329" lon="5.36762">
        <ele>536.38</ele>
        <time>2018-11-28T13:51:11Z</time>
      </trkpt>
      <trkpt lat="45.05329" lon="5.36761">
        <ele>536.21</ele>
        <time>2018-11-28T13:51:38Z</time>
      </trkpt>
      <trkpt lat="45.05329" lon="5.36762">
        <ele>536.1</ele>
        <time>2018-11-28T13:51:58Z</time>
      </trkpt>
      <trkpt lat="45.05327" lon="5.3676">
        <ele>536.1</ele>
        <time>2018-11-28T13:52:17Z</time>
      </trkpt>
      <trkpt lat="45.05327" lon="5.36762">
        <ele>536.09</ele>
        <time>2018-11-28T13:53:09Z</time>
      </trkpt>
      <trkpt lat="45.05328" lon="5.36764">
        <ele>535.77</ele>
        <time>2018-11-28T13:53:52Z</time>
      </trkpt>
      <trkpt lat="45.05328" lon="5.36764">
        <ele>535.81</ele>
        <time>2018-11-28T13:54:22Z</time>
      </trkpt>
      <trkpt lat="45.05328" lon="5.36765">
        <ele>535.52</ele>
        <time>2018-11-28T13:54:40Z</time>
      </trkpt>
      <trkpt lat="45.05329" lon="5.36766">
        <ele>535.17</ele>
        <time>2018-11-28T13:55:05Z</time>
      </trkpt>
      <trkpt lat="45.0533" lon="5.36764">
        <ele>534.97</ele>
        <time>2018-11-28T13:55:42Z</time>
      </trkpt>
      <trkpt lat="45.05329" lon="5.36763">
        <ele>534.13</ele>
        <time>2018-11-28T13:56:42Z</time>
      </trkpt>
      <trkpt lat="45.05328" lon="5.36764">
        <ele>534.04</ele>
        <time>2018-11-28T13:57:43Z</time>
      </trkpt>
      <trkpt lat="45.05329" lon="5.36764">
        <ele>533.76</ele>
        <time>2018-11-28T13:58:42Z</time>
      </trkpt>
      <trkpt lat="45.05328" lon="5.36766">
        <ele>534.15</ele>
        <time>2018-11-28T13:59:10Z</time>
      </trkpt>
      <trkpt lat="45.05332" lon="5.36762">
        <ele>533.55</ele>
        <time>2018-11-28T13:59:24Z</time>
      </trkpt>
      <trkpt lat="45.05334" lon="5.36751">
        <ele>532.68</ele>
        <time>2018-11-28T13:59:33Z</time>
      </trkpt>
      <trkpt lat="45.05337" lon="5.36733">
        <ele>531.78</ele>
        <time>2018-11-28T13:59:45Z</time>
      </trkpt>
      <trkpt lat="45.0534" lon="5.36713">
        <ele>532.56</ele>
        <time>2018-11-28T13:59:58Z</time>
      </trkpt>
      <trkpt lat="45.0534" lon="5.36707">
        <ele>532.7</ele>
        <time>2018-11-28T14:00:01Z</time>
      </trkpt>
      <trkpt lat="45.05337" lon="5.36685">
        <ele>532.89</ele>
        <time>2018-11-28T14:00:14Z</time>
      </trkpt>
      <trkpt lat="45.05336" lon="5.36673">
        <ele>532.79</ele>
        <time>2018-11-28T14:00:21Z</time>
      </trkpt>
      <trkpt lat="45.05334" lon="5.36665">
        <ele>533.29</ele>
        <time>2018-11-28T14:00:26Z</time>
      </trkpt>
      <trkpt lat="45.05329" lon="5.36653">
        <ele>533.97</ele>
        <time>2018-11-28T14:00:34Z</time>
      </trkpt>
      <trkpt lat="45.05324" lon="5.36642">
        <ele>534.51</ele>
        <time>2018-11-28T14:00:44Z</time>
      </trkpt>
      <trkpt lat="45.05322" lon="5.36638">
        <ele>534.67</ele>
        <time>2018-11-28T14:00:52Z</time>
      </trkpt>
      <trkpt lat="45.05314" lon="5.36629">
        <ele>535.09</ele>
        <time>2018-11-28T14:01:00Z</time>
      </trkpt>
      <trkpt lat="45.0531" lon="5.36621">
        <ele>535.24</ele>
        <time>2018-11-28T14:01:06Z</time>
      </trkpt>
      <trkpt lat="45.05308" lon="5.366">
        <ele>535.45</ele>
        <time>2018-11-28T14:01:18Z</time>
      </trkpt>
      <trkpt lat="45.05312" lon="5.36584">
        <ele>535.32</ele>
        <time>2018-11-28T14:01:29Z</time>
      </trkpt>
      <trkpt lat="45.05318" lon="5.36565">
        <ele>534.4</ele>
        <time>2018-11-28T14:01:42Z</time>
      </trkpt>
      <trkpt lat="45.05324" lon="5.36553">
        <ele>534.16</ele>
        <time>2018-11-28T14:01:51Z</time>
      </trkpt>
      <trkpt lat="45.05331" lon="5.36534">
        <ele>533.73</ele>
        <time>2018-11-28T14:02:03Z</time>
      </trkpt>
      <trkpt lat="45.05341" lon="5.36521">
        <ele>533.28</ele>
        <time>2018-11-28T14:02:15Z</time>
      </trkpt>
      <trkpt lat="45.05349" lon="5.36509">
        <ele>533.09</ele>
        <time>2018-11-28T14:02:26Z</time>
      </trkpt>
      <trkpt lat="45.05352" lon="5.36506">
        <ele>532.91</ele>
        <time>2018-11-28T14:02:29Z</time>
      </trkpt>
      <trkpt lat="45.05353" lon="5.36504">
        <ele>532.8</ele>
        <time>2018-11-28T14:02:31Z</time>
      </trkpt>
      <trkpt lat="45.05357" lon="5.36498">
        <ele>532.86</ele>
        <time>2018-11-28T14:02:36Z</time>
      </trkpt>
      <trkpt lat="45.05359" lon="5.36496">
        <ele>532.8</ele>
        <time>2018-11-28T14:02:38Z</time>
      </trkpt>
      <trkpt lat="45.05368" lon="5.36488">
        <ele>532.48</ele>
        <time>2018-11-28T14:02:47Z</time>
      </trkpt>
      <trkpt lat="45.05378" lon="5.3648">
        <ele>532.52</ele>
        <time>2018-11-28T14:02:56Z</time>
      </trkpt>
      <trkpt lat="45.05392" lon="5.36475">
        <ele>531.91</ele>
        <time>2018-11-28T14:03:07Z</time>
      </trkpt>
      <trkpt lat="45.05403" lon="5.36465">
        <ele>530.89</ele>
        <time>2018-11-28T14:03:17Z</time>
      </trkpt>
      <trkpt lat="45.05405" lon="5.36463">
        <ele>530.87</ele>
        <time>2018-11-28T14:03:19Z</time>
      </trkpt>
      <trkpt lat="45.05414" lon="5.36448">
        <ele>529.24</ele>
        <time>2018-11-28T14:03:30Z</time>
      </trkpt>
      <trkpt lat="45.05425" lon="5.36439">
        <ele>528.22</ele>
        <time>2018-11-28T14:03:39Z</time>
      </trkpt>
      <trkpt lat="45.05435" lon="5.36427">
        <ele>527.11</ele>
        <time>2018-11-28T14:03:50Z</time>
      </trkpt>
      <trkpt lat="45.05437" lon="5.36426">
        <ele>527.14</ele>
        <time>2018-11-28T14:03:51Z</time>
      </trkpt>
      <trkpt lat="45.05441" lon="5.36421">
        <ele>526.48</ele>
        <time>2018-11-28T14:03:55Z</time>
      </trkpt>
      <trkpt lat="45.05448" lon="5.36417">
        <ele>525.88</ele>
        <time>2018-11-28T14:04:00Z</time>
      </trkpt>
      <trkpt lat="45.05453" lon="5.36415">
        <ele>525.37</ele>
        <time>2018-11-28T14:04:04Z</time>
      </trkpt>
      <trkpt lat="45.05457" lon="5.36415">
        <ele>524.75</ele>
        <time>2018-11-28T14:04:07Z</time>
      </trkpt>
      <trkpt lat="45.05459" lon="5.36412">
        <ele>524.15</ele>
        <time>2018-11-28T14:04:09Z</time>
      </trkpt>
      <trkpt lat="45.05463" lon="5.36409">
        <ele>523.43</ele>
        <time>2018-11-28T14:04:13Z</time>
      </trkpt>
      <trkpt lat="45.05474" lon="5.36406">
        <ele>521.44</ele>
        <time>2018-11-28T14:04:23Z</time>
      </trkpt>
      <trkpt lat="45.05486" lon="5.36403">
        <ele>519.07</ele>
        <time>2018-11-28T14:04:32Z</time>
      </trkpt>
      <trkpt lat="45.05494" lon="5.36402">
        <ele>517.72</ele>
        <time>2018-11-28T14:04:38Z</time>
      </trkpt>
      <trkpt lat="45.05506" lon="5.36402">
        <ele>515.55</ele>
        <time>2018-11-28T14:04:47Z</time>
      </trkpt>
      <trkpt lat="45.05513" lon="5.364">
        <ele>514.79</ele>
        <time>2018-11-28T14:04:51Z</time>
      </trkpt>
      <trkpt lat="45.0552" lon="5.364">
        <ele>513.21</ele>
        <time>2018-11-28T14:04:56Z</time>
      </trkpt>
      <trkpt lat="45.05529" lon="5.36398">
        <ele>511.6</ele>
        <time>2018-11-28T14:05:02Z</time>
      </trkpt>
      <trkpt lat="45.05541" lon="5.36394">
        <ele>509.3</ele>
        <time>2018-11-28T14:05:12Z</time>
      </trkpt>
      <trkpt lat="45.05549" lon="5.36392">
        <ele>507.44</ele>
        <time>2018-11-28T14:05:19Z</time>
      </trkpt>
      <trkpt lat="45.05551" lon="5.36394">
        <ele>507.24</ele>
        <time>2018-11-28T14:05:21Z</time>
      </trkpt>
      <trkpt lat="45.05557" lon="5.36398">
        <ele>505.43</ele>
        <time>2018-11-28T14:05:28Z</time>
      </trkpt>
      <trkpt lat="45.05565" lon="5.36402">
        <ele>503.07</ele>
        <time>2018-11-28T14:05:35Z</time>
      </trkpt>
      <trkpt lat="45.05577" lon="5.36402">
        <ele>500.77</ele>
        <time>2018-11-28T14:05:44Z</time>
      </trkpt>
      <trkpt lat="45.05587" lon="5.36396">
        <ele>498.93</ele>
        <time>2018-11-28T14:05:54Z</time>
      </trkpt>
      <trkpt lat="45.0559" lon="5.36394">
        <ele>497.96</ele>
        <time>2018-11-28T14:05:58Z</time>
      </trkpt>
      <trkpt lat="45.05595" lon="5.36392">
        <ele>497.45</ele>
        <time>2018-11-28T14:06:02Z</time>
      </trkpt>
      <trkpt lat="45.05605" lon="5.36383">
        <ele>494.56</ele>
        <time>2018-11-28T14:06:14Z</time>
      </trkpt>
      <trkpt lat="45.05617" lon="5.36377">
        <ele>491.48</ele>
        <time>2018-11-28T14:06:27Z</time>
      </trkpt>
      <trkpt lat="45.05619" lon="5.36377">
        <ele>491.22</ele>
        <time>2018-11-28T14:06:29Z</time>
      </trkpt>
      <trkpt lat="45.05633" lon="5.36376">
        <ele>487.83</ele>
        <time>2018-11-28T14:06:41Z</time>
      </trkpt>
      <trkpt lat="45.0565" lon="5.36381">
        <ele>485.42</ele>
        <time>2018-11-28T14:06:56Z</time>
      </trkpt>
      <trkpt lat="45.05669" lon="5.36386">
        <ele>482.36</ele>
        <time>2018-11-28T14:07:10Z</time>
      </trkpt>
      <trkpt lat="45.05683" lon="5.36389">
        <ele>479.3</ele>
        <time>2018-11-28T14:07:22Z</time>
      </trkpt>
      <trkpt lat="45.05695" lon="5.36393">
        <ele>477.32</ele>
        <time>2018-11-28T14:07:32Z</time>
      </trkpt>
      <trkpt lat="45.05708" lon="5.36401">
        <ele>474.58</ele>
        <time>2018-11-28T14:07:42Z</time>
      </trkpt>
      <trkpt lat="45.05713" lon="5.36402">
        <ele>473.98</ele>
        <time>2018-11-28T14:07:46Z</time>
      </trkpt>
      <trkpt lat="45.05728" lon="5.36403">
        <ele>471.42</ele>
        <time>2018-11-28T14:07:58Z</time>
      </trkpt>
      <trkpt lat="45.05738" lon="5.36401">
        <ele>469.8</ele>
        <time>2018-11-28T14:08:06Z</time>
      </trkpt>
      <trkpt lat="45.05741" lon="5.36401">
        <ele>469.47</ele>
        <time>2018-11-28T14:08:08Z</time>
      </trkpt>
      <trkpt lat="45.05744" lon="5.364">
        <ele>468.91</ele>
        <time>2018-11-28T14:08:11Z</time>
      </trkpt>
      <trkpt lat="45.0575" lon="5.36399">
        <ele>467.92</ele>
        <time>2018-11-28T14:08:16Z</time>
      </trkpt>
      <trkpt lat="45.05752" lon="5.36398">
        <ele>467.33</ele>
        <time>2018-11-28T14:08:18Z</time>
      </trkpt>
      <trkpt lat="45.0576" lon="5.36397">
        <ele>466.06</ele>
        <time>2018-11-28T14:08:24Z</time>
      </trkpt>
      <trkpt lat="45.05771" lon="5.36399">
        <ele>463.72</ele>
        <time>2018-11-28T14:08:34Z</time>
      </trkpt>
      <trkpt lat="45.0578" lon="5.36401">
        <ele>462.13</ele>
        <time>2018-11-28T14:08:41Z</time>
      </trkpt>
      <trkpt lat="45.05786" lon="5.36402">
        <ele>460.38</ele>
        <time>2018-11-28T14:08:47Z</time>
      </trkpt>
      <trkpt lat="45.05795" lon="5.36397">
        <ele>458.19</ele>
        <time>2018-11-28T14:08:56Z</time>
      </trkpt>
      <trkpt lat="45.05803" lon="5.36389">
        <ele>456.21</ele>
        <time>2018-11-28T14:09:04Z</time>
      </trkpt>
      <trkpt lat="45.05808" lon="5.36382">
        <ele>454.78</ele>
        <time>2018-11-28T14:09:10Z</time>
      </trkpt>
      <trkpt lat="45.05811" lon="5.36367">
        <ele>452.32</ele>
        <time>2018-11-28T14:09:21Z</time>
      </trkpt>
      <trkpt lat="45.05811" lon="5.36365">
        <ele>452.16</ele>
        <time>2018-11-28T14:09:22Z</time>
      </trkpt>
      <trkpt lat="45.05815" lon="5.36355">
        <ele>451.58</ele>
        <time>2018-11-28T14:09:28Z</time>
      </trkpt>
      <trkpt lat="45.05823" lon="5.36343">
        <ele>450.17</ele>
        <time>2018-11-28T14:09:37Z</time>
      </trkpt>
      <trkpt lat="45.05829" lon="5.36331">
        <ele>449.54</ele>
        <time>2018-11-28T14:09:45Z</time>
      </trkpt>
      <trkpt lat="45.0583" lon="5.36328">
        <ele>449.29</ele>
        <time>2018-11-28T14:09:47Z</time>
      </trkpt>
      <trkpt lat="45.05833" lon="5.36321">
        <ele>448.51</ele>
        <time>2018-11-28T14:09:51Z</time>
      </trkpt>
      <trkpt lat="45.05842" lon="5.36302">
        <ele>446.84</ele>
        <time>2018-11-28T14:10:05Z</time>
      </trkpt>
      <trkpt lat="45.05843" lon="5.363">
        <ele>446.63</ele>
        <time>2018-11-28T14:10:06Z</time>
      </trkpt>
      <trkpt lat="45.05854" lon="5.36292">
        <ele>444.31</ele>
        <time>2018-11-28T14:10:16Z</time>
      </trkpt>
      <trkpt lat="45.05855" lon="5.36291">
        <ele>444.17</ele>
        <time>2018-11-28T14:10:17Z</time>
      </trkpt>
      <trkpt lat="45.05865" lon="5.36287">
        <ele>442.53</ele>
        <time>2018-11-28T14:10:26Z</time>
      </trkpt>
      <trkpt lat="45.0587" lon="5.36286">
        <ele>441.45</ele>
        <time>2018-11-28T14:10:30Z</time>
      </trkpt>
      <trkpt lat="45.05877" lon="5.36281">
        <ele>439.78</ele>
        <time>2018-11-28T14:10:41Z</time>
      </trkpt>
      <trkpt lat="45.05883" lon="5.36278">
        <ele>438.93</ele>
        <time>2018-11-28T14:10:47Z</time>
      </trkpt>
      <trkpt lat="45.05897" lon="5.36264">
        <ele>436.48</ele>
        <time>2018-11-28T14:11:00Z</time>
      </trkpt>
      <trkpt lat="45.05903" lon="5.36254">
        <ele>435.09</ele>
        <time>2018-11-28T14:11:09Z</time>
      </trkpt>
      <trkpt lat="45.05912" lon="5.36243">
        <ele>433.44</ele>
        <time>2018-11-28T14:11:18Z</time>
      </trkpt>
      <trkpt lat="45.05918" lon="5.36237">
        <ele>432.28</ele>
        <time>2018-11-28T14:11:24Z</time>
      </trkpt>
      <trkpt lat="45.0592" lon="5.36234">
        <ele>431.95</ele>
        <time>2018-11-28T14:11:26Z</time>
      </trkpt>
      <trkpt lat="45.05926" lon="5.36225">
        <ele>430.08</ele>
        <time>2018-11-28T14:11:34Z</time>
      </trkpt>
      <trkpt lat="45.05929" lon="5.36222">
        <ele>429.52</ele>
        <time>2018-11-28T14:11:37Z</time>
      </trkpt>
      <trkpt lat="45.05932" lon="5.36218">
        <ele>429.39</ele>
        <time>2018-11-28T14:11:40Z</time>
      </trkpt>
      <trkpt lat="45.05939" lon="5.36214">
        <ele>428.33</ele>
        <time>2018-11-28T14:11:46Z</time>
      </trkpt>
      <trkpt lat="45.0595" lon="5.36201">
        <ele>426.45</ele>
        <time>2018-11-28T14:11:59Z</time>
      </trkpt>
      <trkpt lat="45.05955" lon="5.36196">
        <ele>425.89</ele>
        <time>2018-11-28T14:12:03Z</time>
      </trkpt>
      <trkpt lat="45.05958" lon="5.36194">
        <ele>425.63</ele>
        <time>2018-11-28T14:12:06Z</time>
      </trkpt>
      <trkpt lat="45.05968" lon="5.36178">
        <ele>424</ele>
        <time>2018-11-28T14:12:18Z</time>
      </trkpt>
      <trkpt lat="45.05971" lon="5.36173">
        <ele>423.61</ele>
        <time>2018-11-28T14:12:22Z</time>
      </trkpt>
      <trkpt lat="45.05978" lon="5.36158">
        <ele>422.21</ele>
        <time>2018-11-28T14:12:32Z</time>
      </trkpt>
      <trkpt lat="45.05981" lon="5.36155">
        <ele>422.04</ele>
        <time>2018-11-28T14:12:42Z</time>
      </trkpt>
      <trkpt lat="45.05991" lon="5.36142">
        <ele>419.93</ele>
        <time>2018-11-28T14:12:53Z</time>
      </trkpt>
      <trkpt lat="45.05994" lon="5.36135">
        <ele>418.75</ele>
        <time>2018-11-28T14:12:57Z</time>
      </trkpt>
      <trkpt lat="45.06002" lon="5.36123">
        <ele>415.61</ele>
        <time>2018-11-28T14:13:06Z</time>
      </trkpt>
      <trkpt lat="45.06007" lon="5.3612">
        <ele>414.92</ele>
        <time>2018-11-28T14:13:10Z</time>
      </trkpt>
      <trkpt lat="45.06015" lon="5.36114">
        <ele>414.75</ele>
        <time>2018-11-28T14:13:24Z</time>
      </trkpt>
      <trkpt lat="45.06024" lon="5.36118">
        <ele>414.28</ele>
        <time>2018-11-28T14:13:36Z</time>
      </trkpt>
      <trkpt lat="45.06027" lon="5.36127">
        <ele>413.4</ele>
        <time>2018-11-28T14:13:40Z</time>
      </trkpt>
      <trkpt lat="45.06026" lon="5.36135">
        <ele>412.78</ele>
        <time>2018-11-28T14:13:44Z</time>
      </trkpt>
      <trkpt lat="45.06022" lon="5.36146">
        <ele>411.94</ele>
        <time>2018-11-28T14:13:58Z</time>
      </trkpt>
      <trkpt lat="45.06026" lon="5.36142">
        <ele>411.72</ele>
        <time>2018-11-28T14:14:20Z</time>
      </trkpt>
      <trkpt lat="45.06026" lon="5.36139">
        <ele>412.1</ele>
        <time>2018-11-28T14:14:22Z</time>
      </trkpt>
      <trkpt lat="45.06028" lon="5.36127">
        <ele>412.48</ele>
        <time>2018-11-28T14:14:29Z</time>
      </trkpt>
      <trkpt lat="45.06034" lon="5.36122">
        <ele>412.42</ele>
        <time>2018-11-28T14:14:39Z</time>
      </trkpt>
      <trkpt lat="45.06033" lon="5.36121">
        <ele>412.83</ele>
        <time>2018-11-28T14:15:08Z</time>
      </trkpt>
      <trkpt lat="45.06031" lon="5.36122">
        <ele>412.44</ele>
        <time>2018-11-28T14:15:36Z</time>
      </trkpt>
      <trkpt lat="45.06032" lon="5.36114">
        <ele>413.83</ele>
        <time>2018-11-28T14:15:51Z</time>
      </trkpt>
      <trkpt lat="45.0603" lon="5.36111">
        <ele>413.65</ele>
        <time>2018-11-28T14:16:11Z</time>
      </trkpt>
      <trkpt lat="45.06028" lon="5.3611">
        <ele>412.72</ele>
        <time>2018-11-28T14:16:30Z</time>
      </trkpt>
      <trkpt lat="45.06029" lon="5.3611">
        <ele>413.08</ele>
        <time>2018-11-28T14:16:46Z</time>
      </trkpt>
      <trkpt lat="45.0603" lon="5.36109">
        <ele>413.74</ele>
        <time>2018-11-28T14:17:05Z</time>
      </trkpt>
      <trkpt lat="45.0603" lon="5.36106">
        <ele>413.31</ele>
        <time>2018-11-28T14:17:23Z</time>
      </trkpt>
      <trkpt lat="45.06031" lon="5.36106">
        <ele>413.43</ele>
        <time>2018-11-28T14:17:42Z</time>
      </trkpt>
      <trkpt lat="45.06034" lon="5.36106">
        <ele>413.19</ele>
        <time>2018-11-28T14:17:59Z</time>
      </trkpt>
      <trkpt lat="45.06036" lon="5.36105">
        <ele>412.8</ele>
        <time>2018-11-28T14:18:10Z</time>
      </trkpt>
      <trkpt lat="45.06041" lon="5.36105">
        <ele>411.59</ele>
        <time>2018-11-28T14:18:15Z</time>
      </trkpt>
      <trkpt lat="45.06054" lon="5.36095">
        <ele>409.64</ele>
        <time>2018-11-28T14:18:26Z</time>
      </trkpt>
      <trkpt lat="45.06058" lon="5.3609">
        <ele>408.72</ele>
        <time>2018-11-28T14:18:30Z</time>
      </trkpt>
      <trkpt lat="45.06062" lon="5.36077">
        <ele>407.05</ele>
        <time>2018-11-28T14:18:41Z</time>
      </trkpt>
      <trkpt lat="45.06073" lon="5.36064">
        <ele>404.99</ele>
        <time>2018-11-28T14:18:54Z</time>
      </trkpt>
      <trkpt lat="45.06084" lon="5.36054">
        <ele>401.79</ele>
        <time>2018-11-28T14:19:06Z</time>
      </trkpt>
      <trkpt lat="45.06099" lon="5.36048">
        <ele>398.37</ele>
        <time>2018-11-28T14:19:19Z</time>
      </trkpt>
      <trkpt lat="45.06103" lon="5.36045">
        <ele>397.5</ele>
        <time>2018-11-28T14:19:23Z</time>
      </trkpt>
      <trkpt lat="45.06106" lon="5.36044">
        <ele>396.99</ele>
        <time>2018-11-28T14:19:25Z</time>
      </trkpt>
      <trkpt lat="45.06121" lon="5.36037">
        <ele>393.49</ele>
        <time>2018-11-28T14:19:40Z</time>
      </trkpt>
      <trkpt lat="45.06126" lon="5.36035">
        <ele>392.53</ele>
        <time>2018-11-28T14:19:44Z</time>
      </trkpt>
      <trkpt lat="45.06131" lon="5.36034">
        <ele>392.01</ele>
        <time>2018-11-28T14:19:48Z</time>
      </trkpt>
      <trkpt lat="45.06142" lon="5.36024">
        <ele>390</ele>
        <time>2018-11-28T14:19:59Z</time>
      </trkpt>
      <trkpt lat="45.06145" lon="5.3602">
        <ele>389.13</ele>
        <time>2018-11-28T14:20:03Z</time>
      </trkpt>
      <trkpt lat="45.0615" lon="5.36014">
        <ele>387.9</ele>
        <time>2018-11-28T14:20:09Z</time>
      </trkpt>
      <trkpt lat="45.06156" lon="5.36006">
        <ele>387.11</ele>
        <time>2018-11-28T14:20:16Z</time>
      </trkpt>
      <trkpt lat="45.06163" lon="5.35995">
        <ele>385.32</ele>
        <time>2018-11-28T14:20:26Z</time>
      </trkpt>
      <trkpt lat="45.06168" lon="5.35985">
        <ele>383.61</ele>
        <time>2018-11-28T14:20:33Z</time>
      </trkpt>
      <trkpt lat="45.06171" lon="5.35982">
        <ele>382.65</ele>
        <time>2018-11-28T14:20:37Z</time>
      </trkpt>
      <trkpt lat="45.06177" lon="5.35966">
        <ele>381.13</ele>
        <time>2018-11-28T14:20:47Z</time>
      </trkpt>
      <trkpt lat="45.06185" lon="5.35945">
        <ele>377.84</ele>
        <time>2018-11-28T14:21:00Z</time>
      </trkpt>
      <trkpt lat="45.06188" lon="5.35941">
        <ele>377.33</ele>
        <time>2018-11-28T14:21:03Z</time>
      </trkpt>
      <trkpt lat="45.06191" lon="5.35931">
        <ele>376.35</ele>
        <time>2018-11-28T14:21:09Z</time>
      </trkpt>
      <trkpt lat="45.06197" lon="5.35918">
        <ele>374.12</ele>
        <time>2018-11-28T14:21:19Z</time>
      </trkpt>
      <trkpt lat="45.06204" lon="5.35897">
        <ele>371.05</ele>
        <time>2018-11-28T14:21:34Z</time>
      </trkpt>
      <trkpt lat="45.06211" lon="5.35875">
        <ele>368.55</ele>
        <time>2018-11-28T14:21:48Z</time>
      </trkpt>
      <trkpt lat="45.06213" lon="5.35871">
        <ele>367.87</ele>
        <time>2018-11-28T14:21:51Z</time>
      </trkpt>
      <trkpt lat="45.06214" lon="5.35866">
        <ele>367.44</ele>
        <time>2018-11-28T14:21:54Z</time>
      </trkpt>
      <trkpt lat="45.06217" lon="5.35853">
        <ele>366.03</ele>
        <time>2018-11-28T14:22:03Z</time>
      </trkpt>
      <trkpt lat="45.06218" lon="5.35849">
        <ele>365.85</ele>
        <time>2018-11-28T14:22:05Z</time>
      </trkpt>
      <trkpt lat="45.06222" lon="5.35832">
        <ele>364.57</ele>
        <time>2018-11-28T14:22:16Z</time>
      </trkpt>
      <trkpt lat="45.06229" lon="5.35811">
        <ele>362.44</ele>
        <time>2018-11-28T14:22:30Z</time>
      </trkpt>
      <trkpt lat="45.06233" lon="5.35782">
        <ele>359.84</ele>
        <time>2018-11-28T14:22:47Z</time>
      </trkpt>
      <trkpt lat="45.06234" lon="5.35778">
        <ele>359.56</ele>
        <time>2018-11-28T14:22:49Z</time>
      </trkpt>
      <trkpt lat="45.0624" lon="5.35756">
        <ele>356.5</ele>
        <time>2018-11-28T14:23:05Z</time>
      </trkpt>
      <trkpt lat="45.06247" lon="5.35735">
        <ele>353.88</ele>
        <time>2018-11-28T14:23:18Z</time>
      </trkpt>
      <trkpt lat="45.06253" lon="5.35721">
        <ele>351.07</ele>
        <time>2018-11-28T14:23:29Z</time>
      </trkpt>
      <trkpt lat="45.06262" lon="5.357">
        <ele>347.83</ele>
        <time>2018-11-28T14:23:43Z</time>
      </trkpt>
      <trkpt lat="45.06266" lon="5.35688">
        <ele>345.8</ele>
        <time>2018-11-28T14:23:51Z</time>
      </trkpt>
      <trkpt lat="45.0627" lon="5.35672">
        <ele>344.31</ele>
        <time>2018-11-28T14:24:00Z</time>
      </trkpt>
      <trkpt lat="45.06277" lon="5.35657">
        <ele>342.56</ele>
        <time>2018-11-28T14:24:11Z</time>
      </trkpt>
      <trkpt lat="45.0628" lon="5.35643">
        <ele>341.3</ele>
        <time>2018-11-28T14:24:20Z</time>
      </trkpt>
      <trkpt lat="45.06281" lon="5.35642">
        <ele>341.04</ele>
        <time>2018-11-28T14:24:21Z</time>
      </trkpt>
      <trkpt lat="45.06285" lon="5.35627">
        <ele>339.31</ele>
        <time>2018-11-28T14:24:32Z</time>
      </trkpt>
      <trkpt lat="45.0629" lon="5.35611">
        <ele>338.15</ele>
        <time>2018-11-28T14:24:41Z</time>
      </trkpt>
      <trkpt lat="45.06291" lon="5.35608">
        <ele>337.87</ele>
        <time>2018-11-28T14:24:43Z</time>
      </trkpt>
      <trkpt lat="45.06295" lon="5.35595">
        <ele>335.6</ele>
        <time>2018-11-28T14:24:54Z</time>
      </trkpt>
      <trkpt lat="45.06301" lon="5.35574">
        <ele>332.93</ele>
        <time>2018-11-28T14:25:08Z</time>
      </trkpt>
      <trkpt lat="45.0631" lon="5.35556">
        <ele>330.02</ele>
        <time>2018-11-28T14:25:21Z</time>
      </trkpt>
      <trkpt lat="45.06317" lon="5.35534">
        <ele>326.96</ele>
        <time>2018-11-28T14:25:37Z</time>
      </trkpt>
      <trkpt lat="45.06326" lon="5.35515">
        <ele>323.94</ele>
        <time>2018-11-28T14:25:52Z</time>
      </trkpt>
      <trkpt lat="45.06332" lon="5.35503">
        <ele>322.35</ele>
        <time>2018-11-28T14:26:00Z</time>
      </trkpt>
      <trkpt lat="45.06337" lon="5.35489">
        <ele>318.92</ele>
        <time>2018-11-28T14:26:10Z</time>
      </trkpt>
      <trkpt lat="45.06342" lon="5.35464">
        <ele>315.78</ele>
        <time>2018-11-28T14:26:25Z</time>
      </trkpt>
      <trkpt lat="45.06342" lon="5.35463">
        <ele>315.71</ele>
        <time>2018-11-28T14:26:26Z</time>
      </trkpt>
      <trkpt lat="45.06346" lon="5.35448">
        <ele>314.27</ele>
        <time>2018-11-28T14:26:37Z</time>
      </trkpt>
      <trkpt lat="45.06353" lon="5.35436">
        <ele>311.65</ele>
        <time>2018-11-28T14:26:48Z</time>
      </trkpt>
      <trkpt lat="45.06355" lon="5.35419">
        <ele>309.78</ele>
        <time>2018-11-28T14:26:59Z</time>
      </trkpt>
      <trkpt lat="45.06362" lon="5.35405">
        <ele>308.02</ele>
        <time>2018-11-28T14:27:11Z</time>
      </trkpt>
      <trkpt lat="45.06364" lon="5.35386">
        <ele>304.98</ele>
        <time>2018-11-28T14:27:24Z</time>
      </trkpt>
      <trkpt lat="45.06363" lon="5.35377">
        <ele>304.1</ele>
        <time>2018-11-28T14:27:30Z</time>
      </trkpt>
      <trkpt lat="45.06362" lon="5.35352">
        <ele>301.97</ele>
        <time>2018-11-28T14:27:44Z</time>
      </trkpt>
      <trkpt lat="45.06362" lon="5.3533">
        <ele>299.65</ele>
        <time>2018-11-28T14:27:59Z</time>
      </trkpt>
      <trkpt lat="45.06358" lon="5.35308">
        <ele>297.58</ele>
        <time>2018-11-28T14:28:12Z</time>
      </trkpt>
      <trkpt lat="45.06356" lon="5.35293">
        <ele>296.11</ele>
        <time>2018-11-28T14:28:22Z</time>
      </trkpt>
      <trkpt lat="45.06354" lon="5.35279">
        <ele>294.87</ele>
        <time>2018-11-28T14:28:31Z</time>
      </trkpt>
      <trkpt lat="45.06353" lon="5.35275">
        <ele>294.49</ele>
        <time>2018-11-28T14:28:34Z</time>
      </trkpt>
      <trkpt lat="45.06349" lon="5.35252">
        <ele>292.5</ele>
        <time>2018-11-28T14:28:49Z</time>
      </trkpt>
      <trkpt lat="45.06346" lon="5.35228">
        <ele>289.53</ele>
        <time>2018-11-28T14:29:05Z</time>
      </trkpt>
      <trkpt lat="45.06343" lon="5.35213">
        <ele>288.11</ele>
        <time>2018-11-28T14:29:15Z</time>
      </trkpt>
      <trkpt lat="45.06342" lon="5.35189">
        <ele>285.21</ele>
        <time>2018-11-28T14:29:32Z</time>
      </trkpt>
      <trkpt lat="45.06341" lon="5.35176">
        <ele>283.83</ele>
        <time>2018-11-28T14:29:41Z</time>
      </trkpt>
      <trkpt lat="45.06341" lon="5.35172">
        <ele>283.44</ele>
        <time>2018-11-28T14:29:44Z</time>
      </trkpt>
      <trkpt lat="45.0634" lon="5.35155">
        <ele>281.15</ele>
        <time>2018-11-28T14:29:56Z</time>
      </trkpt>
      <trkpt lat="45.06337" lon="5.35137">
        <ele>278.35</ele>
        <time>2018-11-28T14:30:08Z</time>
      </trkpt>
      <trkpt lat="45.06331" lon="5.35116">
        <ele>275.22</ele>
        <time>2018-11-28T14:30:23Z</time>
      </trkpt>
      <trkpt lat="45.06327" lon="5.35098">
        <ele>272.24</ele>
        <time>2018-11-28T14:30:37Z</time>
      </trkpt>
      <trkpt lat="45.06326" lon="5.35095">
        <ele>271.69</ele>
        <time>2018-11-28T14:30:39Z</time>
      </trkpt>
      <trkpt lat="45.06322" lon="5.35079">
        <ele>268.07</ele>
        <time>2018-11-28T14:30:52Z</time>
      </trkpt>
      <trkpt lat="45.06318" lon="5.35059">
        <ele>265.1</ele>
        <time>2018-11-28T14:31:05Z</time>
      </trkpt>
      <trkpt lat="45.06317" lon="5.35055">
        <ele>264.74</ele>
        <time>2018-11-28T14:31:08Z</time>
      </trkpt>
      <trkpt lat="45.06313" lon="5.35042">
        <ele>262.71</ele>
        <time>2018-11-28T14:31:17Z</time>
      </trkpt>
      <trkpt lat="45.06309" lon="5.35033">
        <ele>261.01</ele>
        <time>2018-11-28T14:31:24Z</time>
      </trkpt>
      <trkpt lat="45.06302" lon="5.35021">
        <ele>258.62</ele>
        <time>2018-11-28T14:31:34Z</time>
      </trkpt>
      <trkpt lat="45.06295" lon="5.35011">
        <ele>256.4</ele>
        <time>2018-11-28T14:31:43Z</time>
      </trkpt>
      <trkpt lat="45.06284" lon="5.35006">
        <ele>254.52</ele>
        <time>2018-11-28T14:31:54Z</time>
      </trkpt>
      <trkpt lat="45.06276" lon="5.34999">
        <ele>252.47</ele>
        <time>2018-11-28T14:32:03Z</time>
      </trkpt>
      <trkpt lat="45.06268" lon="5.34986">
        <ele>249.33</ele>
        <time>2018-11-28T14:32:14Z</time>
      </trkpt>
      <trkpt lat="45.06255" lon="5.34977">
        <ele>246.36</ele>
        <time>2018-11-28T14:32:28Z</time>
      </trkpt>
      <trkpt lat="45.06244" lon="5.34967">
        <ele>242.87</ele>
        <time>2018-11-28T14:32:40Z</time>
      </trkpt>
      <trkpt lat="45.06235" lon="5.34961">
        <ele>240.45</ele>
        <time>2018-11-28T14:32:50Z</time>
      </trkpt>
      <trkpt lat="45.06225" lon="5.34957">
        <ele>238.73</ele>
        <time>2018-11-28T14:33:01Z</time>
      </trkpt>
      <trkpt lat="45.06214" lon="5.34952">
        <ele>236.86</ele>
        <time>2018-11-28T14:33:11Z</time>
      </trkpt>
      <trkpt lat="45.06202" lon="5.34948">
        <ele>234.99</ele>
        <time>2018-11-28T14:33:19Z</time>
      </trkpt>
      <trkpt lat="45.06198" lon="5.3494">
        <ele>233.88</ele>
        <time>2018-11-28T14:33:24Z</time>
      </trkpt>
      <trkpt lat="45.06184" lon="5.3493">
        <ele>231.81</ele>
        <time>2018-11-28T14:33:34Z</time>
      </trkpt>
      <trkpt lat="45.06182" lon="5.34928">
        <ele>231.25</ele>
        <time>2018-11-28T14:33:36Z</time>
      </trkpt>
      <trkpt lat="45.06172" lon="5.34917">
        <ele>229.73</ele>
        <time>2018-11-28T14:33:45Z</time>
      </trkpt>
      <trkpt lat="45.06168" lon="5.3491">
        <ele>229.22</ele>
        <time>2018-11-28T14:33:50Z</time>
      </trkpt>
      <trkpt lat="45.06166" lon="5.34907">
        <ele>229.21</ele>
        <time>2018-11-28T14:33:52Z</time>
      </trkpt>
      <trkpt lat="45.06158" lon="5.349">
        <ele>228.86</ele>
        <time>2018-11-28T14:33:58Z</time>
      </trkpt>
      <trkpt lat="45.06145" lon="5.34889">
        <ele>227.9</ele>
        <time>2018-11-28T14:34:08Z</time>
      </trkpt>
      <trkpt lat="45.06144" lon="5.34887">
        <ele>227.69</ele>
        <time>2018-11-28T14:34:10Z</time>
      </trkpt>
      <trkpt lat="45.06135" lon="5.34881">
        <ele>226.7</ele>
        <time>2018-11-28T14:34:16Z</time>
      </trkpt>
      <trkpt lat="45.06123" lon="5.34871">
        <ele>225.28</ele>
        <time>2018-11-28T14:34:25Z</time>
      </trkpt>
      <trkpt lat="45.06116" lon="5.34864">
        <ele>224.81</ele>
        <time>2018-11-28T14:34:32Z</time>
      </trkpt>
      <trkpt lat="45.06107" lon="5.34853">
        <ele>224.32</ele>
        <time>2018-11-28T14:34:42Z</time>
      </trkpt>
      <trkpt lat="45.06097" lon="5.34846">
        <ele>224.02</ele>
        <time>2018-11-28T14:34:50Z</time>
      </trkpt>
      <trkpt lat="45.06095" lon="5.34842">
        <ele>223.95</ele>
        <time>2018-11-28T14:34:53Z</time>
      </trkpt>
      <trkpt lat="45.06089" lon="5.34834">
        <ele>223.48</ele>
        <time>2018-11-28T14:35:00Z</time>
      </trkpt>
      <trkpt lat="45.06084" lon="5.34826">
        <ele>223.12</ele>
        <time>2018-11-28T14:35:07Z</time>
      </trkpt>
      <trkpt lat="45.06081" lon="5.34818">
        <ele>221.73</ele>
        <time>2018-11-28T14:35:12Z</time>
      </trkpt>
      <trkpt lat="45.06074" lon="5.34801">
        <ele>219.41</ele>
        <time>2018-11-28T14:35:24Z</time>
      </trkpt>
      <trkpt lat="45.06068" lon="5.34788">
        <ele>216.98</ele>
        <time>2018-11-28T14:35:33Z</time>
      </trkpt>
      <trkpt lat="45.06062" lon="5.34773">
        <ele>214.14</ele>
        <time>2018-11-28T14:35:44Z</time>
      </trkpt>
      <trkpt lat="45.06054" lon="5.34758">
        <ele>211.13</ele>
        <time>2018-11-28T14:35:56Z</time>
      </trkpt>
      <trkpt lat="45.06047" lon="5.34748">
        <ele>209.35</ele>
        <time>2018-11-28T14:36:07Z</time>
      </trkpt>
      <trkpt lat="45.06043" lon="5.34744">
        <ele>208.05</ele>
        <time>2018-11-28T14:36:12Z</time>
      </trkpt>
      <trkpt lat="45.0604" lon="5.34731">
        <ele>205.3</ele>
        <time>2018-11-28T14:36:23Z</time>
      </trkpt>
      <trkpt lat="45.0604" lon="5.3473">
        <ele>205.29</ele>
        <time>2018-11-28T14:36:24Z</time>
      </trkpt>
      <trkpt lat="45.06036" lon="5.34722">
        <ele>205.02</ele>
        <time>2018-11-28T14:36:33Z</time>
      </trkpt>
      <trkpt lat="45.06037" lon="5.34717">
        <ele>205.01</ele>
        <time>2018-11-28T14:36:41Z</time>
      </trkpt>
      <trkpt lat="45.06039" lon="5.34713">
        <ele>204.88</ele>
        <time>2018-11-28T14:36:45Z</time>
      </trkpt>
      <trkpt lat="45.06046" lon="5.34709">
        <ele>205.14</ele>
        <time>2018-11-28T14:36:49Z</time>
      </trkpt>
      <trkpt lat="45.0605" lon="5.34694">
        <ele>205.16</ele>
        <time>2018-11-28T14:37:00Z</time>
      </trkpt>
      <trkpt lat="45.06048" lon="5.34693">
        <ele>205.38</ele>
        <time>2018-11-28T14:37:02Z</time>
      </trkpt>
      <trkpt lat="45.06045" lon="5.34685">
        <ele>205.15</ele>
        <time>2018-11-28T14:37:17Z</time>
      </trkpt>
      <trkpt lat="45.06044" lon="5.34675">
        <ele>204.64</ele>
        <time>2018-11-28T14:37:28Z</time>
      </trkpt>
      <trkpt lat="45.06046" lon="5.34664">
        <ele>203.38</ele>
        <time>2018-11-28T14:37:35Z</time>
      </trkpt>
      <trkpt lat="45.06049" lon="5.34655">
        <ele>202.98</ele>
        <time>2018-11-28T14:37:42Z</time>
      </trkpt>
      <trkpt lat="45.0606" lon="5.34638">
        <ele>201.63</ele>
        <time>2018-11-28T14:37:55Z</time>
      </trkpt>
      <trkpt lat="45.0606" lon="5.34636">
        <ele>201.32</ele>
        <time>2018-11-28T14:37:57Z</time>
      </trkpt>
      <trkpt lat="45.06064" lon="5.34631">
        <ele>200.93</ele>
        <time>2018-11-28T14:38:02Z</time>
      </trkpt>
      <trkpt lat="45.06076" lon="5.34627">
        <ele>200.71</ele>
        <time>2018-11-28T14:38:06Z</time>
      </trkpt>
      <trkpt lat="45.0608" lon="5.34617">
        <ele>200.26</ele>
        <time>2018-11-28T14:38:15Z</time>
      </trkpt>
      <trkpt lat="45.06083" lon="5.34612">
        <ele>200.07</ele>
        <time>2018-11-28T14:38:17Z</time>
      </trkpt>
      <trkpt lat="45.06089" lon="5.34601">
        <ele>199.75</ele>
        <time>2018-11-28T14:38:22Z</time>
      </trkpt>
      <trkpt lat="45.06098" lon="5.3459">
        <ele>199.73</ele>
        <time>2018-11-28T14:38:29Z</time>
      </trkpt>
      <trkpt lat="45.061" lon="5.34584">
        <ele>199.64</ele>
        <time>2018-11-28T14:38:32Z</time>
      </trkpt>
      <trkpt lat="45.06102" lon="5.34568">
        <ele>200</ele>
        <time>2018-11-28T14:38:40Z</time>
      </trkpt>
      <trkpt lat="45.06102" lon="5.34566">
        <ele>199.88</ele>
        <time>2018-11-28T14:38:41Z</time>
      </trkpt>
      <trkpt lat="45.06105" lon="5.3455">
        <ele>199.35</ele>
        <time>2018-11-28T14:38:49Z</time>
      </trkpt>
      <trkpt lat="45.06101" lon="5.34541">
        <ele>199.49</ele>
        <time>2018-11-28T14:38:56Z</time>
      </trkpt>
      <trkpt lat="45.061" lon="5.34532">
        <ele>198.91</ele>
        <time>2018-11-28T14:39:01Z</time>
      </trkpt>
      <trkpt lat="45.06101" lon="5.34523">
        <ele>198.82</ele>
        <time>2018-11-28T14:39:06Z</time>
      </trkpt>
      <trkpt lat="45.06104" lon="5.34509">
        <ele>198.11</ele>
        <time>2018-11-28T14:39:16Z</time>
      </trkpt>
      <trkpt lat="45.06105" lon="5.34501">
        <ele>197.96</ele>
        <time>2018-11-28T14:39:21Z</time>
      </trkpt>
      <trkpt lat="45.06109" lon="5.34494">
        <ele>197.38</ele>
        <time>2018-11-28T14:39:25Z</time>
      </trkpt>
      <trkpt lat="45.06111" lon="5.34489">
        <ele>196.81</ele>
        <time>2018-11-28T14:39:29Z</time>
      </trkpt>
      <trkpt lat="45.06109" lon="5.34477">
        <ele>195.76</ele>
        <time>2018-11-28T14:39:37Z</time>
      </trkpt>
      <trkpt lat="45.06107" lon="5.34474">
        <ele>196.08</ele>
        <time>2018-11-28T14:39:50Z</time>
      </trkpt>
      <trkpt lat="45.06104" lon="5.34476">
        <ele>196.2</ele>
        <time>2018-11-28T14:40:09Z</time>
      </trkpt>
      <trkpt lat="45.06107" lon="5.34478">
        <ele>195.83</ele>
        <time>2018-11-28T14:40:29Z</time>
      </trkpt>
      <trkpt lat="45.0611" lon="5.34474">
        <ele>195.83</ele>
        <time>2018-11-28T14:40:41Z</time>
      </trkpt>
      <trkpt lat="45.06113" lon="5.34468">
        <ele>195.82</ele>
        <time>2018-11-28T14:40:45Z</time>
      </trkpt>
      <trkpt lat="45.06117" lon="5.34463">
        <ele>195.85</ele>
        <time>2018-11-28T14:40:49Z</time>
      </trkpt>
      <trkpt lat="45.06123" lon="5.34437">
        <ele>195.36</ele>
        <time>2018-11-28T14:41:04Z</time>
      </trkpt>
      <trkpt lat="45.06127" lon="5.34428">
        <ele>195.59</ele>
        <time>2018-11-28T14:41:11Z</time>
      </trkpt>
      <trkpt lat="45.06114" lon="5.34404">
        <ele>193.1</ele>
        <time>2018-11-28T14:41:26Z</time>
      </trkpt>
      <trkpt lat="45.06111" lon="5.34402">
        <ele>192.55</ele>
        <time>2018-11-28T14:41:29Z</time>
      </trkpt>
      <trkpt lat="45.06103" lon="5.34396">
        <ele>192.4</ele>
        <time>2018-11-28T14:41:36Z</time>
      </trkpt>
      <trkpt lat="45.06099" lon="5.34381">
        <ele>191.76</ele>
        <time>2018-11-28T14:41:45Z</time>
      </trkpt>
      <trkpt lat="45.06098" lon="5.34369">
        <ele>190.41</ele>
        <time>2018-11-28T14:41:52Z</time>
      </trkpt>
      <trkpt lat="45.06103" lon="5.34352">
        <ele>188.85</ele>
        <time>2018-11-28T14:42:02Z</time>
      </trkpt>
      <trkpt lat="45.06112" lon="5.34335">
        <ele>187.28</ele>
        <time>2018-11-28T14:42:13Z</time>
      </trkpt>
      <trkpt lat="45.06121" lon="5.34318">
        <ele>187.56</ele>
        <time>2018-11-28T14:42:25Z</time>
      </trkpt>
      <trkpt lat="45.06124" lon="5.34318">
        <ele>187.77</ele>
        <time>2018-11-28T14:42:36Z</time>
      </trkpt>
      <trkpt lat="45.06126" lon="5.34316">
        <ele>186.84</ele>
        <time>2018-11-28T14:42:52Z</time>
      </trkpt>
      <trkpt lat="45.06127" lon="5.34319">
        <ele>186.91</ele>
        <time>2018-11-28T14:43:15Z</time>
      </trkpt>
      <trkpt lat="45.06129" lon="5.34319">
        <ele>186.93</ele>
        <time>2018-11-28T14:43:44Z</time>
      </trkpt>
      <trkpt lat="45.06127" lon="5.34319">
        <ele>186.94</ele>
        <time>2018-11-28T14:43:57Z</time>
      </trkpt>
      <trkpt lat="45.06127" lon="5.34317">
        <ele>186.94</ele>
        <time>2018-11-28T14:44:18Z</time>
      </trkpt>
    </trkseg>
  </trk>
</gpx>